Wetterdaten: Montag, 19.08.2019
Datum Zeit Temp. A. Pool Temp. Temp. 5cm Feuchte A. Luftdruck Regen Wind Richtung Richtung Sonnenschein ET UV Solar Taupunkt Windchill Windben Empfang
19.08.2019 00:00 19,8 C 23,9 C 17,8 C 80 % 1008,1 hPa 0,0 l/m 3,3 km/h (1 Bft) S-SO 161 0 min 0,000 mm 0,0 UV-I 0 W/m 16,2 C 19,8 C 6,4 km/h (2 Bft) 100,00 %
19.08.2019 00:02 20,1 C 23,9 C 17,8 C 79 % 1008,1 hPa 0,0 l/m 1,7 km/h (1 Bft) S-SO 161 0 min 0,000 mm 0,0 UV-I 0 W/m 16,3 C 20,1 C 3,2 km/h (1 Bft) 100,00 %
19.08.2019 00:04 20,3 C 23,9 C 17,8 C 79 % 1008,1 hPa 0,0 l/m 1,0 km/h (0 Bft) S-SO 161 0 min 0,000 mm 0,0 UV-I 0 W/m 16,5 C 20,3 C 1,6 km/h (1 Bft) 100,00 %
19.08.2019 00:06 20,4 C 23,9 C 17,8 C 78 % 1008,1 hPa 0,0 l/m 1,6 km/h (1 Bft) S-SO 161 0 min 0,000 mm 0,0 UV-I 0 W/m 16,4 C 20,4 C 3,2 km/h (1 Bft) 98,00 %
19.08.2019 00:08 20,5 C 23,9 C 18,3 C 78 % 1008,2 hPa 0,0 l/m 3,0 km/h (1 Bft) W-SW 242 0 min 0,000 mm 0,0 UV-I 0 W/m 16,5 C 20,5 C 4,8 km/h (1 Bft) 98,11 %
19.08.2019 00:10 20,4 C 23,9 C 18,3 C 79 % 1008,2 hPa 0,0 l/m 3,5 km/h (1 Bft) W-SW 244 0 min 0,000 mm 0,0 UV-I 0 W/m 16,6 C 20,4 C 4,8 km/h (1 Bft) 92,11 %
19.08.2019 00:12 20,3 C 23,9 C 18,3 C 79 % 1008,3 hPa 0,0 l/m 3,7 km/h (1 Bft) W 262 0 min 0,000 mm 0,0 UV-I 0 W/m 16,5 C 20,3 C 4,8 km/h (1 Bft) 98,00 %
19.08.2019 00:14 20,3 C 23,9 C 18,3 C 79 % 1008,3 hPa 0,0 l/m 3,3 km/h (1 Bft) W 277 0 min 0,000 mm 0,0 UV-I 0 W/m 16,5 C 20,3 C 4,8 km/h (1 Bft) 96,23 %
19.08.2019 00:16 20,1 C 23,9 C 18,3 C 79 % 1008,3 hPa 0,0 l/m 2,1 km/h (1 Bft) W 277 0 min 0,000 mm 0,0 UV-I 0 W/m 16,3 C 20,1 C 3,2 km/h (1 Bft) 92,68 %
19.08.2019 00:18 19,8 C 23,9 C 18,3 C 80 % 1008,3 hPa 0,0 l/m 2,0 km/h (1 Bft) W 276 0 min 0,000 mm 0,0 UV-I 0 W/m 16,2 C 19,8 C 3,2 km/h (1 Bft) 98,11 %
19.08.2019 00:20 19,6 C 23,9 C 18,3 C 81 % 1008,3 hPa 0,0 l/m 2,2 km/h (1 Bft) W 276 0 min 0,000 mm 0,0 UV-I 0 W/m 16,2 C 19,6 C 3,2 km/h (1 Bft) 97,87 %
19.08.2019 00:22 19,3 C 23,9 C 18,3 C 82 % 1008,3 hPa 0,0 l/m 2,2 km/h (1 Bft) W 276 0 min 0,000 mm 0,0 UV-I 0 W/m 16,1 C 19,3 C 3,2 km/h (1 Bft) 97,56 %
19.08.2019 00:24 19,1 C 23,9 C 18,3 C 83 % 1008,2 hPa 0,0 l/m 1,4 km/h (1 Bft) W 276 0 min 0,000 mm 0,0 UV-I 0 W/m 16,1 C 19,1 C 3,2 km/h (1 Bft) 94,44 %
19.08.2019 00:26 19,2 C 23,9 C 18,3 C 83 % 1008,2 hPa 0,0 l/m 1,5 km/h (1 Bft) W 276 0 min 0,000 mm 0,0 UV-I 0 W/m 16,2 C 19,2 C 3,2 km/h (1 Bft) 98,11 %
19.08.2019 00:28 19,5 C 23,9 C 17,8 C 82 % 1008,2 hPa 0,0 l/m 0,1 km/h (0 Bft) W 276 0 min 0,000 mm 0,0 UV-I 0 W/m 16,3 C 19,5 C 1,6 km/h (1 Bft) 98,00 %
19.08.2019 00:30 19,8 C 23,9 C 17,8 C 81 % 1008,2 hPa 0,0 l/m 0,5 km/h (0 Bft) W 276 0 min 0,000 mm 0,0 UV-I 0 W/m 16,4 C 19,8 C 3,2 km/h (1 Bft) 95,74 %
19.08.2019 00:32 19,9 C 23,9 C 17,8 C 80 % 1008,1 hPa 0,0 l/m 2,9 km/h (1 Bft) W 276 0 min 0,000 mm 0,0 UV-I 0 W/m 16,3 C 19,9 C 3,2 km/h (1 Bft) 98,00 %
19.08.2019 00:34 19,8 C 23,9 C 17,8 C 80 % 1008,1 hPa 0,0 l/m 3,0 km/h (1 Bft) W 274 0 min 0,000 mm 0,0 UV-I 0 W/m 16,2 C 19,8 C 4,8 km/h (1 Bft) 100,00 %
19.08.2019 00:36 19,8 C 23,9 C 17,8 C 80 % 1008,0 hPa 0,0 l/m 3,6 km/h (1 Bft) O-SO 102 0 min 0,000 mm 0,0 UV-I 0 W/m 16,2 C 19,8 C 4,8 km/h (1 Bft) 97,56 %
19.08.2019 00:38 19,8 C 23,9 C 17,8 C 80 % 1008,0 hPa 0,0 l/m 3,8 km/h (1 Bft) O-SO 102 0 min 0,000 mm 0,0 UV-I 0 W/m 16,2 C 19,8 C 4,8 km/h (1 Bft) 98,00 %
19.08.2019 00:40 19,7 C 23,9 C 17,8 C 81 % 1008,0 hPa 0,0 l/m 3,7 km/h (1 Bft) O 101 0 min 0,000 mm 0,0 UV-I 0 W/m 16,3 C 19,7 C 4,8 km/h (1 Bft) 97,87 %
19.08.2019 00:42 19,7 C 23,9 C 17,2 C 81 % 1008,0 hPa 0,0 l/m 2,2 km/h (1 Bft) O 101 0 min 0,000 mm 0,0 UV-I 0 W/m 16,3 C 19,7 C 3,2 km/h (1 Bft) 96,00 %
19.08.2019 00:44 19,6 C 23,9 C 17,8 C 81 % 1007,9 hPa 0,0 l/m 0,6 km/h (0 Bft) O 101 0 min 0,000 mm 0,0 UV-I 0 W/m 16,2 C 19,6 C 1,6 km/h (1 Bft) 97,73 %
19.08.2019 00:46 19,5 C 23,9 C 17,8 C 81 % 1007,9 hPa 0,0 l/m 2,4 km/h (1 Bft) O-SO 103 0 min 0,000 mm 0,0 UV-I 0 W/m 16,1 C 19,5 C 4,8 km/h (1 Bft) 95,74 %
19.08.2019 00:48 19,6 C 23,9 C 17,8 C 81 % 1007,9 hPa 0,0 l/m 4,2 km/h (1 Bft) O-SO 122 0 min 0,000 mm 0,0 UV-I 0 W/m 16,2 C 19,6 C 4,8 km/h (1 Bft) 97,87 %
19.08.2019 00:50 19,5 C 23,9 C 17,8 C 81 % 1007,9 hPa 0,0 l/m 3,1 km/h (1 Bft) O-SO 122 0 min 0,000 mm 0,0 UV-I 0 W/m 16,1 C 19,5 C 4,8 km/h (1 Bft) 97,73 %
19.08.2019 00:52 19,4 C 23,9 C 17,8 C 81 % 1007,9 hPa 0,0 l/m 2,8 km/h (1 Bft) O-SO 122 0 min 0,000 mm 0,0 UV-I 0 W/m 16,1 C 19,4 C 3,2 km/h (1 Bft) 98,00 %
19.08.2019 00:54 19,3 C 23,9 C 17,8 C 82 % 1007,8 hPa 0,0 l/m 2,8 km/h (1 Bft) O-SO 122 0 min 0,000 mm 0,0 UV-I 0 W/m 16,1 C 19,3 C 4,8 km/h (1 Bft) 92,00 %
19.08.2019 00:56 19,3 C 23,9 C 18,3 C 82 % 1007,9 hPa 0,0 l/m 4,3 km/h (1 Bft) S-SO 163 0 min 0,000 mm 0,0 UV-I 0 W/m 16,1 C 19,3 C 8,0 km/h (2 Bft) 94,87 %
19.08.2019 00:58 19,3 C 23,9 C 18,3 C 82 % 1007,8 hPa 0,0 l/m 3,7 km/h (1 Bft) S-SO 163 0 min 0,000 mm 0,0 UV-I 0 W/m 16,1 C 19,3 C 6,4 km/h (2 Bft) 96,36 %
19.08.2019 01:00 19,2 C 23,9 C 17,8 C 82 % 1007,7 hPa 0,0 l/m 4,8 km/h (1 Bft) S-SO 148 0 min 0,025 mm 0,0 UV-I 0 W/m 16,0 C 19,2 C 6,4 km/h (2 Bft) 97,44 %
19.08.2019 01:02 19,1 C 23,9 C 17,8 C 82 % 1007,7 hPa 0,0 l/m 6,2 km/h (2 Bft) SO 131 0 min 0,000 mm 0,0 UV-I 0 W/m 16,0 C 19,1 C 8,0 km/h (2 Bft) 95,74 %
19.08.2019 01:04 19,1 C 23,9 C 17,8 C 82 % 1007,7 hPa 0,0 l/m 6,5 km/h (2 Bft) SO 137 0 min 0,000 mm 0,0 UV-I 0 W/m 16,0 C 19,1 C 8,0 km/h (2 Bft) 98,11 %
19.08.2019 01:06 19,1 C 23,9 C 17,8 C 83 % 1007,7 hPa 0,0 l/m 7,2 km/h (2 Bft) SO 134 0 min 0,000 mm 0,0 UV-I 0 W/m 16,1 C 18,7 C 11,3 km/h (2 Bft) 97,37 %
19.08.2019 01:08 19,4 C 23,9 C 17,8 C 82 % 1007,7 hPa 0,0 l/m 4,5 km/h (1 Bft) SO 139 0 min 0,000 mm 0,0 UV-I 0 W/m 16,2 C 19,4 C 8,0 km/h (2 Bft) 96,23 %
19.08.2019 01:10 19,7 C 23,9 C 18,3 C 80 % 1007,7 hPa 0,0 l/m 5,7 km/h (1 Bft) S 169 0 min 0,000 mm 0,0 UV-I 0 W/m 16,1 C 19,7 C 12,9 km/h (3 Bft) 98,11 %
19.08.2019 01:12 19,9 C 23,9 C 18,3 C 79 % 1007,7 hPa 0,0 l/m 6,2 km/h (2 Bft) S-SO 160 0 min 0,000 mm 0,0 UV-I 0 W/m 16,1 C 19,9 C 9,7 km/h (2 Bft) 100,00 %
19.08.2019 01:14 19,9 C 23,9 C 18,3 C 79 % 1007,7 hPa 0,0 l/m 3,5 km/h (1 Bft) S-SO 163 0 min 0,000 mm 0,0 UV-I 0 W/m 16,1 C 19,9 C 6,4 km/h (2 Bft) 100,00 %
19.08.2019 01:16 19,9 C 23,9 C 18,3 C 79 % 1007,8 hPa 0,0 l/m 4,3 km/h (1 Bft) S-SO 158 0 min 0,000 mm 0,0 UV-I 0 W/m 16,1 C 19,9 C 6,4 km/h (2 Bft) 98,11 %
19.08.2019 01:18 19,8 C 23,9 C 18,3 C 80 % 1007,8 hPa 0,0 l/m 4,1 km/h (1 Bft) S-SO 161 0 min 0,000 mm 0,0 UV-I 0 W/m 16,2 C 19,8 C 8,0 km/h (2 Bft) 97,56 %
19.08.2019 01:20 19,8 C 23,9 C 18,3 C 80 % 1007,8 hPa 0,0 l/m 5,0 km/h (1 Bft) S 175 0 min 0,000 mm 0,0 UV-I 0 W/m 16,2 C 19,8 C 8,0 km/h (2 Bft) 97,87 %
19.08.2019 01:22 19,7 C 23,9 C 18,3 C 80 % 1007,8 hPa 0,0 l/m 5,3 km/h (1 Bft) S-SO 162 0 min 0,000 mm 0,0 UV-I 0 W/m 16,1 C 19,7 C 6,4 km/h (2 Bft) 100,00 %
19.08.2019 01:24 19,8 C 23,9 C 18,3 C 80 % 1007,8 hPa 0,0 l/m 4,4 km/h (1 Bft) S-SO 164 0 min 0,000 mm 0,0 UV-I 0 W/m 16,2 C 19,8 C 6,4 km/h (2 Bft) 100,00 %
19.08.2019 01:26 19,8 C 23,9 C 18,9 C 80 % 1007,9 hPa 0,0 l/m 2,7 km/h (1 Bft) S-SO 164 0 min 0,000 mm 0,0 UV-I 0 W/m 16,2 C 19,8 C 6,4 km/h (2 Bft) 100,00 %
19.08.2019 01:28 19,7 C 23,9 C 18,9 C 80 % 1007,9 hPa 0,0 l/m 4,6 km/h (1 Bft) S-SO 164 0 min 0,000 mm 0,0 UV-I 0 W/m 16,1 C 19,7 C 6,4 km/h (2 Bft) 97,87 %
19.08.2019 01:30 19,6 C 23,9 C 18,3 C 81 % 1007,9 hPa 0,0 l/m 4,4 km/h (1 Bft) S 190 0 min 0,000 mm 0,0 UV-I 0 W/m 16,2 C 19,6 C 6,4 km/h (2 Bft) 100,00 %
19.08.2019 01:32 19,4 C 23,9 C 18,3 C 81 % 1007,9 hPa 0,0 l/m 4,0 km/h (1 Bft) S 190 0 min 0,000 mm 0,0 UV-I 0 W/m 16,1 C 19,4 C 4,8 km/h (1 Bft) 100,00 %
19.08.2019 01:34 19,3 C 23,9 C 17,8 C 82 % 1007,9 hPa 0,0 l/m 5,3 km/h (1 Bft) SW 223 0 min 0,000 mm 0,0 UV-I 0 W/m 16,1 C 19,3 C 6,4 km/h (2 Bft) 100,00 %
19.08.2019 01:36 19,3 C 23,9 C 17,8 C 82 % 1007,9 hPa 0,0 l/m 4,4 km/h (1 Bft) SW 223 0 min 0,000 mm 0,0 UV-I 0 W/m 16,1 C 19,3 C 4,8 km/h (1 Bft) 96,36 %
19.08.2019 01:38 19,3 C 23,9 C 17,8 C 82 % 1008,0 hPa 0,0 l/m 3,6 km/h (1 Bft) SW 223 0 min 0,000 mm 0,0 UV-I 0 W/m 16,1 C 19,3 C 4,8 km/h (1 Bft) 97,87 %
19.08.2019 01:40 19,3 C 23,9 C 17,8 C 82 % 1008,0 hPa 0,0 l/m 3,8 km/h (1 Bft) SW 223 0 min 0,000 mm 0,0 UV-I 0 W/m 16,1 C 19,3 C 4,8 km/h (1 Bft) 97,62 %
19.08.2019 01:42 19,3 C 23,9 C 17,8 C 82 % 1008,0 hPa 0,0 l/m 3,9 km/h (1 Bft) SW 223 0 min 0,000 mm 0,0 UV-I 0 W/m 16,1 C 19,3 C 6,4 km/h (2 Bft) 96,00 %
19.08.2019 01:44 19,2 C 23,9 C 17,8 C 82 % 1008,0 hPa 0,0 l/m 4,8 km/h (1 Bft) S-SW 202 0 min 0,000 mm 0,0 UV-I 0 W/m 16,0 C 19,2 C 6,4 km/h (2 Bft) 97,37 %
19.08.2019 01:46 19,0 C 23,9 C 17,8 C 83 % 1008,0 hPa 0,0 l/m 5,5 km/h (1 Bft) S-SW 209 0 min 0,000 mm 0,0 UV-I 0 W/m 16,0 C 19,0 C 6,4 km/h (2 Bft) 98,00 %
19.08.2019 01:48 18,8 C 23,9 C 17,8 C 83 % 1008,1 hPa 0,0 l/m 4,9 km/h (1 Bft) SW 219 0 min 0,000 mm 0,0 UV-I 0 W/m 15,8 C 18,8 C 8,0 km/h (2 Bft) 97,87 %
19.08.2019 01:50 18,9 C 23,9 C 17,8 C 84 % 1008,0 hPa 0,0 l/m 5,7 km/h (1 Bft) SW 216 0 min 0,000 mm 0,0 UV-I 0 W/m 16,1 C 18,9 C 8,0 km/h (2 Bft) 98,11 %
19.08.2019 01:52 19,1 C 23,9 C 17,8 C 84 % 1008,0 hPa 0,0 l/m 4,8 km/h (1 Bft) SW 229 0 min 0,000 mm 0,0 UV-I 0 W/m 16,3 C 19,1 C 6,4 km/h (2 Bft) 97,37 %
19.08.2019 01:54 19,2 C 23,9 C 18,3 C 83 % 1008,1 hPa 0,0 l/m 5,2 km/h (1 Bft) SW 231 0 min 0,000 mm 0,0 UV-I 0 W/m 16,2 C 19,2 C 8,0 km/h (2 Bft) 98,21 %
19.08.2019 01:56 19,3 C 23,9 C 18,3 C 83 % 1008,1 hPa 0,0 l/m 4,5 km/h (1 Bft) SW 231 0 min 0,000 mm 0,0 UV-I 0 W/m 16,3 C 19,3 C 6,4 km/h (2 Bft) 97,37 %
19.08.2019 01:58 19,4 C 23,9 C 18,3 C 82 % 1008,2 hPa 0,0 l/m 4,1 km/h (1 Bft) SW 231 0 min 0,000 mm 0,0 UV-I 0 W/m 16,2 C 19,4 C 6,4 km/h (2 Bft) 96,23 %
19.08.2019 02:00 19,3 C 23,9 C 17,8 C 83 % 1008,2 hPa 0,0 l/m 5,1 km/h (1 Bft) SW 231 0 min 0,026 mm 0,0 UV-I 0 W/m 16,3 C 19,3 C 6,4 km/h (2 Bft) 100,00 %
19.08.2019 02:02 19,2 C 23,9 C 17,8 C 83 % 1008,2 hPa 0,0 l/m 4,3 km/h (1 Bft) SW 231 0 min 0,000 mm 0,0 UV-I 0 W/m 16,2 C 19,2 C 4,8 km/h (1 Bft) 100,00 %
19.08.2019 02:04 19,2 C 23,9 C 17,8 C 83 % 1008,2 hPa 0,0 l/m 4,2 km/h (1 Bft) SW 235 0 min 0,000 mm 0,0 UV-I 0 W/m 16,2 C 19,2 C 6,4 km/h (2 Bft) 100,00 %
19.08.2019 02:06 19,2 C 23,9 C 17,8 C 83 % 1008,4 hPa 0,0 l/m 5,3 km/h (1 Bft) W-SW 250 0 min 0,000 mm 0,0 UV-I 0 W/m 16,2 C 19,2 C 6,4 km/h (2 Bft) 100,00 %
19.08.2019 02:08 19,1 C 23,9 C 17,8 C 83 % 1008,4 hPa 0,0 l/m 5,8 km/h (2 Bft) W-SW 248 0 min 0,000 mm 0,0 UV-I 0 W/m 16,1 C 19,1 C 8,0 km/h (2 Bft) 100,00 %
19.08.2019 02:10 18,9 C 23,9 C 17,8 C 84 % 1008,4 hPa 0,0 l/m 4,4 km/h (1 Bft) SW 233 0 min 0,000 mm 0,0 UV-I 0 W/m 16,1 C 18,9 C 6,4 km/h (2 Bft) 100,00 %
19.08.2019 02:12 18,9 C 23,9 C 17,8 C 84 % 1008,4 hPa 0,0 l/m 5,7 km/h (1 Bft) SW 215 0 min 0,000 mm 0,0 UV-I 0 W/m 16,1 C 18,9 C 8,0 km/h (2 Bft) 100,00 %
19.08.2019 02:14 18,9 C 23,9 C 17,8 C 84 % 1008,4 hPa 0,0 l/m 5,9 km/h (2 Bft) SW 234 0 min 0,000 mm 0,0 UV-I 0 W/m 16,1 C 18,9 C 8,0 km/h (2 Bft) 100,00 %
19.08.2019 02:16 18,9 C 23,9 C 17,8 C 84 % 1008,4 hPa 0,0 l/m 6,1 km/h (2 Bft) S-SW 213 0 min 0,000 mm 0,0 UV-I 0 W/m 16,1 C 18,9 C 8,0 km/h (2 Bft) 100,00 %
19.08.2019 02:18 19,0 C 23,9 C 18,3 C 84 % 1008,5 hPa 0,0 l/m 6,2 km/h (2 Bft) SW 235 0 min 0,000 mm 0,0 UV-I 0 W/m 16,2 C 19,0 C 8,0 km/h (2 Bft) 100,00 %
19.08.2019 02:20 19,1 C 23,9 C 18,3 C 84 % 1008,6 hPa 0,0 l/m 9,4 km/h (2 Bft) W-SW 237 0 min 0,000 mm 0,0 UV-I 0 W/m 16,3 C 17,9 C 14,5 km/h (3 Bft) 100,00 %
19.08.2019 02:22 19,2 C 23,9 C 18,3 C 83 % 1008,7 hPa 0,0 l/m 8,3 km/h (2 Bft) SW 217 0 min 0,000 mm 0,0 UV-I 0 W/m 16,2 C 18,4 C 14,5 km/h (3 Bft) 100,00 %
19.08.2019 02:24 19,3 C 23,9 C 18,3 C 83 % 1008,8 hPa 0,0 l/m 10,6 km/h (2 Bft) W-SW 247 0 min 0,000 mm 0,0 UV-I 0 W/m 16,3 C 17,7 C 16,1 km/h (3 Bft) 100,00 %
19.08.2019 02:26 19,3 C 23,9 C 18,3 C 83 % 1008,7 hPa 0,0 l/m 11,0 km/h (2 Bft) W-SW 253 0 min 0,000 mm 0,0 UV-I 0 W/m 16,3 C 17,5 C 16,1 km/h (3 Bft) 100,00 %
19.08.2019 02:28 19,6 C 23,9 C 18,9 C 82 % 1008,7 hPa 0,0 l/m 6,1 km/h (2 Bft) W-SW 242 0 min 0,000 mm 0,0 UV-I 0 W/m 16,4 C 19,6 C 9,7 km/h (2 Bft) 98,00 %
19.08.2019 02:30 19,8 C 23,9 C 18,9 C 82 % 1008,8 hPa 0,0 l/m 6,4 km/h (2 Bft) W-SW 241 0 min 0,000 mm 0,0 UV-I 0 W/m 16,6 C 19,8 C 11,3 km/h (2 Bft) 100,00 %
19.08.2019 02:32 19,8 C 23,9 C 18,9 C 81 % 1008,8 hPa 0,0 l/m 8,6 km/h (2 Bft) W-SW 247 0 min 0,000 mm 0,0 UV-I 0 W/m 16,4 C 18,9 C 12,9 km/h (3 Bft) 98,00 %
19.08.2019 02:34 19,8 C 23,3 C 18,9 C 81 % 1008,9 hPa 0,0 l/m 8,8 km/h (2 Bft) W-SW 255 0 min 0,000 mm 0,0 UV-I 0 W/m 16,4 C 18,8 C 12,9 km/h (3 Bft) 100,00 %
19.08.2019 02:36 19,8 C 23,3 C 18,9 C 81 % 1008,9 hPa 0,0 l/m 8,6 km/h (2 Bft) W-SW 250 0 min 0,000 mm 0,0 UV-I 0 W/m 16,4 C 18,9 C 12,9 km/h (3 Bft) 98,00 %
19.08.2019 02:38 19,7 C 23,3 C 18,9 C 82 % 1008,9 hPa 0,0 l/m 7,3 km/h (2 Bft) W-SW 240 0 min 0,000 mm 0,0 UV-I 0 W/m 16,5 C 19,3 C 12,9 km/h (3 Bft) 100,00 %
19.08.2019 02:40 19,6 C 23,3 C 18,9 C 82 % 1009,0 hPa 0,0 l/m 7,5 km/h (2 Bft) W-SW 252 0 min 0,000 mm 0,0 UV-I 0 W/m 16,4 C 19,1 C 11,3 km/h (2 Bft) 92,00 %
19.08.2019 02:42 19,6 C 23,3 C 18,9 C 82 % 1009,0 hPa 0,0 l/m 7,0 km/h (2 Bft) SW 227 0 min 0,000 mm 0,0 UV-I 0 W/m 16,4 C 19,3 C 11,3 km/h (2 Bft) 97,37 %
19.08.2019 02:44 19,5 C 23,9 C 18,9 C 82 % 1009,0 hPa 0,0 l/m 6,7 km/h (2 Bft) SW 219 0 min 0,000 mm 0,0 UV-I 0 W/m 16,3 C 19,4 C 9,7 km/h (2 Bft) 93,62 %
19.08.2019 02:46 19,5 C 23,9 C 18,3 C 82 % 1009,0 hPa 0,0 l/m 5,6 km/h (1 Bft) S-SW 213 0 min 0,000 mm 0,0 UV-I 0 W/m 16,3 C 19,5 C 8,0 km/h (2 Bft) 95,74 %
19.08.2019 02:48 19,4 C 23,3 C 18,3 C 82 % 1009,0 hPa 0,0 l/m 3,7 km/h (1 Bft) S-SW 213 0 min 0,000 mm 0,0 UV-I 0 W/m 16,2 C 19,4 C 6,4 km/h (2 Bft) 97,87 %
19.08.2019 02:50 19,4 C 23,3 C 18,3 C 83 % 1009,1 hPa 0,0 l/m 3,5 km/h (1 Bft) S-SW 212 0 min 0,000 mm 0,0 UV-I 0 W/m 16,4 C 19,4 C 4,8 km/h (1 Bft) 96,23 %
19.08.2019 02:52 19,3 C 23,3 C 18,3 C 83 % 1009,1 hPa 0,0 l/m 4,8 km/h (1 Bft) S-SW 196 0 min 0,000 mm 0,0 UV-I 0 W/m 16,3 C 19,3 C 6,4 km/h (2 Bft) 94,44 %
19.08.2019 02:54 19,3 C 23,3 C 17,8 C 83 % 1009,2 hPa 0,0 l/m 3,4 km/h (1 Bft) S-SW 198 0 min 0,000 mm 0,0 UV-I 0 W/m 16,3 C 19,3 C 4,8 km/h (1 Bft) 96,43 %
19.08.2019 02:56 19,3 C 23,3 C 18,3 C 83 % 1009,3 hPa 0,0 l/m 4,6 km/h (1 Bft) SW 227 0 min 0,000 mm 0,0 UV-I 0 W/m 16,3 C 19,3 C 6,4 km/h (2 Bft) 93,62 %
19.08.2019 02:58 19,3 C 23,3 C 18,3 C 83 % 1009,4 hPa 0,0 l/m 6,1 km/h (2 Bft) S-SW 212 0 min 0,000 mm 0,0 UV-I 0 W/m 16,3 C 19,3 C 8,0 km/h (2 Bft) 92,00 %
19.08.2019 03:00 19,3 C 23,3 C 18,3 C 83 % 1009,4 hPa 0,0 l/m 6,1 km/h (2 Bft) S-SW 202 0 min 0,025 mm 0,0 UV-I 0 W/m 16,3 C 19,3 C 8,0 km/h (2 Bft) 97,37 %
19.08.2019 03:02 19,2 C 23,3 C 18,3 C 83 % 1009,5 hPa 0,0 l/m 8,5 km/h (2 Bft) S-SW 200 0 min 0,000 mm 0,0 UV-I 0 W/m 16,2 C 18,3 C 11,3 km/h (2 Bft) 92,00 %
19.08.2019 03:04 19,1 C 23,3 C 18,3 C 84 % 1009,5 hPa 0,0 l/m 9,1 km/h (2 Bft) S-SW 194 0 min 0,000 mm 0,0 UV-I 0 W/m 16,3 C 18,0 C 14,5 km/h (3 Bft) 91,49 %
19.08.2019 03:06 19,1 C 23,3 C 18,3 C 84 % 1009,5 hPa 0,0 l/m 7,6 km/h (2 Bft) S-SW 212 0 min 0,000 mm 0,0 UV-I 0 W/m 16,3 C 18,6 C 9,7 km/h (2 Bft) 92,68 %
19.08.2019 03:08 19,1 C 23,3 C 18,3 C 84 % 1009,5 hPa 0,0 l/m 8,9 km/h (2 Bft) S-SW 205 0 min 0,000 mm 0,0 UV-I 0 W/m 16,3 C 18,0 C 11,3 km/h (2 Bft) 90,91 %
19.08.2019 03:10 19,1 C 23,3 C 18,3 C 84 % 1009,7 hPa 0,0 l/m 9,1 km/h (2 Bft) S-SW 202 0 min 0,000 mm 0,0 UV-I 0 W/m 16,3 C 18,0 C 11,3 km/h (2 Bft) 94,64 %
19.08.2019 03:12 19,1 C 23,3 C 18,3 C 84 % 1009,8 hPa 0,0 l/m 7,5 km/h (2 Bft) S-SW 208 0 min 0,000 mm 0,0 UV-I 0 W/m 16,3 C 18,6 C 11,3 km/h (2 Bft) 92,31 %
19.08.2019 03:14 19,1 C 23,3 C 18,3 C 84 % 1009,8 hPa 0,0 l/m 6,8 km/h (2 Bft) SW 220 0 min 0,000 mm 0,0 UV-I 0 W/m 16,3 C 18,9 C 9,7 km/h (2 Bft) 95,77 %
19.08.2019 03:16 19,0 C 23,3 C 18,3 C 84 % 1009,8 hPa 0,0 l/m 6,6 km/h (2 Bft) SW 217 0 min 0,000 mm 0,0 UV-I 0 W/m 16,2 C 18,9 C 8,0 km/h (2 Bft) 94,74 %
19.08.2019 03:18 18,9 C 23,3 C 18,3 C 84 % 1009,9 hPa 0,0 l/m 6,6 km/h (2 Bft) SW 215 0 min 0,000 mm 0,0 UV-I 0 W/m 16,1 C 18,8 C 9,7 km/h (2 Bft) 95,74 %
19.08.2019 03:20 18,9 C 23,3 C 18,3 C 85 % 1010,0 hPa 0,0 l/m 10,0 km/h (2 Bft) SW 236 0 min 0,000 mm 0,0 UV-I 0 W/m 16,3 C 17,4 C 14,5 km/h (3 Bft) 92,45 %
19.08.2019 03:22 18,9 C 23,3 C 18,3 C 85 % 1010,0 hPa 0,0 l/m 9,7 km/h (2 Bft) SW 215 0 min 0,000 mm 0,0 UV-I 0 W/m 16,3 C 17,5 C 12,9 km/h (3 Bft) 95,12 %
19.08.2019 03:24 18,9 C 23,3 C 18,3 C 85 % 1010,0 hPa 0,0 l/m 10,9 km/h (2 Bft) W-SW 252 0 min 0,000 mm 0,0 UV-I 0 W/m 16,3 C 17,1 C 14,5 km/h (3 Bft) 92,86 %
19.08.2019 03:26 18,8 C 23,3 C 18,3 C 85 % 1010,1 hPa 0,0 l/m 10,0 km/h (2 Bft) S-SW 205 0 min 0,000 mm 0,0 UV-I 0 W/m 16,2 C 17,3 C 14,5 km/h (3 Bft) 97,73 %
19.08.2019 03:28 18,9 C 23,3 C 18,3 C 85 % 1010,1 hPa 0,0 l/m 12,7 km/h (3 Bft) W-SW 254 0 min 0,000 mm 0,0 UV-I 0 W/m 16,3 C 16,6 C 25,7 km/h (4 Bft) 97,62 %
19.08.2019 03:30 19,0 C 23,3 C 18,3 C 85 % 1010,2 hPa 0,0 l/m 13,3 km/h (3 Bft) W 262 0 min 0,000 mm 0,0 UV-I 0 W/m 16,4 C 16,5 C 17,7 km/h (3 Bft) 95,45 %
19.08.2019 03:32 19,1 C 23,3 C 18,9 C 84 % 1010,2 hPa 0,0 l/m 16,6 km/h (3 Bft) W 260 0 min 0,000 mm 0,0 UV-I 0 W/m 16,3 C 15,8 C 22,5 km/h (4 Bft) 96,43 %
19.08.2019 03:34 19,2 C 23,3 C 18,9 C 84 % 1010,3 hPa 0,0 l/m 13,1 km/h (3 Bft) W-SW 258 0 min 0,000 mm 0,0 UV-I 0 W/m 16,4 C 16,8 C 17,7 km/h (3 Bft) 97,37 %
19.08.2019 03:36 19,3 C 23,3 C 18,9 C 84 % 1010,4 hPa 0,0 l/m 14,7 km/h (3 Bft) SW 217 0 min 0,000 mm 0,0 UV-I 0 W/m 16,5 C 16,5 C 22,5 km/h (4 Bft) 97,87 %
19.08.2019 03:38 19,4 C 23,3 C 19,4 C 83 % 1010,4 hPa 0,0 l/m 16,8 km/h (3 Bft) SW 215 0 min 0,000 mm 0,0 UV-I 0 W/m 16,4 C 16,1 C 22,5 km/h (4 Bft) 98,11 %
19.08.2019 03:40 19,6 C 23,3 C 19,4 C 82 % 1010,4 hPa 0,0 l/m 18,3 km/h (3 Bft) W-SW 246 0 min 0,000 mm 0,0 UV-I 0 W/m 16,4 C 16,0 C 27,4 km/h (4 Bft) 97,56 %
19.08.2019 03:42 19,7 C 23,3 C 19,4 C 82 % 1010,4 hPa 0,0 l/m 15,9 km/h (3 Bft) SW 225 0 min 0,000 mm 0,0 UV-I 0 W/m 16,5 C 16,7 C 22,5 km/h (4 Bft) 98,11 %
19.08.2019 03:44 19,8 C 23,3 C 19,4 C 81 % 1010,4 hPa 0,0 l/m 17,6 km/h (3 Bft) W-SW 241 0 min 0,000 mm 0,0 UV-I 0 W/m 16,4 C 16,4 C 24,1 km/h (4 Bft) 97,37 %
19.08.2019 03:46 19,8 C 23,3 C 19,4 C 81 % 1010,5 hPa 0,0 l/m 16,5 km/h (3 Bft) W 263 0 min 0,000 mm 0,0 UV-I 0 W/m 16,4 C 16,7 C 24,1 km/h (4 Bft) 100,00 %
19.08.2019 03:48 19,9 C 23,3 C 19,4 C 80 % 1010,5 hPa 0,0 l/m 17,5 km/h (3 Bft) W-SW 256 0 min 0,000 mm 0,0 UV-I 0 W/m 16,3 C 16,6 C 25,7 km/h (4 Bft) 97,87 %
19.08.2019 03:50 19,9 C 23,3 C 19,4 C 80 % 1010,6 hPa 0,0 l/m 15,9 km/h (3 Bft) SW 234 0 min 0,000 mm 0,0 UV-I 0 W/m 16,3 C 16,9 C 25,7 km/h (4 Bft) 100,00 %
19.08.2019 03:52 20,0 C 23,3 C 19,4 C 80 % 1010,7 hPa 0,0 l/m 13,1 km/h (3 Bft) W-SW 246 0 min 0,000 mm 0,0 UV-I 0 W/m 16,4 C 17,7 C 22,5 km/h (4 Bft) 100,00 %
19.08.2019 03:54 20,1 C 23,3 C 20,0 C 79 % 1010,7 hPa 0,0 l/m 15,3 km/h (3 Bft) S-SW 207 0 min 0,000 mm 0,0 UV-I 0 W/m 16,3 C 17,3 C 22,5 km/h (4 Bft) 100,00 %
19.08.2019 03:56 20,2 C 23,3 C 20,0 C 79 % 1010,9 hPa 0,0 l/m 17,5 km/h (3 Bft) SW 224 0 min 0,000 mm 0,0 UV-I 0 W/m 16,4 C 16,9 C 25,7 km/h (4 Bft) 100,00 %
19.08.2019 03:58 20,3 C 23,3 C 20,0 C 79 % 1010,9 hPa 0,0 l/m 19,4 km/h (3 Bft) W-SW 248 0 min 0,000 mm 0,0 UV-I 0 W/m 16,5 C 16,7 C 27,4 km/h (4 Bft) 100,00 %
19.08.2019 04:00 20,3 C 23,3 C 20,0 C 78 % 1011,1 hPa 0,0 l/m 17,0 km/h (3 Bft) SW 234 0 min 0,026 mm 0,0 UV-I 0 W/m 16,3 C 17,2 C 27,4 km/h (4 Bft) 100,00 %
19.08.2019 04:02 20,4 C 23,3 C 20,0 C 78 % 1011,2 hPa 0,0 l/m 20,7 km/h (4 Bft) W-SW 256 0 min 0,000 mm 0,0 UV-I 0 W/m 16,4 C 16,6 C 30,6 km/h (5 Bft) 96,67 %
19.08.2019 04:04 20,6 C 23,3 C 20,0 C 77 % 1011,4 hPa 0,0 l/m 21,8 km/h (4 Bft) SW 232 0 min 0,000 mm 0,0 UV-I 0 W/m 16,4 C 16,7 C 32,2 km/h (5 Bft) 100,00 %
19.08.2019 04:06 20,6 C 23,3 C 20,6 C 77 % 1011,4 hPa 0,0 l/m 22,8 km/h (4 Bft) W-SW 252 0 min 0,000 mm 0,0 UV-I 0 W/m 16,4 C 16,5 C 30,6 km/h (5 Bft) 100,00 %
19.08.2019 04:08 20,8 C 23,3 C 20,6 C 76 % 1011,5 hPa 0,0 l/m 22,1 km/h (4 Bft) SW 232 0 min 0,000 mm 0,0 UV-I 0 W/m 16,4 C 16,9 C 35,4 km/h (5 Bft) 100,00 %
19.08.2019 04:10 20,8 C 23,3 C 20,6 C 76 % 1011,5 hPa 0,0 l/m 17,2 km/h (3 Bft) W 279 0 min 0,000 mm 0,0 UV-I 0 W/m 16,4 C 17,8 C 29,0 km/h (5 Bft) 100,00 %
19.08.2019 04:12 20,9 C 23,3 C 20,6 C 75 % 1011,7 hPa 0,0 l/m 23,9 km/h (4 Bft) W 273 0 min 0,000 mm 0,0 UV-I 0 W/m 16,3 C 16,8 C 33,8 km/h (5 Bft) 98,21 %
19.08.2019 04:14 21,0 C 23,3 C 20,6 C 75 % 1011,7 hPa 0,0 l/m 20,4 km/h (4 Bft) W-SW 253 0 min 0,000 mm 0,0 UV-I 0 W/m 16,4 C 17,4 C 30,6 km/h (5 Bft) 100,00 %
19.08.2019 04:16 21,1 C 23,3 C 20,6 C 74 % 1011,8 hPa 0,0 l/m 21,7 km/h (4 Bft) W-SW 248 0 min 0,000 mm 0,0 UV-I 0 W/m 16,3 C 17,4 C 33,8 km/h (5 Bft) 100,00 %
19.08.2019 04:18 21,2 C 23,3 C 21,1 C 73 % 1011,8 hPa 0,0 l/m 21,8 km/h (4 Bft) W-SW 250 0 min 0,000 mm 0,0 UV-I 0 W/m 16,2 C 17,5 C 30,6 km/h (5 Bft) 97,87 %
19.08.2019 04:20 21,3 C 23,3 C 21,1 C 72 % 1011,9 hPa 0,0 l/m 23,5 km/h (4 Bft) W 280 0 min 0,000 mm 0,0 UV-I 0 W/m 16,0 C 17,4 C 32,2 km/h (5 Bft) 100,00 %
19.08.2019 04:22 21,4 C 23,3 C 21,1 C 72 % 1012,0 hPa 0,0 l/m 20,4 km/h (4 Bft) SW 236 0 min 0,000 mm 0,0 UV-I 0 W/m 16,1 C 17,9 C 29,0 km/h (5 Bft) 100,00 %
19.08.2019 04:24 21,6 C 23,3 C 21,1 C 71 % 1011,9 hPa 0,0 l/m 22,0 km/h (4 Bft) W 265 0 min 0,000 mm 0,0 UV-I 0 W/m 16,1 C 18,0 C 32,2 km/h (5 Bft) 100,00 %
19.08.2019 04:26 21,6 C 23,3 C 21,1 C 71 % 1012,0 hPa 0,0 l/m 22,0 km/h (4 Bft) W-SW 242 0 min 0,000 mm 0,0 UV-I 0 W/m 16,1 C 18,0 C 32,2 km/h (5 Bft) 100,00 %
19.08.2019 04:28 21,7 C 23,3 C 21,1 C 70 % 1012,1 hPa 0,0 l/m 17,9 km/h (3 Bft) W 273 0 min 0,000 mm 0,0 UV-I 0 W/m 16,0 C 18,8 C 25,7 km/h (4 Bft) 97,73 %
19.08.2019 04:30 21,7 C 23,3 C 21,1 C 70 % 1012,3 hPa 0,0 l/m 24,2 km/h (4 Bft) W 271 0 min 0,000 mm 0,0 UV-I 0 W/m 16,0 C 17,8 C 43,5 km/h (6 Bft) 98,00 %
19.08.2019 04:32 21,8 C 23,3 C 21,1 C 70 % 1012,4 hPa 0,0 l/m 24,4 km/h (4 Bft) W-SW 255 0 min 0,000 mm 0,0 UV-I 0 W/m 16,1 C 17,9 C 33,8 km/h (5 Bft) 98,00 %
19.08.2019 04:34 21,8 C 23,3 C 21,1 C 69 % 1012,4 hPa 0,0 l/m 22,5 km/h (4 Bft) W 269 0 min 0,000 mm 0,0 UV-I 0 W/m 15,9 C 18,2 C 35,4 km/h (5 Bft) 97,37 %
19.08.2019 04:36 21,8 C 23,3 C 21,1 C 69 % 1012,5 hPa 0,0 l/m 19,4 km/h (3 Bft) W 274 0 min 0,000 mm 0,0 UV-I 0 W/m 15,9 C 18,6 C 29,0 km/h (5 Bft) 98,00 %
19.08.2019 04:38 21,8 C 23,3 C 21,1 C 69 % 1012,6 hPa 0,0 l/m 22,0 km/h (4 Bft) W 262 0 min 0,000 mm 0,0 UV-I 0 W/m 15,9 C 18,2 C 29,0 km/h (5 Bft) 95,74 %
19.08.2019 04:40 21,8 C 23,3 C 21,1 C 69 % 1012,7 hPa 0,0 l/m 22,9 km/h (4 Bft) W 265 0 min 0,000 mm 0,0 UV-I 0 W/m 15,9 C 18,1 C 33,8 km/h (5 Bft) 96,00 %
19.08.2019 04:42 21,8 C 23,3 C 21,1 C 70 % 1012,8 hPa 0,0 l/m 19,3 km/h (3 Bft) W 271 0 min 0,000 mm 0,0 UV-I 0 W/m 16,1 C 18,6 C 30,6 km/h (5 Bft) 90,00 %
19.08.2019 04:44 21,7 C 23,3 C 20,6 C 70 % 1012,8 hPa 0,0 l/m 22,8 km/h (4 Bft) W-SW 244 0 min 0,000 mm 0,0 UV-I 0 W/m 16,0 C 18,0 C 32,2 km/h (5 Bft) 97,87 %
19.08.2019 04:46 21,7 C 23,3 C 20,6 C 70 % 1012,9 hPa 0,0 l/m 23,5 km/h (4 Bft) W-NW 282 0 min 0,000 mm 0,0 UV-I 0 W/m 16,0 C 17,9 C 33,8 km/h (5 Bft) 95,74 %
19.08.2019 04:48 21,7 C 23,3 C 21,1 C 70 % 1013,0 hPa 0,0 l/m 25,5 km/h (4 Bft) W-SW 255 0 min 0,000 mm 0,0 UV-I 0 W/m 16,0 C 17,6 C 35,4 km/h (5 Bft) 94,44 %
19.08.2019 04:50 21,7 C 23,3 C 21,1 C 70 % 1013,1 hPa 0,0 l/m 19,8 km/h (3 Bft) W-NW 298 0 min 0,000 mm 0,0 UV-I 0 W/m 16,0 C 18,4 C 30,6 km/h (5 Bft) 96,23 %
19.08.2019 04:52 21,8 C 23,3 C 21,1 C 69 % 1013,1 hPa 0,0 l/m 23,0 km/h (4 Bft) W 267 0 min 0,000 mm 0,0 UV-I 0 W/m 15,9 C 18,1 C 40,2 km/h (6 Bft) 96,00 %
19.08.2019 04:54 21,9 C 23,3 C 21,1 C 69 % 1013,2 hPa 0,0 l/m 23,9 km/h (4 Bft) W-NW 290 0 min 0,000 mm 0,0 UV-I 0 W/m 15,9 C 18,1 C 46,7 km/h (6 Bft) 95,12 %
19.08.2019 04:56 22,1 C 23,3 C 21,7 C 68 % 1013,2 hPa 0,0 l/m 28,0 km/h (4 Bft) W 281 0 min 0,000 mm 0,0 UV-I 0 W/m 15,9 C 17,9 C 41,8 km/h (6 Bft) 98,00 %
19.08.2019 04:58 22,1 C 23,3 C 21,7 C 68 % 1013,4 hPa 0,0 l/m 19,7 km/h (3 Bft) W 263 0 min 0,000 mm 0,0 UV-I 0 W/m 15,9 C 19,0 C 38,6 km/h (5 Bft) 98,00 %
19.08.2019 05:00 22,2 C 23,3 C 21,7 C 68 % 1013,5 hPa 0,0 l/m 18,7 km/h (3 Bft) W-SW 251 0 min 0,101 mm 0,0 UV-I 0 W/m 16,0 C 19,3 C 29,0 km/h (5 Bft) 97,14 %
19.08.2019 05:02 22,1 C 23,3 C 21,7 C 68 % 1013,5 hPa 0,0 l/m 28,5 km/h (4 Bft) W 259 0 min 0,000 mm 0,0 UV-I 0 W/m 15,9 C 17,8 C 45,1 km/h (6 Bft) 96,23 %
19.08.2019 05:04 22,2 C 23,3 C 21,7 C 68 % 1013,4 hPa 0,0 l/m 30,6 km/h (5 Bft) W 259 0 min 0,000 mm 0,0 UV-I 0 W/m 16,0 C 17,8 C 49,9 km/h (6 Bft) 98,00 %
19.08.2019 05:06 22,1 C 23,3 C 21,7 C 68 % 1013,6 hPa 0,0 l/m 21,0 km/h (4 Bft) W 268 0 min 0,000 mm 0,0 UV-I 0 W/m 15,9 C 18,8 C 29,0 km/h (5 Bft) 100,00 %
19.08.2019 05:08 22,1 C 23,3 C 21,7 C 68 % 1013,6 hPa 0,0 l/m 17,3 km/h (3 Bft) W-NW 288 0 min 0,000 mm 0,0 UV-I 0 W/m 15,9 C 19,4 C 29,0 km/h (5 Bft) 94,12 %
19.08.2019 05:10 22,1 C 23,3 C 21,7 C 68 % 1013,8 hPa 0,0 l/m 15,6 km/h (3 Bft) W-SW 240 0 min 0,000 mm 0,0 UV-I 0 W/m 15,9 C 19,7 C 24,1 km/h (4 Bft) 97,56 %
19.08.2019 05:12 22,0 C 23,3 C 21,1 C 69 % 1013,9 hPa 0,0 l/m 15,4 km/h (3 Bft) W-SW 251 0 min 0,000 mm 0,0 UV-I 0 W/m 16,0 C 19,6 C 27,4 km/h (4 Bft) 94,34 %
19.08.2019 05:14 21,9 C 23,3 C 21,1 C 69 % 1014,0 hPa 0,0 l/m 15,4 km/h (3 Bft) W 259 0 min 0,000 mm 0,0 UV-I 0 W/m 15,9 C 19,5 C 22,5 km/h (4 Bft) 100,00 %
19.08.2019 05:16 21,8 C 23,3 C 21,1 C 69 % 1014,2 hPa 0,0 l/m 22,4 km/h (4 Bft) W 263 0 min 0,000 mm 0,0 UV-I 0 W/m 15,9 C 18,2 C 37,0 km/h (5 Bft) 100,00 %
19.08.2019 05:18 21,8 C 23,3 C 21,1 C 69 % 1014,3 hPa 0,0 l/m 14,7 km/h (3 Bft) W 261 0 min 0,000 mm 0,0 UV-I 0 W/m 15,9 C 19,5 C 29,0 km/h (5 Bft) 98,00 %
19.08.2019 05:20 21,8 C 23,3 C 21,1 C 69 % 1014,3 hPa 0,0 l/m 15,7 km/h (3 Bft) W-SW 256 0 min 0,000 mm 0,0 UV-I 0 W/m 15,9 C 19,3 C 27,4 km/h (4 Bft) 100,00 %
19.08.2019 05:22 21,8 C 23,3 C 21,1 C 69 % 1014,5 hPa 0,0 l/m 14,8 km/h (3 Bft) W 267 0 min 0,000 mm 0,0 UV-I 0 W/m 15,9 C 19,5 C 25,7 km/h (4 Bft) 100,00 %
19.08.2019 05:24 21,7 C 23,3 C 21,1 C 70 % 1014,4 hPa 0,0 l/m 18,9 km/h (3 Bft) W-SW 241 0 min 0,000 mm 0,0 UV-I 0 W/m 16,0 C 18,6 C 30,6 km/h (5 Bft) 97,87 %
19.08.2019 05:26 21,7 C 23,3 C 21,1 C 69 % 1014,6 hPa 0,0 l/m 18,0 km/h (3 Bft) W 266 0 min 0,000 mm 0,0 UV-I 0 W/m 15,8 C 18,7 C 29,0 km/h (5 Bft) 100,00 %
19.08.2019 05:28 21,6 C 23,3 C 20,6 C 69 % 1014,5 hPa 0,0 l/m 15,5 km/h (3 Bft) W-NW 302 0 min 0,000 mm 0,0 UV-I 0 W/m 15,7 C 19,1 C 25,7 km/h (4 Bft) 100,00 %
19.08.2019 05:30 21,6 C 23,3 C 20,6 C 69 % 1014,6 hPa 0,0 l/m 16,2 km/h (3 Bft) W 265 0 min 0,000 mm 0,0 UV-I 0 W/m 15,7 C 18,9 C 25,7 km/h (4 Bft) 97,87 %
19.08.2019 05:32 21,5 C 23,3 C 20,6 C 69 % 1014,6 hPa 0,0 l/m 16,6 km/h (3 Bft) W 277 0 min 0,000 mm 0,0 UV-I 0 W/m 15,6 C 18,7 C 29,0 km/h (5 Bft) 100,00 %
19.08.2019 05:34 21,5 C 23,3 C 20,6 C 69 % 1014,6 hPa 0,0 l/m 14,8 km/h (3 Bft) W-SW 250 0 min 0,000 mm 0,0 UV-I 0 W/m 15,6 C 19,1 C 20,9 km/h (4 Bft) 100,00 %
19.08.2019 05:36 21,4 C 23,3 C 21,1 C 69 % 1014,7 hPa 0,0 l/m 20,0 km/h (4 Bft) W-SW 248 0 min 0,000 mm 0,0 UV-I 0 W/m 15,5 C 18,0 C 33,8 km/h (5 Bft) 100,00 %
19.08.2019 05:38 21,4 C 23,3 C 21,1 C 69 % 1014,8 hPa 0,0 l/m 22,1 km/h (4 Bft) W 263 0 min 0,000 mm 0,0 UV-I 0 W/m 15,5 C 17,7 C 40,2 km/h (6 Bft) 100,00 %
19.08.2019 05:40 21,4 C 23,3 C 21,1 C 68 % 1014,8 hPa 0,0 l/m 20,3 km/h (4 Bft) W 275 0 min 0,000 mm 0,0 UV-I 0 W/m 15,2 C 18,0 C 38,6 km/h (5 Bft) 100,00 %
19.08.2019 05:42 21,4 C 23,3 C 21,1 C 68 % 1014,9 hPa 0,0 l/m 18,1 km/h (3 Bft) SW 225 0 min 0,000 mm 0,0 UV-I 0 W/m 15,2 C 18,3 C 27,4 km/h (4 Bft) 100,00 %
19.08.2019 05:44 21,3 C 23,3 C 21,1 C 68 % 1015,0 hPa 0,0 l/m 16,6 km/h (3 Bft) W-SW 253 0 min 0,000 mm 0,0 UV-I 0 W/m 15,1 C 18,5 C 29,0 km/h (5 Bft) 98,00 %
19.08.2019 05:46 21,3 C 23,3 C 21,1 C 69 % 1015,0 hPa 0,0 l/m 17,1 km/h (3 Bft) W 271 0 min 0,000 mm 0,0 UV-I 0 W/m 15,4 C 18,4 C 30,6 km/h (5 Bft) 100,00 %
19.08.2019 05:48 21,3 C 23,3 C 21,1 C 68 % 1015,0 hPa 0,0 l/m 17,6 km/h (3 Bft) W 266 0 min 0,000 mm 0,0 UV-I 0 W/m 15,1 C 18,3 C 27,4 km/h (4 Bft) 100,00 %
19.08.2019 05:50 21,3 C 23,3 C 20,6 C 69 % 1015,1 hPa 0,0 l/m 16,1 km/h (3 Bft) W 269 0 min 0,000 mm 0,0 UV-I 0 W/m 15,4 C 18,6 C 22,5 km/h (4 Bft) 100,00 %
19.08.2019 05:52 21,2 C 23,3 C 20,6 C 69 % 1015,0 hPa 0,0 l/m 21,4 km/h (4 Bft) W 268 0 min 0,000 mm 0,0 UV-I 0 W/m 15,3 C 17,5 C 38,6 km/h (5 Bft) 100,00 %
19.08.2019 05:54 21,2 C 23,3 C 20,6 C 69 % 1015,0 hPa 0,0 l/m 14,4 km/h (3 Bft) W-SW 252 0 min 0,000 mm 0,0 UV-I 0 W/m 15,3 C 18,8 C 24,1 km/h (4 Bft) 97,92 %
19.08.2019 05:56 21,2 C 23,3 C 20,6 C 69 % 1015,0 hPa 0,0 l/m 15,9 km/h (3 Bft) W-SW 252 0 min 0,000 mm 0,0 UV-I 0 W/m 15,3 C 18,5 C 29,0 km/h (5 Bft) 100,00 %
19.08.2019 05:58 21,2 C 23,3 C 20,6 C 69 % 1015,1 hPa 0,0 l/m 12,1 km/h (2 Bft) W 263 0 min 0,000 mm 0,0 UV-I 4 W/m 15,3 C 19,4 C 19,3 km/h (3 Bft) 100,00 %
19.08.2019 06:00 21,1 C 23,3 C 20,6 C 69 % 1015,0 hPa 0,0 l/m 12,8 km/h (3 Bft) W-NW 290 0 min 0,076 mm 0,0 UV-I 5 W/m 15,2 C 19,1 C 22,5 km/h (4 Bft) 96,15 %
19.08.2019 06:02 21,1 C 23,3 C 20,6 C 69 % 1015,0 hPa 0,0 l/m 18,2 km/h (3 Bft) W 273 0 min 0,000 mm 0,0 UV-I 5 W/m 15,2 C 17,9 C 27,4 km/h (4 Bft) 97,62 %
19.08.2019 06:04 21,1 C 23,3 C 20,6 C 69 % 1014,9 hPa 0,0 l/m 14,9 km/h (3 Bft) W-SW 242 0 min 0,000 mm 0,0 UV-I 5 W/m 15,2 C 18,6 C 24,1 km/h (4 Bft) 95,74 %
19.08.2019 06:06 21,1 C 23,3 C 20,6 C 68 % 1014,9 hPa 0,0 l/m 13,5 km/h (3 Bft) W-NW 285 0 min 0,000 mm 0,0 UV-I 5 W/m 15,0 C 18,9 C 27,4 km/h (4 Bft) 96,00 %
19.08.2019 06:08 21,1 C 23,3 C 20,6 C 69 % 1014,9 hPa 0,0 l/m 14,9 km/h (3 Bft) W-SW 249 0 min 0,000 mm 0,0 UV-I 5 W/m 15,2 C 18,6 C 22,5 km/h (4 Bft) 100,00 %
19.08.2019 06:10 21,1 C 23,3 C 20,6 C 69 % 1015,0 hPa 0,0 l/m 12,6 km/h (3 Bft) W-SW 250 0 min 0,000 mm 0,0 UV-I 7 W/m 15,2 C 19,1 C 19,3 km/h (3 Bft) 94,92 %
19.08.2019 06:12 21,1 C 23,3 C 20,6 C 68 % 1015,1 hPa 0,0 l/m 18,6 km/h (3 Bft) W-SW 250 0 min 0,000 mm 0,0 UV-I 7 W/m 15,0 C 17,9 C 32,2 km/h (5 Bft) 97,56 %
19.08.2019 06:14 21,1 C 23,3 C 20,6 C 68 % 1015,1 hPa 0,0 l/m 18,9 km/h (3 Bft) W 264 0 min 0,000 mm 0,0 UV-I 5 W/m 15,0 C 17,8 C 33,8 km/h (5 Bft) 96,23 %
19.08.2019 06:16 21,0 C 23,3 C 20,6 C 68 % 1015,1 hPa 0,0 l/m 14,2 km/h (3 Bft) W 267 0 min 0,000 mm 0,0 UV-I 5 W/m 14,9 C 18,6 C 24,1 km/h (4 Bft) 97,56 %
19.08.2019 06:18 21,0 C 23,3 C 20,6 C 68 % 1015,1 hPa 0,0 l/m 12,4 km/h (3 Bft) W-SW 251 0 min 0,000 mm 0,0 UV-I 5 W/m 14,9 C 19,1 C 19,3 km/h (3 Bft) 98,00 %
19.08.2019 06:20 20,9 C 23,3 C 20,6 C 68 % 1015,1 hPa 0,0 l/m 14,7 km/h (3 Bft) W-SW 254 0 min 0,000 mm 0,0 UV-I 6 W/m 14,8 C 18,4 C 24,1 km/h (4 Bft) 97,37 %
19.08.2019 06:22 20,9 C 23,3 C 20,6 C 67 % 1015,1 hPa 0,0 l/m 17,9 km/h (3 Bft) W 265 0 min 0,000 mm 0,0 UV-I 7 W/m 14,5 C 17,7 C 27,4 km/h (4 Bft) 94,74 %
19.08.2019 06:24 20,9 C 23,3 C 20,6 C 67 % 1015,1 hPa 0,0 l/m 11,3 km/h (2 Bft) W-SW 251 0 min 0,000 mm 0,0 UV-I 8 W/m 14,5 C 19,3 C 20,9 km/h (4 Bft) 96,92 %
19.08.2019 06:26 20,8 C 23,3 C 20,6 C 67 % 1015,1 hPa 0,0 l/m 13,8 km/h (3 Bft) W 259 0 min 0,000 mm 0,0 UV-I 10 W/m 14,4 C 18,5 C 22,5 km/h (4 Bft) 100,00 %
19.08.2019 06:28 20,8 C 23,3 C 20,6 C 66 % 1015,1 hPa 0,0 l/m 15,2 km/h (3 Bft) W-NW 284 0 min 0,000 mm 0,0 UV-I 11 W/m 14,2 C 18,2 C 20,9 km/h (4 Bft) 100,00 %
19.08.2019 06:30 20,8 C 23,3 C 20,6 C 66 % 1015,1 hPa 0,0 l/m 12,7 km/h (3 Bft) NW 311 0 min 0,000 mm 0,0 UV-I 12 W/m 14,2 C 18,8 C 24,1 km/h (4 Bft) 97,37 %
19.08.2019 06:32 20,8 C 23,3 C 20,6 C 66 % 1015,2 hPa 0,0 l/m 11,3 km/h (2 Bft) W-NW 289 0 min 0,000 mm 0,0 UV-I 12 W/m 14,2 C 19,1 C 17,7 km/h (3 Bft) 100,00 %
19.08.2019 06:34 20,7 C 23,3 C 20,6 C 66 % 1015,2 hPa 0,0 l/m 17,3 km/h (3 Bft) W-NW 286 0 min 0,000 mm 0,0 UV-I 14 W/m 14,1 C 17,6 C 25,7 km/h (4 Bft) 100,00 %
19.08.2019 06:36 20,7 C 23,3 C 20,6 C 66 % 1015,3 hPa 0,0 l/m 15,7 km/h (3 Bft) W-SW 252 0 min 0,000 mm 0,0 UV-I 14 W/m 14,1 C 17,9 C 25,7 km/h (4 Bft) 100,00 %
19.08.2019 06:38 20,7 C 23,3 C 20,6 C 66 % 1015,3 hPa 0,0 l/m 12,7 km/h (3 Bft) W 275 0 min 0,000 mm 0,0 UV-I 14 W/m 14,1 C 18,7 C 19,3 km/h (3 Bft) 97,62 %
19.08.2019 06:40 20,7 C 23,3 C 20,6 C 66 % 1015,3 hPa 0,0 l/m 14,1 km/h (3 Bft) W-SW 249 0 min 0,000 mm 0,0 UV-I 14 W/m 14,1 C 18,3 C 24,1 km/h (4 Bft) 98,00 %
19.08.2019 06:42 20,7 C 23,3 C 20,6 C 66 % 1015,3 hPa 0,0 l/m 9,7 km/h (2 Bft) W 266 0 min 0,000 mm 0,0 UV-I 16 W/m 14,1 C 19,5 C 16,1 km/h (3 Bft) 95,12 %
19.08.2019 06:44 20,7 C 23,3 C 20,0 C 67 % 1015,3 hPa 0,0 l/m 9,8 km/h (2 Bft) W 266 0 min 0,000 mm 0,0 UV-I 16 W/m 14,3 C 19,5 C 12,9 km/h (3 Bft) 94,29 %
19.08.2019 06:46 20,6 C 23,3 C 20,6 C 67 % 1015,4 hPa 0,0 l/m 14,2 km/h (3 Bft) W-SW 254 0 min 0,000 mm 0,0 UV-I 16 W/m 14,3 C 18,2 C 19,3 km/h (3 Bft) 96,43 %
19.08.2019 06:48 20,6 C 23,3 C 20,6 C 67 % 1015,3 hPa 0,0 l/m 10,8 km/h (2 Bft) SW 236 0 min 0,000 mm 0,0 UV-I 16 W/m 14,3 C 19,1 C 16,1 km/h (3 Bft) 94,00 %
19.08.2019 06:50 20,6 C 23,3 C 20,0 C 68 % 1015,4 hPa 0,0 l/m 12,1 km/h (2 Bft) W-SW 248 0 min 0,000 mm 0,0 UV-I 17 W/m 14,5 C 18,7 C 16,1 km/h (3 Bft) 94,00 %
19.08.2019 06:52 20,6 C 23,3 C 20,0 C 68 % 1015,3 hPa 0,0 l/m 11,7 km/h (2 Bft) W-SW 256 0 min 0,000 mm 0,0 UV-I 18 W/m 14,5 C 18,8 C 19,3 km/h (3 Bft) 95,74 %
19.08.2019 06:54 20,5 C 23,3 C 20,0 C 68 % 1015,3 hPa 0,0 l/m 15,9 km/h (3 Bft) W 281 0 min 0,000 mm 0,0 UV-I 19 W/m 14,4 C 17,7 C 19,3 km/h (3 Bft) 95,12 %
19.08.2019 06:56 20,5 C 23,3 C 20,0 C 68 % 1015,3 hPa 0,0 l/m 13,9 km/h (3 Bft) W 265 0 min 0,000 mm 0,0 UV-I 20 W/m 14,4 C 18,1 C 20,9 km/h (4 Bft) 98,00 %
19.08.2019 06:58 20,5 C 23,3 C 20,0 C 68 % 1015,3 hPa 0,0 l/m 13,3 km/h (3 Bft) W 274 0 min 0,000 mm 0,0 UV-I 21 W/m 14,4 C 18,3 C 19,3 km/h (3 Bft) 95,74 %
19.08.2019 07:00 20,4 C 23,3 C 20,0 C 68 % 1015,4 hPa 0,0 l/m 12,1 km/h (2 Bft) W 260 0 min 0,077 mm 0,0 UV-I 23 W/m 14,3 C 18,5 C 17,7 km/h (3 Bft) 94,00 %
19.08.2019 07:02 20,4 C 23,3 C 20,0 C 69 % 1015,4 hPa 0,0 l/m 9,9 km/h (2 Bft) W-SW 252 0 min 0,000 mm 0,0 UV-I 25 W/m 14,5 C 19,1 C 16,1 km/h (3 Bft) 93,62 %
19.08.2019 07:04 20,4 C 23,3 C 20,0 C 69 % 1015,3 hPa 0,0 l/m 8,9 km/h (2 Bft) W-SW 252 0 min 0,000 mm 0,0 UV-I 29 W/m 14,5 C 19,4 C 12,9 km/h (3 Bft) 96,00 %
19.08.2019 07:06 20,4 C 23,3 C 20,6 C 69 % 1015,3 hPa 0,0 l/m 6,6 km/h (2 Bft) W-SW 258 0 min 0,000 mm 0,0 UV-I 32 W/m 14,5 C 20,3 C 14,5 km/h (3 Bft) 95,74 %
19.08.2019 07:08 20,4 C 23,3 C 20,6 C 69 % 1015,3 hPa 0,0 l/m 7,0 km/h (2 Bft) W 281 0 min 0,000 mm 0,0 UV-I 33 W/m 14,5 C 20,2 C 12,9 km/h (3 Bft) 95,74 %
19.08.2019 07:10 20,4 C 23,3 C 20,6 C 69 % 1015,3 hPa 0,0 l/m 7,4 km/h (2 Bft) W-SW 238 0 min 0,000 mm 0,0 UV-I 35 W/m 14,5 C 20,0 C 11,3 km/h (2 Bft) 97,22 %
19.08.2019 07:12 20,4 C 23,3 C 20,6 C 70 % 1015,3 hPa 0,0 l/m 5,3 km/h (1 Bft) W-SW 250 0 min 0,000 mm 0,0 UV-I 37 W/m 14,7 C 20,4 C 11,3 km/h (2 Bft) 95,92 %
19.08.2019 07:14 20,4 C 23,3 C 20,6 C 70 % 1015,3 hPa 0,0 l/m 6,7 km/h (2 Bft) W-SW 246 0 min 0,000 mm 0,0 UV-I 38 W/m 14,7 C 20,3 C 9,7 km/h (2 Bft) 96,00 %
19.08.2019 07:16 20,4 C 23,3 C 20,6 C 70 % 1015,3 hPa 0,0 l/m 6,7 km/h (2 Bft) SW 229 0 min 0,000 mm 0,0 UV-I 43 W/m 14,7 C 20,3 C 12,9 km/h (3 Bft) 97,62 %
19.08.2019 07:18 20,3 C 23,3 C 20,6 C 70 % 1015,3 hPa 0,0 l/m 7,5 km/h (2 Bft) SW 227 0 min 0,000 mm 0,0 UV-I 47 W/m 14,6 C 19,9 C 11,3 km/h (2 Bft) 97,37 %
19.08.2019 07:20 20,3 C 23,3 C 20,6 C 71 % 1015,3 hPa 0,0 l/m 8,4 km/h (2 Bft) W-SW 238 0 min 0,000 mm 0,0 UV-I 51 W/m 14,9 C 19,5 C 12,9 km/h (3 Bft) 96,23 %
19.08.2019 07:22 20,3 C 23,3 C 20,6 C 71 % 1015,3 hPa 0,0 l/m 7,6 km/h (2 Bft) S-SW 213 0 min 0,000 mm 0,0 UV-I 58 W/m 14,9 C 19,8 C 12,9 km/h (3 Bft) 96,23 %
19.08.2019 07:24 20,3 C 23,3 C 20,6 C 71 % 1015,3 hPa 0,0 l/m 7,4 km/h (2 Bft) SW 232 0 min 0,000 mm 0,0 UV-I 64 W/m 14,9 C 19,9 C 12,9 km/h (3 Bft) 97,87 %
19.08.2019 07:26 20,3 C 23,3 C 20,6 C 72 % 1015,3 hPa 0,0 l/m 6,3 km/h (2 Bft) W-SW 240 0 min 0,000 mm 0,0 UV-I 69 W/m 15,1 C 20,3 C 9,7 km/h (2 Bft) 98,00 %
19.08.2019 07:28 20,3 C 23,3 C 20,6 C 72 % 1015,4 hPa 0,0 l/m 6,0 km/h (2 Bft) W-SW 241 0 min 0,000 mm 0,0 UV-I 70 W/m 15,1 C 20,3 C 9,7 km/h (2 Bft) 97,56 %
19.08.2019 07:30 20,3 C 23,3 C 20,6 C 72 % 1015,3 hPa 0,0 l/m 7,0 km/h (2 Bft) W-SW 244 0 min 0,000 mm 0,0 UV-I 70 W/m 15,1 C 20,1 C 16,1 km/h (3 Bft) 96,00 %
19.08.2019 07:32 20,3 C 23,3 C 21,1 C 73 % 1015,3 hPa 0,0 l/m 9,1 km/h (2 Bft) SW 217 0 min 0,000 mm 0,0 UV-I 78 W/m 15,3 C 19,3 C 14,5 km/h (3 Bft) 96,23 %
19.08.2019 07:34 20,3 C 23,3 C 21,1 C 73 % 1015,4 hPa 0,0 l/m 6,3 km/h (2 Bft) SW 236 0 min 0,000 mm 0,0 UV-I 94 W/m 15,3 C 20,3 C 9,7 km/h (2 Bft) 95,74 %
19.08.2019 07:36 20,3 C 23,3 C 21,1 C 72 % 1015,4 hPa 0,0 l/m 7,7 km/h (2 Bft) W-SW 244 0 min 0,000 mm 0,0 UV-I 104 W/m 15,1 C 19,8 C 14,5 km/h (3 Bft) 95,45 %
19.08.2019 07:38 20,3 C 23,3 C 21,1 C 73 % 1015,4 hPa 0,0 l/m 8,3 km/h (2 Bft) SW 217 0 min 0,000 mm 0,0 UV-I 103 W/m 15,3 C 19,6 C 12,9 km/h (3 Bft) 95,12 %
19.08.2019 07:40 20,3 C 23,3 C 21,1 C 73 % 1015,4 hPa 0,0 l/m 7,9 km/h (2 Bft) W-SW 254 0 min 0,000 mm 0,0 UV-I 87 W/m 15,3 C 19,7 C 12,9 km/h (3 Bft) 96,00 %
19.08.2019 07:42 20,3 C 23,3 C 21,1 C 73 % 1015,5 hPa 0,0 l/m 12,3 km/h (3 Bft) SW 235 0 min 0,000 mm 0,0 UV-I 67 W/m 15,3 C 18,3 C 16,1 km/h (3 Bft) 95,45 %
19.08.2019 07:44 20,3 C 23,3 C 21,1 C 73 % 1015,5 hPa 0,0 l/m 8,7 km/h (2 Bft) SW 225 0 min 0,000 mm 0,0 UV-I 65 W/m 15,3 C 19,4 C 12,9 km/h (3 Bft) 94,00 %
19.08.2019 07:46 20,2 C 23,3 C 21,1 C 73 % 1015,5 hPa 0,0 l/m 6,3 km/h (2 Bft) W-SW 242 0 min 0,000 mm 0,0 UV-I 67 W/m 15,2 C 20,2 C 9,7 km/h (2 Bft) 96,00 %
19.08.2019 07:48 20,2 C 23,3 C 20,6 C 74 % 1015,6 hPa 0,0 l/m 5,0 km/h (1 Bft) SW 217 0 min 0,000 mm 0,0 UV-I 66 W/m 15,4 C 20,2 C 8,0 km/h (2 Bft) 95,12 %
19.08.2019 07:50 20,2 C 23,3 C 20,6 C 74 % 1015,6 hPa 0,0 l/m 5,1 km/h (1 Bft) S-SW 211 0 min 0,000 mm 0,0 UV-I 61 W/m 15,4 C 20,2 C 8,0 km/h (2 Bft) 96,00 %
19.08.2019 07:52 20,2 C 23,3 C 20,6 C 74 % 1015,6 hPa 0,0 l/m 7,1 km/h (2 Bft) SW 232 0 min 0,000 mm 0,0 UV-I 48 W/m 15,4 C 19,9 C 11,3 km/h (2 Bft) 95,24 %
19.08.2019 07:54 20,1 C 23,3 C 20,6 C 74 % 1015,5 hPa 0,0 l/m 6,6 km/h (2 Bft) SW 229 0 min 0,000 mm 0,0 UV-I 43 W/m 15,3 C 20,0 C 12,9 km/h (3 Bft) 94,55 %
19.08.2019 07:56 20,0 C 23,3 C 20,6 C 74 % 1015,5 hPa 0,0 l/m 6,3 km/h (2 Bft) W-SW 241 0 min 0,000 mm 0,0 UV-I 49 W/m 15,2 C 20,0 C 11,3 km/h (2 Bft) 100,00 %
19.08.2019 07:58 19,9 C 23,3 C 20,6 C 75 % 1015,5 hPa 0,0 l/m 5,7 km/h (1 Bft) W-SW 248 0 min 0,000 mm 0,0 UV-I 48 W/m 15,3 C 19,9 C 14,5 km/h (3 Bft) 100,00 %
19.08.2019 08:00 19,9 C 23,3 C 20,6 C 75 % 1015,6 hPa 0,0 l/m 6,4 km/h (2 Bft) S-SW 212 0 min 0,076 mm 0,0 UV-I 47 W/m 15,3 C 19,9 C 11,3 km/h (2 Bft) 97,56 %
19.08.2019 08:02 19,9 C 23,3 C 20,0 C 75 % 1015,6 hPa 0,0 l/m 5,7 km/h (1 Bft) W-SW 243 0 min 0,000 mm 0,0 UV-I 43 W/m 15,3 C 19,9 C 8,0 km/h (2 Bft) 98,11 %
19.08.2019 08:04 19,9 C 23,3 C 20,0 C 75 % 1015,6 hPa 0,0 l/m 7,9 km/h (2 Bft) SW 230 0 min 0,000 mm 0,0 UV-I 45 W/m 15,3 C 19,3 C 14,5 km/h (3 Bft) 100,00 %
19.08.2019 08:06 19,9 C 23,3 C 20,0 C 75 % 1015,6 hPa 0,0 l/m 8,2 km/h (2 Bft) W-SW 246 0 min 0,000 mm 0,0 UV-I 46 W/m 15,3 C 19,2 C 14,5 km/h (3 Bft) 100,00 %
19.08.2019 08:08 19,8 C 23,3 C 20,0 C 75 % 1015,6 hPa 0,0 l/m 6,1 km/h (2 Bft) W-SW 252 0 min 0,000 mm 0,0 UV-I 49 W/m 15,2 C 19,8 C 8,0 km/h (2 Bft) 96,61 %
19.08.2019 08:10 19,8 C 23,3 C 20,6 C 75 % 1015,6 hPa 0,0 l/m 4,0 km/h (1 Bft) W-SW 253 0 min 0,000 mm 0,0 UV-I 53 W/m 15,2 C 19,8 C 6,4 km/h (2 Bft) 100,00 %
19.08.2019 08:12 19,8 C 23,3 C 20,6 C 75 % 1015,6 hPa 0,0 l/m 5,9 km/h (2 Bft) W-SW 253 0 min 0,000 mm 0,0 UV-I 57 W/m 15,2 C 19,8 C 8,0 km/h (2 Bft) 100,00 %
19.08.2019 08:14 19,9 C 23,3 C 20,6 C 76 % 1015,6 hPa 0,0 l/m 5,1 km/h (1 Bft) W 261 0 min 0,000 mm 0,0 UV-I 54 W/m 15,5 C 19,9 C 9,7 km/h (2 Bft) 100,00 %
19.08.2019 08:16 19,9 C 23,3 C 20,6 C 75 % 1015,7 hPa 0,0 l/m 4,2 km/h (1 Bft) W-SW 254 0 min 0,000 mm 0,0 UV-I 66 W/m 15,3 C 19,9 C 6,4 km/h (2 Bft) 100,00 %
19.08.2019 08:18 19,8 C 23,3 C 20,6 C 75 % 1015,7 hPa 0,0 l/m 7,3 km/h (2 Bft) W-SW 250 0 min 0,000 mm 0,0 UV-I 80 W/m 15,2 C 19,4 C 12,9 km/h (3 Bft) 100,00 %
19.08.2019 08:20 19,9 C 23,3 C 20,6 C 75 % 1015,7 hPa 0,0 l/m 4,9 km/h (1 Bft) SW 230 0 min 0,000 mm 0,0 UV-I 82 W/m 15,3 C 19,9 C 9,7 km/h (2 Bft) 100,00 %
19.08.2019 08:22 19,9 C 23,3 C 20,6 C 75 % 1015,7 hPa 0,0 l/m 7,2 km/h (2 Bft) SW 225 0 min 0,000 mm 0,0 UV-I 83 W/m 15,3 C 19,6 C 11,3 km/h (2 Bft) 100,00 %
19.08.2019 08:24 19,9 C 23,3 C 20,6 C 75 % 1015,7 hPa 0,0 l/m 5,6 km/h (1 Bft) W 270 0 min 0,000 mm 0,0 UV-I 92 W/m 15,3 C 19,9 C 11,3 km/h (2 Bft) 97,37 %
19.08.2019 08:26 19,9 C 23,3 C 21,1 C 76 % 1015,7 hPa 0,0 l/m 4,1 km/h (1 Bft) W-SW 244 0 min 0,000 mm 0,0 UV-I 102 W/m 15,5 C 19,9 C 9,7 km/h (2 Bft) 100,00 %
19.08.2019 08:28 20,0 C 23,3 C 21,1 C 76 % 1015,7 hPa 0,0 l/m 6,1 km/h (2 Bft) W 275 0 min 0,000 mm 0,0 UV-I 108 W/m 15,6 C 20,0 C 11,3 km/h (2 Bft) 100,00 %
19.08.2019 08:30 20,1 C 23,3 C 21,1 C 75 % 1015,7 hPa 0,0 l/m 5,7 km/h (1 Bft) W 259 0 min 0,000 mm 0,0 UV-I 101 W/m 15,5 C 20,1 C 11,3 km/h (2 Bft) 100,00 %
19.08.2019 08:32 20,1 C 23,3 C 21,1 C 75 % 1015,7 hPa 0,0 l/m 4,2 km/h (1 Bft) W 267 0 min 0,000 mm 0,0 UV-I 93 W/m 15,5 C 20,1 C 6,4 km/h (2 Bft) 100,00 %
19.08.2019 08:34 20,1 C 23,3 C 21,1 C 75 % 1015,7 hPa 0,0 l/m 5,7 km/h (1 Bft) W 275 0 min 0,000 mm 0,0 UV-I 97 W/m 15,5 C 20,1 C 11,3 km/h (2 Bft) 98,00 %
19.08.2019 08:36 20,1 C 23,3 C 21,1 C 75 % 1015,8 hPa 0,0 l/m 4,9 km/h (1 Bft) W 262 0 min 0,000 mm 0,0 UV-I 105 W/m 15,5 C 20,1 C 9,7 km/h (2 Bft) 98,00 %
19.08.2019 08:38 20,1 C 23,3 C 21,1 C 75 % 1015,7 hPa 0,0 l/m 5,6 km/h (1 Bft) W-SW 257 0 min 0,000 mm 0,0 UV-I 95 W/m 15,5 C 20,1 C 8,0 km/h (2 Bft) 97,14 %
19.08.2019 08:40 20,1 C 23,3 C 21,1 C 76 % 1015,7 hPa 0,0 l/m 4,9 km/h (1 Bft) W-SW 256 0 min 0,000 mm 0,0 UV-I 77 W/m 15,7 C 20,1 C 8,0 km/h (2 Bft) 98,11 %
19.08.2019 08:42 20,0 C 23,3 C 21,1 C 75 % 1015,7 hPa 0,0 l/m 7,0 km/h (2 Bft) W 273 0 min 0,000 mm 0,0 UV-I 67 W/m 15,4 C 19,8 C 12,9 km/h (3 Bft) 98,11 %
19.08.2019 08:44 20,0 C 23,3 C 20,6 C 75 % 1015,7 hPa 0,0 l/m 4,0 km/h (1 Bft) SW 229 0 min 0,000 mm 0,0 UV-I 63 W/m 15,4 C 20,0 C 6,4 km/h (2 Bft) 97,56 %
19.08.2019 08:46 20,0 C 23,3 C 20,6 C 76 % 1015,7 hPa 0,0 l/m 5,1 km/h (1 Bft) W 279 0 min 0,000 mm 0,0 UV-I 61 W/m 15,6 C 20,0 C 11,3 km/h (2 Bft) 97,87 %
19.08.2019 08:48 19,9 C 22,8 C 20,6 C 75 % 1015,7 hPa 0,0 l/m 3,3 km/h (1 Bft) W 270 0 min 0,000 mm 0,0 UV-I 56 W/m 15,3 C 19,9 C 6,4 km/h (2 Bft) 95,74 %
19.08.2019 08:50 19,9 C 22,8 C 20,6 C 76 % 1015,7 hPa 0,0 l/m 5,4 km/h (1 Bft) W 281 0 min 0,000 mm 0,0 UV-I 54 W/m 15,5 C 19,9 C 9,7 km/h (2 Bft) 97,87 %
19.08.2019 08:52 19,9 C 22,8 C 20,6 C 76 % 1015,7 hPa 0,0 l/m 3,4 km/h (1 Bft) W 280 0 min 0,000 mm 0,0 UV-I 54 W/m 15,5 C 19,9 C 6,4 km/h (2 Bft) 97,87 %
19.08.2019 08:54 19,9 C 22,8 C 20,6 C 77 % 1015,7 hPa 0,0 l/m 3,0 km/h (1 Bft) W 279 0 min 0,000 mm 0,0 UV-I 53 W/m 15,7 C 19,9 C 4,8 km/h (1 Bft) 93,62 %
19.08.2019 08:56 19,8 C 22,8 C 20,6 C 77 % 1015,8 hPa 0,0 l/m 2,7 km/h (1 Bft) W 280 0 min 0,000 mm 0,0 UV-I 55 W/m 15,6 C 19,8 C 4,8 km/h (1 Bft) 98,00 %
19.08.2019 08:58 19,8 C 22,8 C 20,6 C 77 % 1015,8 hPa 0,0 l/m 2,8 km/h (1 Bft) W-NW 284 0 min 0,000 mm 0,0 UV-I 63 W/m 15,6 C 19,8 C 4,8 km/h (1 Bft) 98,00 %
19.08.2019 09:00 19,8 C 22,8 C 20,6 C 77 % 1015,7 hPa 0,0 l/m 2,8 km/h (1 Bft) W-NW 282 0 min 0,051 mm 0,0 UV-I 70 W/m 15,6 C 19,8 C 4,8 km/h (1 Bft) 97,87 %
19.08.2019 09:02 19,8 C 22,8 C 20,6 C 77 % 1015,7 hPa 0,0 l/m 3,6 km/h (1 Bft) W-NW 298 0 min 0,000 mm 0,0 UV-I 72 W/m 15,6 C 19,8 C 4,8 km/h (1 Bft) 93,62 %
19.08.2019 09:04 19,8 C 22,8 C 20,6 C 77 % 1015,7 hPa 0,0 l/m 2,4 km/h (1 Bft) W-NW 298 0 min 0,000 mm 0,0 UV-I 69 W/m 15,6 C 19,8 C 4,8 km/h (1 Bft) 97,87 %
19.08.2019 09:06 19,8 C 22,8 C 20,6 C 77 % 1015,7 hPa 0,0 l/m 2,1 km/h (1 Bft) W-NW 297 0 min 0,000 mm 0,0 UV-I 67 W/m 15,6 C 19,8 C 4,8 km/h (1 Bft) 97,22 %
19.08.2019 09:08 19,8 C 22,8 C 20,6 C 77 % 1015,7 hPa 0,0 l/m 1,4 km/h (1 Bft) W-NW 297 0 min 0,000 mm 0,0 UV-I 67 W/m 15,6 C 19,8 C 3,2 km/h (1 Bft) 98,00 %
19.08.2019 09:10 19,8 C 22,8 C 20,6 C 77 % 1015,7 hPa 0,0 l/m 2,0 km/h (1 Bft) W-NW 296 0 min 0,000 mm 0,0 UV-I 66 W/m 15,6 C 19,8 C 3,2 km/h (1 Bft) 97,73 %
19.08.2019 09:12 19,8 C 22,8 C 20,6 C 77 % 1015,8 hPa 0,0 l/m 1,1 km/h (1 Bft) W-NW 296 0 min 0,000 mm 0,0 UV-I 74 W/m 15,6 C 19,8 C 1,6 km/h (1 Bft) 98,00 %
19.08.2019 09:14 19,8 C 22,8 C 21,1 C 77 % 1015,8 hPa 0,0 l/m 1,9 km/h (1 Bft) W-NW 296 0 min 0,000 mm 0,5 UV-I 97 W/m 15,6 C 19,8 C 6,4 km/h (2 Bft) 98,11 %
19.08.2019 09:16 19,8 C 22,8 C 21,1 C 77 % 1015,8 hPa 0,0 l/m 2,6 km/h (1 Bft) W-NW 296 0 min 0,000 mm 0,5 UV-I 113 W/m 15,6 C 19,8 C 4,8 km/h (1 Bft) 97,14 %
19.08.2019 09:18 19,8 C 22,8 C 21,1 C 77 % 1015,8 hPa 0,0 l/m 1,6 km/h (1 Bft) W-NW 296 0 min 0,000 mm 0,6 UV-I 127 W/m 15,6 C 19,8 C 3,2 km/h (1 Bft) 96,00 %
19.08.2019 09:20 19,9 C 22,8 C 21,7 C 77 % 1015,7 hPa 0,0 l/m 1,1 km/h (1 Bft) W-NW 296 0 min 0,000 mm 0,7 UV-I 149 W/m 15,7 C 19,9 C 3,2 km/h (1 Bft) 97,87 %
19.08.2019 09:22 20,0 C 22,8 C 22,2 C 78 % 1015,7 hPa 0,0 l/m 2,2 km/h (1 Bft) W-NW 296 0 min 0,000 mm 0,9 UV-I 167 W/m 16,0 C 20,0 C 3,2 km/h (1 Bft) 96,23 %
19.08.2019 09:24 20,1 C 22,8 C 22,8 C 77 % 1015,7 hPa 0,0 l/m 2,8 km/h (1 Bft) W-NW 296 0 min 0,000 mm 0,9 UV-I 173 W/m 15,9 C 20,1 C 3,2 km/h (1 Bft) 96,00 %
19.08.2019 09:26 20,2 C 22,8 C 22,8 C 77 % 1015,8 hPa 0,0 l/m 2,2 km/h (1 Bft) W-NW 296 0 min 0,000 mm 1,0 UV-I 191 W/m 16,0 C 20,2 C 4,8 km/h (1 Bft) 97,14 %
19.08.2019 09:28 20,2 C 22,8 C 23,3 C 76 % 1015,7 hPa 0,0 l/m 3,6 km/h (1 Bft) W-NW 294 0 min 0,000 mm 1,1 UV-I 206 W/m 15,8 C 20,2 C 4,8 km/h (1 Bft) 100,00 %
19.08.2019 09:30 20,3 C 22,8 C 23,3 C 76 % 1015,6 hPa 0,0 l/m 2,9 km/h (1 Bft) NW 311 0 min 0,000 mm 1,1 UV-I 209 W/m 15,9 C 20,3 C 6,4 km/h (2 Bft) 100,00 %
19.08.2019 09:32 20,4 C 22,8 C 23,3 C 76 % 1015,7 hPa 0,0 l/m 3,2 km/h (1 Bft) NW 309 0 min 0,000 mm 1,1 UV-I 206 W/m 16,0 C 20,4 C 6,4 km/h (2 Bft) 97,87 %
19.08.2019 09:34 20,4 C 22,8 C 23,3 C 75 % 1015,7 hPa 0,0 l/m 2,4 km/h (1 Bft) W-NW 300 0 min 0,000 mm 1,1 UV-I 195 W/m 15,8 C 20,4 C 4,8 km/h (1 Bft) 100,00 %
19.08.2019 09:36 20,4 C 22,8 C 23,3 C 75 % 1015,7 hPa 0,0 l/m 2,7 km/h (1 Bft) W-NW 301 0 min 0,000 mm 1,1 UV-I 200 W/m 15,8 C 20,4 C 4,8 km/h (1 Bft) 100,00 %
19.08.2019 09:38 20,5 C 22,8 C 23,3 C 75 % 1015,7 hPa 0,0 l/m 2,9 km/h (1 Bft) W 279 0 min 0,000 mm 1,2 UV-I 223 W/m 15,9 C 20,5 C 8,0 km/h (2 Bft) 100,00 %
19.08.2019 09:40 20,6 C 23,3 C 23,9 C 76 % 1015,6 hPa 0,0 l/m 4,6 km/h (1 Bft) W-NW 292 0 min 0,000 mm 1,3 UV-I 240 W/m 16,2 C 20,6 C 6,4 km/h (2 Bft) 97,73 %
19.08.2019 09:42 20,6 C 23,3 C 23,9 C 76 % 1015,6 hPa 0,0 l/m 4,2 km/h (1 Bft) W 277 0 min 0,000 mm 1,3 UV-I 251 W/m 16,2 C 20,6 C 6,4 km/h (2 Bft) 100,00 %
19.08.2019 09:44 20,7 C 23,3 C 23,9 C 76 % 1015,5 hPa 0,0 l/m 3,5 km/h (1 Bft) W 262 0 min 0,000 mm 1,4 UV-I 271 W/m 16,3 C 20,7 C 6,4 km/h (2 Bft) 100,00 %
19.08.2019 09:46 20,8 C 23,3 C 24,4 C 74 % 1015,5 hPa 0,0 l/m 4,8 km/h (1 Bft) W 280 0 min 0,000 mm 1,5 UV-I 287 W/m 16,0 C 20,8 C 9,7 km/h (2 Bft) 100,00 %
19.08.2019 09:48 20,8 C 23,3 C 24,4 C 74 % 1015,5 hPa 0,0 l/m 4,6 km/h (1 Bft) W-SW 243 0 min 0,000 mm 1,6 UV-I 300 W/m 16,0 C 20,8 C 6,4 km/h (2 Bft) 100,00 %
19.08.2019 09:50 20,9 C 23,3 C 25,0 C 74 % 1015,5 hPa 0,0 l/m 5,8 km/h (2 Bft) SW 229 0 min 0,000 mm 1,6 UV-I 314 W/m 16,1 C 20,9 C 9,7 km/h (2 Bft) 100,00 %
19.08.2019 09:52 21,0 C 23,3 C 25,6 C 73 % 1015,5 hPa 0,0 l/m 3,5 km/h (1 Bft) W-SW 250 2 min 0,000 mm 1,7 UV-I 328 W/m 16,0 C 21,0 C 4,8 km/h (1 Bft) 100,00 %
19.08.2019 09:54 21,1 C 23,3 C 25,6 C 75 % 1015,6 hPa 0,0 l/m 3,5 km/h (1 Bft) W-SW 248 0 min 0,000 mm 1,7 UV-I 304 W/m 16,5 C 21,1 C 8,0 km/h (2 Bft) 100,00 %
19.08.2019 09:56 21,2 C 23,3 C 25,6 C 74 % 1015,6 hPa 0,0 l/m 6,4 km/h (2 Bft) W 280 0 min 0,000 mm 1,6 UV-I 284 W/m 16,4 C 21,2 C 11,3 km/h (2 Bft) 100,00 %
19.08.2019 09:58 21,2 C 23,3 C 25,6 C 73 % 1015,6 hPa 0,0 l/m 4,7 km/h (1 Bft) W 269 0 min 0,000 mm 1,6 UV-I 270 W/m 16,2 C 21,2 C 9,7 km/h (2 Bft) 100,00 %
19.08.2019 10:00 21,3 C 23,3 C 25,6 C 72 % 1015,6 hPa 0,0 l/m 2,6 km/h (1 Bft) W-NW 284 0 min 0,127 mm 1,6 UV-I 286 W/m 16,0 C 21,3 C 4,8 km/h (1 Bft) 100,00 %
19.08.2019 10:02 21,3 C 23,3 C 25,6 C 72 % 1015,6 hPa 0,0 l/m 2,7 km/h (1 Bft) W 277 0 min 0,000 mm 1,8 UV-I 325 W/m 16,0 C 21,3 C 6,4 km/h (2 Bft) 100,00 %
19.08.2019 10:04 21,3 C 23,3 C 25,6 C 72 % 1015,6 hPa 0,0 l/m 2,6 km/h (1 Bft) W 276 2 min 0,000 mm 1,8 UV-I 337 W/m 16,0 C 21,3 C 4,8 km/h (1 Bft) 98,00 %
19.08.2019 10:06 21,3 C 23,3 C 25,6 C 71 % 1015,6 hPa 0,0 l/m 4,4 km/h (1 Bft) W-NW 298 0 min 0,000 mm 1,8 UV-I 334 W/m 15,8 C 21,3 C 6,4 km/h (2 Bft) 100,00 %
19.08.2019 10:08 21,3 C 23,3 C 25,6 C 72 % 1015,7 hPa 0,0 l/m 2,3 km/h (1 Bft) W-NW 299 0 min 0,000 mm 1,8 UV-I 329 W/m 16,0 C 21,3 C 4,8 km/h (1 Bft) 100,00 %
19.08.2019 10:10 21,4 C 23,3 C 25,6 C 72 % 1015,6 hPa 0,0 l/m 2,7 km/h (1 Bft) W 261 0 min 0,000 mm 1,7 UV-I 307 W/m 16,1 C 21,4 C 6,4 km/h (2 Bft) 100,00 %
19.08.2019 10:12 21,4 C 23,3 C 25,6 C 71 % 1015,5 hPa 0,0 l/m 3,1 km/h (1 Bft) W-NW 294 0 min 0,000 mm 1,7 UV-I 292 W/m 15,9 C 21,4 C 6,4 km/h (2 Bft) 100,00 %
19.08.2019 10:14 21,5 C 23,3 C 25,6 C 72 % 1015,5 hPa 0,0 l/m 4,1 km/h (1 Bft) W 275 0 min 0,000 mm 1,5 UV-I 266 W/m 16,2 C 21,5 C 6,4 km/h (2 Bft) 100,00 %
19.08.2019 10:16 21,6 C 23,3 C 25,6 C 70 % 1015,5 hPa 0,0 l/m 2,9 km/h (1 Bft) W-SW 257 0 min 0,000 mm 1,4 UV-I 240 W/m 15,9 C 21,6 C 6,4 km/h (2 Bft) 100,00 %
19.08.2019 10:18 21,5 C 23,3 C 25,0 C 70 % 1015,4 hPa 0,0 l/m 1,7 km/h (1 Bft) W-SW 257 0 min 0,000 mm 1,3 UV-I 219 W/m 15,8 C 21,5 C 4,8 km/h (1 Bft) 100,00 %
19.08.2019 10:20 21,5 C 23,3 C 25,0 C 71 % 1015,4 hPa 0,0 l/m 1,5 km/h (1 Bft) W-SW 257 0 min 0,000 mm 1,3 UV-I 213 W/m 16,0 C 21,5 C 3,2 km/h (1 Bft) 100,00 %
19.08.2019 10:22 21,5 C 23,3 C 25,0 C 70 % 1015,4 hPa 0,0 l/m 1,4 km/h (1 Bft) W-SW 257 0 min 0,000 mm 1,4 UV-I 223 W/m 15,8 C 21,5 C 3,2 km/h (1 Bft) 100,00 %
19.08.2019 10:24 21,4 C 23,3 C 25,6 C 70 % 1015,4 hPa 0,0 l/m 1,9 km/h (1 Bft) W-SW 257 0 min 0,000 mm 1,9 UV-I 265 W/m 15,7 C 21,4 C 4,8 km/h (1 Bft) 100,00 %
19.08.2019 10:26 21,5 C 23,3 C 26,1 C 70 % 1015,4 hPa 0,0 l/m 2,7 km/h (1 Bft) W-SW 257 0 min 0,000 mm 1,7 UV-I 273 W/m 15,8 C 21,5 C 4,8 km/h (1 Bft) 100,00 %
19.08.2019 10:28 21,6 C 23,3 C 26,1 C 71 % 1015,4 hPa 0,0 l/m 3,9 km/h (1 Bft) W-SW 256 0 min 0,000 mm 1,8 UV-I 285 W/m 16,1 C 21,6 C 6,4 km/h (2 Bft) 100,00 %
19.08.2019 10:30 21,7 C 23,3 C 26,1 C 71 % 1015,5 hPa 0,0 l/m 4,0 km/h (1 Bft) SW 222 0 min 0,000 mm 1,9 UV-I 292 W/m 16,2 C 21,7 C 6,4 km/h (2 Bft) 97,56 %
19.08.2019 10:32 21,8 C 23,3 C 26,1 C 71 % 1015,5 hPa 0,0 l/m 2,3 km/h (1 Bft) SW 217 0 min 0,000 mm 2,0 UV-I 302 W/m 16,3 C 21,8 C 4,8 km/h (1 Bft) 92,45 %
19.08.2019 10:34 21,7 C 23,3 C 26,1 C 70 % 1015,5 hPa 0,0 l/m 3,1 km/h (1 Bft) SW 219 0 min 0,000 mm 2,0 UV-I 309 W/m 16,0 C 21,7 C 4,8 km/h (1 Bft) 94,00 %
19.08.2019 10:36 21,8 C 23,3 C 26,7 C 70 % 1015,5 hPa 0,0 l/m 2,6 km/h (1 Bft) SW 219 0 min 0,000 mm 2,1 UV-I 330 W/m 16,1 C 21,8 C 4,8 km/h (1 Bft) 94,74 %
19.08.2019 10:38 21,7 C 23,3 C 27,2 C 69 % 1015,6 hPa 0,0 l/m 2,3 km/h (1 Bft) SW 223 0 min 0,000 mm 2,3 UV-I 340 W/m 15,8 C 21,7 C 4,8 km/h (1 Bft) 95,74 %
19.08.2019 10:40 21,9 C 23,3 C 27,2 C 70 % 1015,6 hPa 0,0 l/m 3,6 km/h (1 Bft) W-SW 246 0 min 0,000 mm 2,3 UV-I 369 W/m 16,2 C 21,9 C 6,4 km/h (2 Bft) 94,34 %
19.08.2019 10:42 22,1 C 23,3 C 28,3 C 70 % 1015,7 hPa 0,0 l/m 5,2 km/h (1 Bft) W-SW 243 2 min 0,000 mm 2,6 UV-I 376 W/m 16,4 C 22,1 C 8,0 km/h (2 Bft) 95,74 %
19.08.2019 10:44 22,1 C 23,3 C 28,3 C 69 % 1015,7 hPa 0,0 l/m 5,3 km/h (1 Bft) W-SW 244 2 min 0,000 mm 2,4 UV-I 428 W/m 16,1 C 22,1 C 8,0 km/h (2 Bft) 95,12 %
19.08.2019 10:46 22,2 C 23,3 C 27,8 C 67 % 1015,7 hPa 0,0 l/m 4,7 km/h (1 Bft) W-SW 254 0 min 0,000 mm 2,4 UV-I 360 W/m 15,8 C 22,2 C 9,7 km/h (2 Bft) 94,00 %
19.08.2019 10:48 22,1 C 23,3 C 27,8 C 68 % 1015,6 hPa 0,0 l/m 2,4 km/h (1 Bft) W-SW 256 0 min 0,000 mm 2,6 UV-I 333 W/m 15,9 C 22,1 C 4,8 km/h (1 Bft) 94,34 %
19.08.2019 10:50 22,1 C 23,3 C 27,2 C 68 % 1015,6 hPa 0,0 l/m 6,2 km/h (2 Bft) W-SW 240 0 min 0,000 mm 2,3 UV-I 327 W/m 15,9 C 22,1 C 9,7 km/h (2 Bft) 95,74 %
19.08.2019 10:52 22,2 C 23,3 C 26,7 C 68 % 1015,6 hPa 0,0 l/m 4,1 km/h (1 Bft) W-SW 238 0 min 0,000 mm 2,3 UV-I 271 W/m 16,0 C 22,2 C 8,0 km/h (2 Bft) 94,74 %
19.08.2019 10:54 22,2 C 23,3 C 26,1 C 69 % 1015,6 hPa 0,0 l/m 3,1 km/h (1 Bft) W 273 0 min 0,000 mm 2,4 UV-I 238 W/m 16,2 C 22,2 C 6,4 km/h (2 Bft) 96,00 %
19.08.2019 10:56 22,1 C 23,3 C 26,1 C 68 % 1015,6 hPa 0,0 l/m 2,9 km/h (1 Bft) N 351 0 min 0,000 mm 2,5 UV-I 231 W/m 15,9 C 22,1 C 4,8 km/h (1 Bft) 95,74 %
19.08.2019 10:58 22,2 C 23,3 C 28,9 C 67 % 1015,7 hPa 0,0 l/m 2,8 km/h (1 Bft) N 355 2 min 0,000 mm 3,7 UV-I 492 W/m 15,8 C 22,2 C 4,8 km/h (1 Bft) 95,74 %
19.08.2019 11:00 22,4 C 23,3 C 31,7 C 69 % 1015,7 hPa 0,0 l/m 3,1 km/h (1 Bft) W-NW 291 2 min 0,228 mm 3,9 UV-I 779 W/m 16,4 C 22,4 C 4,8 km/h (1 Bft) 96,00 %
19.08.2019 11:02 22,7 C 23,3 C 32,8 C 67 % 1015,7 hPa 0,0 l/m 3,5 km/h (1 Bft) N-NW 338 2 min 0,000 mm 4,0 UV-I 763 W/m 16,2 C 22,7 C 6,4 km/h (2 Bft) 94,87 %
19.08.2019 11:04 22,8 C 23,3 C 33,9 C 66 % 1015,7 hPa 0,0 l/m 4,1 km/h (1 Bft) N 5 2 min 0,000 mm 4,1 UV-I 764 W/m 16,1 C 22,8 C 8,0 km/h (2 Bft) 93,62 %
19.08.2019 11:06 23,1 C 23,3 C 35,6 C 68 % 1015,7 hPa 0,0 l/m 4,1 km/h (1 Bft) NW 319 2 min 0,000 mm 4,2 UV-I 770 W/m 16,9 C 23,1 C 8,0 km/h (2 Bft) 98,00 %
19.08.2019 11:08 23,5 C 23,3 C 36,7 C 66 % 1015,6 hPa 0,0 l/m 5,7 km/h (1 Bft) N-NW 343 2 min 0,000 mm 4,3 UV-I 785 W/m 16,8 C 23,5 C 8,0 km/h (2 Bft) 97,87 %
19.08.2019 11:10 23,6 C 23,3 C 36,7 C 64 % 1015,6 hPa 0,0 l/m 3,2 km/h (1 Bft) N-NW 347 2 min 0,000 mm 4,3 UV-I 799 W/m 16,4 C 23,6 C 4,8 km/h (1 Bft) 97,87 %
19.08.2019 11:12 23,7 C 23,3 C 37,2 C 65 % 1015,6 hPa 0,0 l/m 2,1 km/h (1 Bft) N-NO 13 2 min 0,000 mm 4,4 UV-I 820 W/m 16,7 C 23,7 C 3,2 km/h (1 Bft) 95,74 %
19.08.2019 11:14 23,8 C 23,3 C 37,8 C 64 % 1015,7 hPa 0,0 l/m 2,4 km/h (1 Bft) W-NW 297 2 min 0,000 mm 4,6 UV-I 851 W/m 16,6 C 23,8 C 4,8 km/h (1 Bft) 98,00 %
19.08.2019 11:16 23,8 C 23,3 C 37,8 C 63 % 1015,7 hPa 0,0 l/m 4,4 km/h (1 Bft) N 9 2 min 0,000 mm 3,6 UV-I 844 W/m 16,3 C 23,8 C 9,7 km/h (2 Bft) 97,14 %
19.08.2019 11:18 24,0 C 23,3 C 38,3 C 64 % 1015,7 hPa 0,0 l/m 4,7 km/h (1 Bft) SW 230 2 min 0,000 mm 3,3 UV-I 955 W/m 16,8 C 24,0 C 8,0 km/h (2 Bft) 96,61 %
19.08.2019 11:20 24,1 C 23,3 C 38,9 C 60 % 1015,8 hPa 0,0 l/m 4,8 km/h (1 Bft) W-SW 245 2 min 0,000 mm 5,1 UV-I 931 W/m 15,8 C 24,1 C 9,7 km/h (2 Bft) 100,00 %
19.08.2019 11:22 24,1 C 23,3 C 39,4 C 59 % 1015,9 hPa 0,0 l/m 8,4 km/h (2 Bft) S-SW 211 2 min 0,000 mm 5,1 UV-I 750 W/m 15,6 C 23,6 C 16,1 km/h (3 Bft) 96,23 %
19.08.2019 11:24 24,3 C 23,3 C 38,3 C 60 % 1015,9 hPa 0,0 l/m 7,0 km/h (2 Bft) W-SW 246 2 min 0,000 mm 3,5 UV-I 974 W/m 16,0 C 24,1 C 14,5 km/h (3 Bft) 98,00 %
19.08.2019 11:26 24,2 C 23,3 C 36,1 C 59 % 1015,9 hPa 0,0 l/m 7,8 km/h (2 Bft) W-NW 290 2 min 0,000 mm 3,0 UV-I 683 W/m 15,7 C 23,8 C 12,9 km/h (3 Bft) 97,87 %
19.08.2019 11:28 24,0 C 23,3 C 33,3 C 61 % 1015,9 hPa 0,0 l/m 10,8 km/h (2 Bft) W-SW 253 2 min 0,000 mm 2,8 UV-I 566 W/m 16,0 C 22,9 C 14,5 km/h (3 Bft) 97,37 %
19.08.2019 11:30 23,9 C 23,3 C 32,2 C 60 % 1015,9 hPa 0,0 l/m 7,8 km/h (2 Bft) S 186 2 min 0,000 mm 2,8 UV-I 506 W/m 15,7 C 23,5 C 12,9 km/h (3 Bft) 96,23 %
19.08.2019 11:32 23,9 C 23,3 C 32,2 C 61 % 1015,8 hPa 0,0 l/m 6,5 km/h (2 Bft) W-SW 237 2 min 0,000 mm 2,8 UV-I 544 W/m 15,9 C 23,9 C 11,3 km/h (2 Bft) 98,00 %
19.08.2019 11:34 23,9 C 23,3 C 33,9 C 62 % 1015,8 hPa 0,0 l/m 2,8 km/h (1 Bft) SW 225 2 min 0,000 mm 3,6 UV-I 683 W/m 16,2 C 23,9 C 6,4 km/h (2 Bft) 97,56 %
19.08.2019 11:36 24,2 C 23,3 C 35,0 C 61 % 1015,8 hPa 0,0 l/m 5,3 km/h (1 Bft) W-SW 246 2 min 0,000 mm 4,7 UV-I 781 W/m 16,2 C 24,2 C 8,0 km/h (2 Bft) 98,00 %
19.08.2019 11:38 24,3 C 23,3 C 35,0 C 60 % 1015,8 hPa 0,0 l/m 3,6 km/h (1 Bft) N-NO 26 2 min 0,000 mm 4,5 UV-I 729 W/m 16,0 C 24,3 C 6,4 km/h (2 Bft) 95,74 %
19.08.2019 11:40 24,4 C 23,3 C 34,4 C 60 % 1015,8 hPa 0,0 l/m 7,3 km/h (2 Bft) W 277 2 min 0,000 mm 4,7 UV-I 729 W/m 16,1 C 24,2 C 12,9 km/h (3 Bft) 97,44 %
19.08.2019 11:42 24,4 C 23,3 C 33,9 C 57 % 1015,8 hPa 0,0 l/m 7,2 km/h (2 Bft) W 271 2 min 0,000 mm 3,7 UV-I 619 W/m 15,3 C 24,2 C 11,3 km/h (2 Bft) 96,23 %
19.08.2019 11:44 24,2 C 23,3 C 33,9 C 60 % 1015,7 hPa 0,0 l/m 4,1 km/h (1 Bft) W-NW 300 2 min 0,000 mm 4,3 UV-I 531 W/m 15,9 C 24,2 C 8,0 km/h (2 Bft) 97,56 %
19.08.2019 11:46 24,1 C 23,3 C 34,4 C 59 % 1015,7 hPa 0,0 l/m 6,0 km/h (2 Bft) W 275 2 min 0,000 mm 4,3 UV-I 727 W/m 15,6 C 24,1 C 11,3 km/h (2 Bft) 98,31 %
19.08.2019 11:48 24,1 C 23,9 C 35,0 C 59 % 1015,7 hPa 0,0 l/m 3,4 km/h (1 Bft) N-NW 334 2 min 0,000 mm 4,9 UV-I 550 W/m 15,6 C 24,1 C 4,8 km/h (1 Bft) 100,00 %
19.08.2019 11:50 24,3 C 23,3 C 34,4 C 60 % 1015,7 hPa 0,0 l/m 3,9 km/h (1 Bft) N-NO 27 2 min 0,000 mm 4,2 UV-I 550 W/m 16,0 C 24,3 C 8,0 km/h (2 Bft) 98,46 %
19.08.2019 11:52 24,4 C 23,3 C 33,3 C 59 % 1015,7 hPa 0,0 l/m 5,1 km/h (1 Bft) NW 319 2 min 0,000 mm 3,2 UV-I 466 W/m 15,9 C 24,4 C 6,4 km/h (2 Bft) 97,37 %
19.08.2019 11:54 24,4 C 23,3 C 32,8 C 59 % 1015,8 hPa 0,0 l/m 1,6 km/h (1 Bft) W 263 2 min 0,000 mm 3,6 UV-I 472 W/m 15,9 C 24,4 C 4,8 km/h (1 Bft) 98,11 %
19.08.2019 11:56 24,4 C 23,3 C 31,7 C 58 % 1015,8 hPa 0,0 l/m 7,2 km/h (2 Bft) W 274 2 min 0,000 mm 3,9 UV-I 496 W/m 15,6 C 24,2 C 12,9 km/h (3 Bft) 98,00 %
19.08.2019 11:58 24,3 C 23,3 C 32,2 C 59 % 1015,7 hPa 0,0 l/m 7,6 km/h (2 Bft) W 260 2 min 0,000 mm 3,8 UV-I 475 W/m 15,8 C 24,0 C 12,9 km/h (3 Bft) 95,12 %
19.08.2019 12:00 24,1 C 23,3 C 31,7 C 59 % 1015,7 hPa 0,0 l/m 2,7 km/h (1 Bft) W 273 0 min 0,457 mm 3,5 UV-I 408 W/m 15,6 C 24,1 C 4,8 km/h (1 Bft) 98,00 %
19.08.2019 12:02 23,9 C 23,3 C 30,6 C 60 % 1015,7 hPa 0,0 l/m 3,6 km/h (1 Bft) W-NW 293 0 min 0,000 mm 3,1 UV-I 365 W/m 15,7 C 23,9 C 4,8 km/h (1 Bft) 97,87 %
19.08.2019 12:04 23,9 C 23,3 C 31,7 C 60 % 1015,7 hPa 0,0 l/m 3,2 km/h (1 Bft) N-NO 26 0 min 0,000 mm 3,5 UV-I 411 W/m 15,7 C 23,9 C 8,0 km/h (2 Bft) 96,00 %
19.08.2019 12:06 24,2 C 23,3 C 33,9 C 60 % 1015,7 hPa 0,0 l/m 4,3 km/h (1 Bft) N-NW 331 2 min 0,000 mm 4,6 UV-I 468 W/m 15,9 C 24,2 C 6,4 km/h (2 Bft) 100,00 %
19.08.2019 12:08 24,4 C 23,3 C 33,9 C 60 % 1015,8 hPa 0,0 l/m 4,0 km/h (1 Bft) W-NW 284 2 min 0,000 mm 4,0 UV-I 596 W/m 16,1 C 24,4 C 6,4 km/h (2 Bft) 97,87 %
19.08.2019 12:10 24,4 C 23,3 C 35,0 C 60 % 1015,8 hPa 0,0 l/m 2,7 km/h (1 Bft) W-SW 257 2 min 0,000 mm 5,0 UV-I 596 W/m 16,1 C 24,4 C 4,8 km/h (1 Bft) 96,00 %
19.08.2019 12:12 24,4 C 23,3 C 33,9 C 57 % 1015,8 hPa 0,0 l/m 3,5 km/h (1 Bft) N-NW 346 2 min 0,000 mm 4,6 UV-I 596 W/m 15,3 C 24,4 C 8,0 km/h (2 Bft) 96,00 %
19.08.2019 12:14 24,5 C 23,3 C 32,8 C 58 % 1015,8 hPa 0,0 l/m 3,6 km/h (1 Bft) SW 221 0 min 0,000 mm 2,3 UV-I 426 W/m 15,7 C 24,5 C 8,0 km/h (2 Bft) 95,74 %
19.08.2019 12:16 24,5 C 23,3 C 31,7 C 57 % 1015,8 hPa 0,0 l/m 6,5 km/h (2 Bft) W-SW 257 0 min 0,000 mm 3,5 UV-I 389 W/m 15,4 C 24,5 C 12,9 km/h (3 Bft) 97,87 %
19.08.2019 12:18 24,4 C 23,3 C 31,7 C 57 % 1015,8 hPa 0,0 l/m 1,9 km/h (1 Bft) W 266 0 min 0,000 mm 3,9 UV-I 434 W/m 15,3 C 24,4 C 4,8 km/h (1 Bft) 97,44 %
19.08.2019 12:20 24,3 C 23,3 C 31,7 C 59 % 1015,8 hPa 0,0 l/m 3,4 km/h (1 Bft) NW 309 2 min 0,000 mm 3,8 UV-I 444 W/m 15,8 C 24,3 C 4,8 km/h (1 Bft) 96,23 %
19.08.2019 12:22 24,4 C 23,3 C 31,7 C 58 % 1015,8 hPa 0,0 l/m 2,9 km/h (1 Bft) W-NW 302 2 min 0,000 mm 4,0 UV-I 529 W/m 15,6 C 24,4 C 6,4 km/h (2 Bft) 97,87 %
19.08.2019 12:24 24,4 C 23,3 C 31,1 C 57 % 1015,8 hPa 0,0 l/m 4,0 km/h (1 Bft) N-NW 340 2 min 0,000 mm 3,9 UV-I 488 W/m 15,3 C 24,4 C 8,0 km/h (2 Bft) 97,87 %
19.08.2019 12:26 24,4 C 23,3 C 31,1 C 57 % 1015,8 hPa 0,0 l/m 3,6 km/h (1 Bft) W-SW 244 2 min 0,000 mm 3,8 UV-I 444 W/m 15,3 C 24,4 C 6,4 km/h (2 Bft) 94,74 %
19.08.2019 12:28 24,3 C 23,3 C 31,1 C 58 % 1015,8 hPa 0,0 l/m 4,9 km/h (1 Bft) W-SW 246 2 min 0,000 mm 3,9 UV-I 452 W/m 15,5 C 24,3 C 8,0 km/h (2 Bft) 96,00 %
19.08.2019 12:30 24,4 C 23,3 C 31,1 C 57 % 1015,8 hPa 0,0 l/m 5,2 km/h (1 Bft) S-SW 196 2 min 0,000 mm 4,1 UV-I 516 W/m 15,3 C 24,4 C 9,7 km/h (2 Bft) 96,00 %
19.08.2019 12:32 24,5 C 23,3 C 32,2 C 58 % 1015,8 hPa 0,0 l/m 4,1 km/h (1 Bft) W 269 2 min 0,000 mm 4,2 UV-I 554 W/m 15,7 C 24,5 C 6,4 km/h (2 Bft) 94,34 %
19.08.2019 12:34 24,6 C 23,3 C 32,8 C 56 % 1015,7 hPa 0,0 l/m 6,1 km/h (2 Bft) S-SW 212 2 min 0,000 mm 4,2 UV-I 543 W/m 15,2 C 24,6 C 9,7 km/h (2 Bft) 97,73 %
19.08.2019 12:36 24,6 C 23,3 C 33,9 C 57 % 1015,7 hPa 0,0 l/m 4,6 km/h (1 Bft) SW 231 2 min 0,000 mm 4,3 UV-I 567 W/m 15,5 C 24,6 C 8,0 km/h (2 Bft) 98,00 %
19.08.2019 12:38 24,8 C 23,3 C 34,4 C 59 % 1015,7 hPa 0,0 l/m 4,1 km/h (1 Bft) SW 233 2 min 0,000 mm 4,4 UV-I 592 W/m 16,2 C 24,8 C 8,0 km/h (2 Bft) 97,87 %
19.08.2019 12:40 24,9 C 23,3 C 35,0 C 57 % 1015,7 hPa 0,0 l/m 4,9 km/h (1 Bft) S-SW 195 2 min 0,000 mm 4,4 UV-I 600 W/m 15,8 C 24,9 C 9,7 km/h (2 Bft) 97,56 %
19.08.2019 12:42 25,0 C 23,3 C 33,9 C 55 % 1015,7 hPa 0,0 l/m 6,6 km/h (2 Bft) SW 236 2 min 0,000 mm 4,4 UV-I 593 W/m 15,3 C 25,0 C 11,3 km/h (2 Bft) 97,87 %
19.08.2019 12:44 25,2 C 23,3 C 35,0 C 56 % 1015,7 hPa 0,0 l/m 9,0 km/h (2 Bft) SW 229 2 min 0,000 mm 4,4 UV-I 636 W/m 15,8 C 24,6 C 17,7 km/h (3 Bft) 97,56 %
19.08.2019 12:46 25,4 C 23,3 C 34,4 C 55 % 1015,7 hPa 0,0 l/m 9,6 km/h (2 Bft) W-NW 283 2 min 0,000 mm 3,1 UV-I 554 W/m 15,7 C 24,7 C 22,5 km/h (4 Bft) 97,87 %
19.08.2019 12:48 25,6 C 23,9 C 33,9 C 53 % 1015,7 hPa 0,0 l/m 10,2 km/h (2 Bft) NW 304 2 min 0,000 mm 4,9 UV-I 585 W/m 15,3 C 24,8 C 14,5 km/h (3 Bft) 96,00 %
19.08.2019 12:50 25,6 C 23,3 C 33,9 C 54 % 1015,7 hPa 0,0 l/m 6,3 km/h (2 Bft) W-SW 256 2 min 0,000 mm 4,4 UV-I 628 W/m 15,6 C 25,6 C 12,9 km/h (3 Bft) 96,00 %
19.08.2019 12:52 25,6 C 23,3 C 32,2 C 53 % 1015,7 hPa 0,0 l/m 14,5 km/h (3 Bft) SW 223 0 min 0,000 mm 3,7 UV-I 434 W/m 15,3 C 24,1 C 19,3 km/h (3 Bft) 98,00 %
19.08.2019 12:54 25,4 C 23,3 C 30,6 C 51 % 1015,6 hPa 0,0 l/m 17,3 km/h (3 Bft) W 259 0 min 0,000 mm 3,4 UV-I 385 W/m 14,5 C 23,5 C 20,9 km/h (4 Bft) 95,24 %
19.08.2019 12:56 25,3 C 23,3 C 30,0 C 53 % 1015,6 hPa 0,0 l/m 9,6 km/h (2 Bft) W-SW 254 0 min 0,000 mm 3,3 UV-I 392 W/m 15,0 C 24,6 C 16,1 km/h (3 Bft) 97,73 %
19.08.2019 12:58 25,3 C 23,3 C 30,0 C 52 % 1015,6 hPa 0,0 l/m 9,7 km/h (2 Bft) W 275 0 min 0,000 mm 3,5 UV-I 422 W/m 14,7 C 24,6 C 16,1 km/h (3 Bft) 100,00 %
19.08.2019 13:00 25,3 C 23,9 C 30,6 C 52 % 1015,5 hPa 0,0 l/m 6,9 km/h (2 Bft) W-SW 244 2 min 0,356 mm 3,8 UV-I 475 W/m 14,7 C 25,2 C 11,3 km/h (2 Bft) 100,00 %
19.08.2019 13:02 25,4 C 23,9 C 31,1 C 53 % 1015,4 hPa 0,0 l/m 10,9 km/h (2 Bft) W-SW 257 2 min 0,000 mm 4,0 UV-I 530 W/m 15,1 C 24,4 C 17,7 km/h (3 Bft) 100,00 %
19.08.2019 13:04 25,6 C 23,9 C 32,8 C 52 % 1015,4 hPa 0,0 l/m 7,2 km/h (2 Bft) S-SW 209 2 min 0,000 mm 4,6 UV-I 583 W/m 15,0 C 25,4 C 11,3 km/h (2 Bft) 100,00 %
19.08.2019 13:06 25,7 C 23,9 C 35,0 C 52 % 1015,4 hPa 0,0 l/m 5,7 km/h (1 Bft) W-SW 237 2 min 0,000 mm 5,4 UV-I 603 W/m 15,1 C 25,7 C 11,3 km/h (2 Bft) 98,00 %
19.08.2019 13:08 25,9 C 23,9 C 36,7 C 54 % 1015,3 hPa 0,0 l/m 7,5 km/h (2 Bft) S 169 2 min 0,000 mm 5,4 UV-I 603 W/m 15,9 C 25,7 C 11,3 km/h (2 Bft) 96,00 %
19.08.2019 13:10 26,0 C 23,9 C 35,0 C 50 % 1015,3 hPa 0,0 l/m 12,2 km/h (2 Bft) S-SO 155 2 min 0,000 mm 3,9 UV-I 479 W/m 14,8 C 24,9 C 19,3 km/h (3 Bft) 97,56 %
19.08.2019 13:12 25,9 C 23,9 C 33,3 C 51 % 1015,3 hPa 0,0 l/m 8,3 km/h (2 Bft) S 183 0 min 0,000 mm 3,7 UV-I 376 W/m 15,0 C 25,5 C 12,9 km/h (3 Bft) 100,00 %
19.08.2019 13:14 25,8 C 23,9 C 32,2 C 51 % 1015,3 hPa 0,0 l/m 5,4 km/h (1 Bft) SW 227 0 min 0,000 mm 3,8 UV-I 427 W/m 14,9 C 25,8 C 11,3 km/h (2 Bft) 97,37 %
19.08.2019 13:16 25,8 C 23,9 C 32,8 C 51 % 1015,3 hPa 0,0 l/m 4,0 km/h (1 Bft) W-SW 247 0 min 0,000 mm 4,1 UV-I 412 W/m 14,9 C 25,8 C 8,0 km/h (2 Bft) 96,23 %
19.08.2019 13:18 25,8 C 23,9 C 32,2 C 52 % 1015,3 hPa 0,0 l/m 8,3 km/h (2 Bft) SW 224 2 min 0,000 mm 4,6 UV-I 465 W/m 15,2 C 25,4 C 11,3 km/h (2 Bft) 100,00 %
19.08.2019 13:20 25,9 C 23,9 C 34,4 C 53 % 1015,3 hPa 0,0 l/m 3,1 km/h (1 Bft) W-SW 245 2 min 0,000 mm 5,2 UV-I 450 W/m 15,6 C 25,9 C 8,0 km/h (2 Bft) 100,00 %
19.08.2019 13:22 26,1 C 23,9 C 34,4 C 51 % 1015,3 hPa 0,0 l/m 5,1 km/h (1 Bft) NW 311 2 min 0,000 mm 4,8 UV-I 559 W/m 15,2 C 26,1 C 8,0 km/h (2 Bft) 100,00 %
19.08.2019 13:24 26,2 C 23,9 C 37,2 C 51 % 1015,3 hPa 0,0 l/m 7,2 km/h (2 Bft) N 9 2 min 0,000 mm 5,8 UV-I 624 W/m 15,2 C 26,0 C 12,9 km/h (3 Bft) 100,00 %
19.08.2019 13:26 26,6 C 23,9 C 38,3 C 50 % 1015,3 hPa 0,0 l/m 3,4 km/h (1 Bft) O-NO 58 2 min 0,000 mm 5,7 UV-I 794 W/m 15,3 C 26,6 C 6,4 km/h (2 Bft) 100,00 %
19.08.2019 13:28 27,1 C 23,9 C 40,0 C 53 % 1015,3 hPa 0,0 l/m 3,0 km/h (1 Bft) SO 146 2 min 0,000 mm 5,6 UV-I 944 W/m 16,7 C 27,1 C 8,0 km/h (2 Bft) 100,00 %
19.08.2019 13:30 27,3 C 23,9 C 40,0 C 50 % 1015,3 hPa 0,0 l/m 5,4 km/h (1 Bft) NW 316 2 min 0,000 mm 5,0 UV-I 852 W/m 15,9 C 27,3 C 8,0 km/h (2 Bft) 100,00 %
19.08.2019 13:32 27,3 C 23,9 C 38,9 C 48 % 1015,3 hPa 0,0 l/m 9,4 km/h (2 Bft) W-SW 247 2 min 0,000 mm 4,8 UV-I 557 W/m 15,3 C 26,8 C 14,5 km/h (3 Bft) 98,00 %
19.08.2019 13:34 26,9 C 23,9 C 37,2 C 49 % 1015,3 hPa 0,0 l/m 5,8 km/h (2 Bft) W 260 2 min 0,000 mm 4,6 UV-I 567 W/m 15,3 C 26,9 C 11,3 km/h (2 Bft) 97,73 %
19.08.2019 13:36 26,8 C 23,9 C 37,8 C 52 % 1015,3 hPa 0,0 l/m 6,5 km/h (2 Bft) S-SW 205 2 min 0,000 mm 4,7 UV-I 599 W/m 16,1 C 26,8 C 11,3 km/h (2 Bft) 100,00 %
19.08.2019 13:38 26,8 C 23,9 C 38,9 C 48 % 1015,3 hPa 0,0 l/m 5,6 km/h (1 Bft) S 185 2 min 0,000 mm 5,3 UV-I 658 W/m 14,9 C 26,8 C 8,0 km/h (2 Bft) 100,00 %
19.08.2019 13:40 26,7 C 23,9 C 40,6 C 49 % 1015,3 hPa 0,0 l/m 2,8 km/h (1 Bft) W-SW 237 2 min 0,000 mm 4,2 UV-I 1002 W/m 15,1 C 26,7 C 4,8 km/h (1 Bft) 100,00 %
19.08.2019 13:42 26,8 C 23,9 C 40,0 C 51 % 1015,3 hPa 0,0 l/m 7,8 km/h (2 Bft) N-NW 328 2 min 0,000 mm 5,3 UV-I 1004 W/m 15,8 C 26,5 C 16,1 km/h (3 Bft) 97,87 %
19.08.2019 13:44 26,8 C 23,9 C 38,9 C 51 % 1015,3 hPa 0,0 l/m 9,4 km/h (2 Bft) N-NW 348 2 min 0,000 mm 5,3 UV-I 982 W/m 15,8 C 26,2 C 14,5 km/h (3 Bft) 98,00 %
19.08.2019 13:46 26,8 C 23,9 C 37,2 C 51 % 1015,2 hPa 0,0 l/m 5,6 km/h (1 Bft) W 269 2 min 0,000 mm 4,1 UV-I 1020 W/m 15,8 C 26,8 C 8,0 km/h (2 Bft) 97,73 %
19.08.2019 13:48 26,5 C 23,9 C 34,4 C 51 % 1015,2 hPa 0,0 l/m 7,2 km/h (2 Bft) W-SW 248 0 min 0,000 mm 3,2 UV-I 437 W/m 15,5 C 26,3 C 11,3 km/h (2 Bft) 98,00 %
19.08.2019 13:50 26,2 C 23,9 C 32,8 C 52 % 1015,2 hPa 0,0 l/m 4,2 km/h (1 Bft) W 279 0 min 0,000 mm 3,0 UV-I 328 W/m 15,6 C 26,2 C 9,7 km/h (2 Bft) 97,87 %
19.08.2019 13:52 26,1 C 23,9 C 31,7 C 54 % 1015,2 hPa 0,0 l/m 10,6 km/h (2 Bft) W 281 0 min 0,000 mm 2,8 UV-I 318 W/m 16,0 C 25,3 C 16,1 km/h (3 Bft) 98,11 %
19.08.2019 13:54 26,0 C 23,9 C 30,6 C 54 % 1015,2 hPa 0,0 l/m 6,8 km/h (2 Bft) W 269 0 min 0,000 mm 2,7 UV-I 321 W/m 16,0 C 25,9 C 16,1 km/h (3 Bft) 95,74 %
19.08.2019 13:56 25,9 C 23,9 C 30,0 C 55 % 1015,2 hPa 0,0 l/m 9,8 km/h (2 Bft) NW 305 0 min 0,000 mm 2,7 UV-I 332 W/m 16,2 C 25,2 C 14,5 km/h (3 Bft) 97,37 %
19.08.2019 13:58 25,8 C 23,9 C 29,4 C 56 % 1015,3 hPa 0,0 l/m 5,3 km/h (1 Bft) NW 307 0 min 0,000 mm 2,8 UV-I 347 W/m 16,3 C 25,8 C 16,1 km/h (3 Bft) 98,00 %
19.08.2019 14:00 25,8 C 23,9 C 30,0 C 55 % 1015,3 hPa 0,0 l/m 3,9 km/h (1 Bft) W-NW 301 0 min 0,000 mm 2,8 UV-I 352 W/m 16,1 C 25,8 C 8,0 km/h (2 Bft) 95,74 %
19.08.2019 14:02 25,7 C 23,9 C 29,4 C 54 % 1015,3 hPa 0,0 l/m 5,2 km/h (1 Bft) W-SW 252 0 min 0,432 mm 2,8 UV-I 362 W/m 15,7 C 25,7 C 12,9 km/h (3 Bft) 97,73 %
19.08.2019 14:04 25,6 C 23,9 C 29,4 C 54 % 1015,2 hPa 0,0 l/m 4,4 km/h (1 Bft) W 273 0 min 0,000 mm 2,8 UV-I 358 W/m 15,6 C 25,6 C 8,0 km/h (2 Bft) 96,00 %
19.08.2019 14:06 25,6 C 23,9 C 29,4 C 53 % 1015,2 hPa 0,0 l/m 6,1 km/h (2 Bft) N-NO 13 0 min 0,000 mm 2,7 UV-I 327 W/m 15,3 C 25,6 C 11,3 km/h (2 Bft) 98,00 %
19.08.2019 14:08 25,5 C 23,9 C 28,9 C 54 % 1015,2 hPa 0,0 l/m 5,6 km/h (1 Bft) N 5 0 min 0,000 mm 2,5 UV-I 313 W/m 15,5 C 25,5 C 9,7 km/h (2 Bft) 97,87 %
19.08.2019 14:10 25,5 C 23,9 C 28,9 C 54 % 1015,2 hPa 0,0 l/m 4,4 km/h (1 Bft) N 355 0 min 0,000 mm 2,4 UV-I 302 W/m 15,5 C 25,5 C 6,4 km/h (2 Bft) 94,44 %
19.08.2019 14:12 25,5 C 23,9 C 28,9 C 55 % 1015,2 hPa 0,0 l/m 4,3 km/h (1 Bft) N-NO 23 0 min 0,000 mm 2,2 UV-I 283 W/m 15,8 C 25,5 C 6,4 km/h (2 Bft) 100,00 %
19.08.2019 14:14 25,6 C 23,9 C 28,9 C 56 % 1015,2 hPa 0,0 l/m 4,0 km/h (1 Bft) N-NW 348 0 min 0,000 mm 2,0 UV-I 268 W/m 16,2 C 25,6 C 8,0 km/h (2 Bft) 100,00 %
19.08.2019 14:16 25,6 C 23,9 C 28,3 C 54 % 1015,2 hPa 0,0 l/m 3,5 km/h (1 Bft) N-NO 33 0 min 0,000 mm 2,0 UV-I 261 W/m 15,6 C 25,6 C 6,4 km/h (2 Bft) 100,00 %
19.08.2019 14:18 25,6 C 23,9 C 28,3 C 55 % 1015,2 hPa 0,0 l/m 3,8 km/h (1 Bft) SW 216 0 min 0,000 mm 1,9 UV-I 245 W/m 15,9 C 25,6 C 9,7 km/h (2 Bft) 100,00 %
19.08.2019 14:20 25,5 C 23,9 C 27,8 C 52 % 1015,2 hPa 0,0 l/m 4,3 km/h (1 Bft) N-NW 348 0 min 0,000 mm 1,6 UV-I 219 W/m 14,9 C 25,5 C 11,3 km/h (2 Bft) 98,11 %
19.08.2019 14:22 25,4 C 23,9 C 27,8 C 53 % 1015,3 hPa 0,0 l/m 2,7 km/h (1 Bft) W-SW 248 0 min 0,000 mm 1,4 UV-I 198 W/m 15,1 C 25,4 C 4,8 km/h (1 Bft) 97,87 %
19.08.2019 14:24 25,3 C 23,9 C 27,2 C 55 % 1015,3 hPa 0,0 l/m 4,0 km/h (1 Bft) N 350 0 min 0,000 mm 1,3 UV-I 175 W/m 15,6 C 25,3 C 8,0 km/h (2 Bft) 97,87 %
19.08.2019 14:26 25,1 C 23,9 C 26,7 C 57 % 1015,4 hPa 0,0 l/m 6,6 km/h (2 Bft) N 10 0 min 0,000 mm 1,1 UV-I 154 W/m 16,0 C 25,1 C 12,9 km/h (3 Bft) 98,00 %
19.08.2019 14:28 24,9 C 23,9 C 26,1 C 58 % 1015,4 hPa 0,0 l/m 5,6 km/h (1 Bft) N 5 0 min 0,000 mm 1,0 UV-I 138 W/m 16,1 C 24,9 C 8,0 km/h (2 Bft) 97,37 %
19.08.2019 14:30 24,7 C 23,9 C 25,6 C 59 % 1015,4 hPa 0,0 l/m 6,1 km/h (2 Bft) N 5 0 min 0,000 mm 0,9 UV-I 122 W/m 16,1 C 24,7 C 12,9 km/h (3 Bft) 98,11 %
19.08.2019 14:32 24,5 C 23,9 C 25,0 C 59 % 1015,4 hPa 0,0 l/m 5,7 km/h (1 Bft) N-NO 18 0 min 0,000 mm 0,8 UV-I 113 W/m 15,9 C 24,5 C 11,3 km/h (2 Bft) 97,37 %
19.08.2019 14:34 24,4 C 23,9 C 25,0 C 60 % 1015,4 hPa 0,0 l/m 3,7 km/h (1 Bft) N-NW 335 0 min 0,000 mm 0,7 UV-I 104 W/m 16,1 C 24,4 C 6,4 km/h (2 Bft) 96,00 %
19.08.2019 14:36 24,3 C 23,9 C 25,0 C 60 % 1015,4 hPa 0,0 l/m 3,9 km/h (1 Bft) N-NO 18 0 min 0,000 mm 0,7 UV-I 98 W/m 16,0 C 24,3 C 6,4 km/h (2 Bft) 97,87 %
19.08.2019 14:38 24,2 C 23,9 C 25,0 C 60 % 1015,4 hPa 0,0 l/m 5,9 km/h (2 Bft) N 10 0 min 0,000 mm 0,6 UV-I 96 W/m 15,9 C 24,2 C 11,3 km/h (2 Bft) 98,11 %
19.08.2019 14:40 24,1 C 23,9 C 24,4 C 61 % 1015,4 hPa 0,0 l/m 4,0 km/h (1 Bft) N-NW 339 0 min 0,000 mm 0,7 UV-I 98 W/m 16,1 C 24,1 C 6,4 km/h (2 Bft) 97,37 %
19.08.2019 14:42 24,1 C 23,9 C 24,4 C 62 % 1015,4 hPa 0,0 l/m 2,6 km/h (1 Bft) N-NO 22 0 min 0,000 mm 0,7 UV-I 104 W/m 16,4 C 24,1 C 4,8 km/h (1 Bft) 98,11 %
19.08.2019 14:44 24,0 C 23,9 C 24,4 C 62 % 1015,5 hPa 0,0 l/m 2,8 km/h (1 Bft) NW 321 0 min 0,000 mm 0,7 UV-I 107 W/m 16,3 C 24,0 C 6,4 km/h (2 Bft) 96,00 %
19.08.2019 14:46 23,9 C 23,9 C 24,4 C 63 % 1015,5 hPa 0,0 l/m 2,4 km/h (1 Bft) N-NO 23 0 min 0,000 mm 0,7 UV-I 109 W/m 16,4 C 23,9 C 3,2 km/h (1 Bft) 97,87 %
19.08.2019 14:48 23,9 C 23,9 C 24,4 C 63 % 1015,5 hPa 0,0 l/m 2,4 km/h (1 Bft) N-NO 23 0 min 0,000 mm 0,7 UV-I 109 W/m 16,4 C 23,9 C 3,2 km/h (1 Bft) 97,44 %
19.08.2019 14:50 23,9 C 23,9 C 24,4 C 64 % 1015,6 hPa 0,0 l/m 3,0 km/h (1 Bft) NW 315 0 min 0,000 mm 0,7 UV-I 109 W/m 16,7 C 23,9 C 6,4 km/h (2 Bft) 97,87 %
19.08.2019 14:52 23,9 C 23,9 C 24,4 C 64 % 1015,7 hPa 0,0 l/m 2,8 km/h (1 Bft) NW 314 0 min 0,000 mm 0,7 UV-I 107 W/m 16,7 C 23,9 C 4,8 km/h (1 Bft) 94,64 %
19.08.2019 14:54 23,9 C 23,9 C 24,4 C 63 % 1015,7 hPa 0,0 l/m 3,7 km/h (1 Bft) N 355 0 min 0,000 mm 0,7 UV-I 107 W/m 16,4 C 23,9 C 6,4 km/h (2 Bft) 97,14 %
19.08.2019 14:56 23,8 C 23,9 C 24,4 C 62 % 1015,7 hPa 0,0 l/m 4,7 km/h (1 Bft) NW 317 0 min 0,000 mm 0,8 UV-I 111 W/m 16,1 C 23,8 C 11,3 km/h (2 Bft) 97,73 %
19.08.2019 14:58 23,8 C 23,9 C 24,4 C 62 % 1015,7 hPa 0,0 l/m 5,5 km/h (1 Bft) N-NO 22 0 min 0,000 mm 0,8 UV-I 114 W/m 16,1 C 23,8 C 9,7 km/h (2 Bft) 96,00 %
19.08.2019 15:00 23,8 C 23,9 C 24,4 C 63 % 1015,7 hPa 0,0 l/m 3,4 km/h (1 Bft) NW 325 0 min 0,152 mm 0,8 UV-I 117 W/m 16,3 C 23,8 C 6,4 km/h (2 Bft) 98,00 %
19.08.2019 15:02 23,8 C 23,9 C 24,4 C 62 % 1015,8 hPa 0,0 l/m 3,6 km/h (1 Bft) W-NW 298 0 min 0,000 mm 0,8 UV-I 118 W/m 16,1 C 23,8 C 4,8 km/h (1 Bft) 96,00 %
19.08.2019 15:04 23,7 C 23,9 C 24,4 C 62 % 1015,8 hPa 0,0 l/m 4,7 km/h (1 Bft) NW 322 0 min 0,000 mm 0,8 UV-I 119 W/m 16,0 C 23,7 C 8,0 km/h (2 Bft) 98,00 %
19.08.2019 15:06 23,7 C 23,9 C 24,4 C 62 % 1015,7 hPa 0,0 l/m 4,9 km/h (1 Bft) NW 313 0 min 0,000 mm 0,8 UV-I 122 W/m 16,0 C 23,7 C 12,9 km/h (3 Bft) 97,56 %
19.08.2019 15:08 23,7 C 23,9 C 24,4 C 63 % 1015,7 hPa 0,0 l/m 3,7 km/h (1 Bft) N-NW 345 0 min 0,000 mm 0,8 UV-I 124 W/m 16,2 C 23,7 C 8,0 km/h (2 Bft) 98,00 %
19.08.2019 15:10 23,6 C 23,9 C 24,4 C 62 % 1015,8 hPa 0,0 l/m 5,3 km/h (1 Bft) N 355 0 min 0,000 mm 0,8 UV-I 120 W/m 15,9 C 23,6 C 12,9 km/h (3 Bft) 97,73 %
19.08.2019 15:12 23,6 C 23,9 C 24,4 C 63 % 1015,8 hPa 0,0 l/m 5,9 km/h (2 Bft) N-NW 331 0 min 0,000 mm 0,8 UV-I 114 W/m 16,1 C 23,6 C 9,7 km/h (2 Bft) 96,23 %
19.08.2019 15:14 23,5 C 23,9 C 23,9 C 62 % 1015,9 hPa 0,0 l/m 5,0 km/h (1 Bft) NO 34 0 min 0,000 mm 0,7 UV-I 110 W/m 15,8 C 23,5 C 12,9 km/h (3 Bft) 97,87 %
19.08.2019 15:16 23,5 C 23,9 C 23,9 C 63 % 1015,9 hPa 0,0 l/m 4,2 km/h (1 Bft) N-NO 28 0 min 0,000 mm 0,7 UV-I 108 W/m 16,0 C 23,5 C 8,0 km/h (2 Bft) 97,56 %
19.08.2019 15:18 23,4 C 23,9 C 23,9 C 63 % 1015,9 hPa 0,0 l/m 4,0 km/h (1 Bft) N-NW 344 0 min 0,000 mm 0,7 UV-I 105 W/m 15,9 C 23,4 C 11,3 km/h (2 Bft) 96,00 %
19.08.2019 15:20 23,4 C 23,9 C 23,9 C 63 % 1015,9 hPa 0,0 l/m 5,3 km/h (1 Bft) N-NO 12 0 min 0,000 mm 0,7 UV-I 104 W/m 15,9 C 23,4 C 8,0 km/h (2 Bft) 93,62 %
19.08.2019 15:22 23,3 C 23,9 C 23,9 C 64 % 1015,9 hPa 0,0 l/m 5,5 km/h (1 Bft) N-NO 14 0 min 0,000 mm 0,7 UV-I 108 W/m 16,1 C 23,3 C 11,3 km/h (2 Bft) 91,49 %
19.08.2019 15:24 23,3 C 23,9 C 23,9 C 64 % 1015,9 hPa 0,0 l/m 6,1 km/h (2 Bft) N 11 0 min 0,000 mm 0,7 UV-I 112 W/m 16,1 C 23,3 C 9,7 km/h (2 Bft) 92,31 %
19.08.2019 15:26 23,2 C 23,9 C 23,9 C 64 % 1015,9 hPa 0,0 l/m 7,9 km/h (2 Bft) N-NW 328 0 min 0,000 mm 0,7 UV-I 114 W/m 16,0 C 22,7 C 12,9 km/h (3 Bft) 95,74 %
19.08.2019 15:29 23,1 C 23,9 C 23,3 C 63 % 1015,9 hPa 0,0 l/m 7,8 km/h (2 Bft) W-NW 288 0 min 0,000 mm 0,7 UV-I 115 W/m 15,7 C 22,7 C 16,1 km/h (3 Bft) 94,94 %
19.08.2019 15:30 23,1 C 23,9 C 23,3 C 64 % 1015,9 hPa 0,0 l/m 8,0 km/h (2 Bft) N 355 0 min 0,000 mm 0,8 UV-I 119 W/m 15,9 C 22,6 C 12,9 km/h (3 Bft) 95,83 %
19.08.2019 15:32 23,0 C 23,9 C 23,3 C 65 % 1015,9 hPa 0,0 l/m 8,9 km/h (2 Bft) N-NO 12 0 min 0,000 mm 0,8 UV-I 120 W/m 16,1 C 22,2 C 14,5 km/h (3 Bft) 94,74 %
19.08.2019 15:34 23,0 C 23,9 C 23,3 C 65 % 1016,0 hPa 0,0 l/m 4,2 km/h (1 Bft) NW 322 0 min 0,000 mm 0,7 UV-I 116 W/m 16,1 C 23,0 C 8,0 km/h (2 Bft) 95,74 %
19.08.2019 15:36 22,9 C 23,9 C 23,3 C 64 % 1016,0 hPa 0,0 l/m 5,1 km/h (1 Bft) N-NW 340 0 min 0,000 mm 0,7 UV-I 109 W/m 15,7 C 22,9 C 11,3 km/h (2 Bft) 92,00 %
19.08.2019 15:38 23,0 C 23,9 C 23,3 C 65 % 1016,0 hPa 0,0 l/m 2,8 km/h (1 Bft) N-NO 19 0 min 0,000 mm 0,7 UV-I 101 W/m 16,1 C 23,0 C 4,8 km/h (1 Bft) 94,34 %
19.08.2019 15:40 22,9 C 23,9 C 23,3 C 65 % 1016,0 hPa 0,0 l/m 7,7 km/h (2 Bft) NW 322 0 min 0,000 mm 0,6 UV-I 92 W/m 16,0 C 22,5 C 12,9 km/h (3 Bft) 95,12 %
19.08.2019 15:42 22,8 C 23,9 C 23,3 C 65 % 1016,1 hPa 0,0 l/m 7,0 km/h (2 Bft) W-NW 286 0 min 0,000 mm 0,5 UV-I 84 W/m 15,9 C 22,6 C 12,9 km/h (3 Bft) 95,45 %
19.08.2019 15:44 22,8 C 23,9 C 22,8 C 67 % 1016,1 hPa 0,0 l/m 4,2 km/h (1 Bft) O 91 0 min 0,000 mm 0,5 UV-I 79 W/m 16,3 C 22,8 C 6,4 km/h (2 Bft) 96,23 %
19.08.2019 15:46 22,7 C 23,9 C 22,8 C 67 % 1016,1 hPa 0,0 l/m 4,5 km/h (1 Bft) W 276 0 min 0,000 mm 0,3 UV-I 75 W/m 16,2 C 22,7 C 11,3 km/h (2 Bft) 97,87 %
19.08.2019 15:48 22,7 C 23,9 C 22,8 C 66 % 1016,1 hPa 0,0 l/m 4,9 km/h (1 Bft) NW 313 0 min 0,000 mm 0,1 UV-I 76 W/m 16,0 C 22,7 C 8,0 km/h (2 Bft) 97,87 %
19.08.2019 15:50 22,6 C 23,9 C 22,8 C 67 % 1016,1 hPa 0,0 l/m 4,3 km/h (1 Bft) N 355 0 min 0,000 mm 0,5 UV-I 79 W/m 16,2 C 22,6 C 8,0 km/h (2 Bft) 97,87 %
19.08.2019 15:52 22,6 C 23,9 C 22,2 C 67 % 1016,1 hPa 0,0 l/m 2,6 km/h (1 Bft) N 11 0 min 0,000 mm 0,5 UV-I 83 W/m 16,2 C 22,6 C 4,8 km/h (1 Bft) 97,87 %
19.08.2019 15:54 22,6 C 23,9 C 22,2 C 68 % 1016,1 hPa 0,0 l/m 2,1 km/h (1 Bft) W-SW 256 0 min 0,000 mm 0,5 UV-I 79 W/m 16,4 C 22,6 C 6,4 km/h (2 Bft) 97,56 %
19.08.2019 15:56 22,4 C 23,9 C 21,7 C 70 % 1016,1 hPa 0,0 l/m 4,0 km/h (1 Bft) N 5 0 min 0,000 mm 0,2 UV-I 75 W/m 16,7 C 22,4 C 9,7 km/h (2 Bft) 98,11 %
19.08.2019 15:58 22,3 C 23,9 C 21,1 C 71 % 1016,1 hPa 0,0 l/m 3,5 km/h (1 Bft) NW 315 0 min 0,000 mm 0,0 UV-I 74 W/m 16,8 C 22,3 C 6,4 km/h (2 Bft) 97,22 %
19.08.2019 16:00 22,1 C 23,9 C 21,1 C 71 % 1016,2 hPa 0,0 l/m 2,2 km/h (1 Bft) NW 315 0 min 0,102 mm 0,1 UV-I 77 W/m 16,6 C 22,1 C 3,2 km/h (1 Bft) 96,00 %
19.08.2019 16:02 21,9 C 23,9 C 20,6 C 72 % 1016,2 hPa 0,0 l/m 1,8 km/h (1 Bft) NW 315 0 min 0,000 mm 0,5 UV-I 82 W/m 16,6 C 21,9 C 3,2 km/h (1 Bft) 100,00 %
19.08.2019 16:04 21,9 C 23,9 C 20,6 C 75 % 1016,1 hPa 0,0 l/m 2,1 km/h (1 Bft) NW 315 0 min 0,000 mm 0,5 UV-I 85 W/m 17,3 C 21,9 C 3,2 km/h (1 Bft) 97,87 %
19.08.2019 16:06 21,8 C 23,9 C 20,6 C 74 % 1016,1 hPa 0,0 l/m 0,7 km/h (0 Bft) NW 316 0 min 0,000 mm 0,5 UV-I 88 W/m 17,0 C 21,8 C 3,2 km/h (1 Bft) 98,00 %
19.08.2019 16:08 21,6 C 23,9 C 20,6 C 76 % 1016,1 hPa 0,2 l/m 2,1 km/h (1 Bft) NW 317 0 min 0,000 mm 0,5 UV-I 90 W/m 17,2 C 21,6 C 4,8 km/h (1 Bft) 100,00 %
19.08.2019 16:10 21,6 C 23,9 C 20,0 C 75 % 1016,1 hPa 0,0 l/m 2,1 km/h (1 Bft) NW 325 0 min 0,000 mm 0,5 UV-I 95 W/m 17,0 C 21,6 C 3,2 km/h (1 Bft) 97,56 %
19.08.2019 16:12 21,4 C 23,9 C 20,0 C 76 % 1016,1 hPa 0,0 l/m 4,7 km/h (1 Bft) N-NW 347 0 min 0,000 mm 0,6 UV-I 102 W/m 17,0 C 21,4 C 8,0 km/h (2 Bft) 100,00 %
19.08.2019 16:14 21,4 C 23,9 C 20,0 C 75 % 1016,1 hPa 0,0 l/m 4,7 km/h (1 Bft) N 5 0 min 0,000 mm 0,6 UV-I 109 W/m 16,8 C 21,4 C 6,4 km/h (2 Bft) 100,00 %
19.08.2019 16:16 21,3 C 23,9 C 20,0 C 75 % 1016,0 hPa 0,0 l/m 3,8 km/h (1 Bft) N 5 0 min 0,000 mm 0,6 UV-I 114 W/m 16,7 C 21,3 C 4,8 km/h (1 Bft) 96,00 %
19.08.2019 16:18 21,3 C 23,9 C 20,6 C 78 % 1015,9 hPa 0,0 l/m 3,8 km/h (1 Bft) N 355 0 min 0,000 mm 0,7 UV-I 125 W/m 17,3 C 21,3 C 6,4 km/h (2 Bft) 97,56 %
19.08.2019 16:20 21,3 C 23,9 C 20,6 C 78 % 1015,9 hPa 0,0 l/m 3,6 km/h (1 Bft) N-NO 12 0 min 0,000 mm 0,8 UV-I 147 W/m 17,3 C 21,3 C 4,8 km/h (1 Bft) 93,62 %
19.08.2019 16:22 21,4 C 23,9 C 21,1 C 80 % 1015,8 hPa 0,0 l/m 2,3 km/h (1 Bft) N-NO 12 0 min 0,000 mm 1,0 UV-I 184 W/m 17,8 C 21,4 C 3,2 km/h (1 Bft) 96,00 %
19.08.2019 16:24 21,4 C 23,9 C 21,1 C 78 % 1015,8 hPa 0,0 l/m 1,8 km/h (1 Bft) N-NO 12 0 min 0,000 mm 0,9 UV-I 150 W/m 17,4 C 21,4 C 3,2 km/h (1 Bft) 97,87 %
19.08.2019 16:26 21,6 C 23,9 C 21,1 C 77 % 1015,8 hPa 0,0 l/m 2,7 km/h (1 Bft) N 355 0 min 0,000 mm 0,8 UV-I 119 W/m 17,4 C 21,6 C 4,8 km/h (1 Bft) 95,12 %
19.08.2019 16:29 21,6 C 23,9 C 21,1 C 76 % 1015,9 hPa 0,0 l/m 2,0 km/h (1 Bft) N 355 0 min 0,000 mm 0,6 UV-I 98 W/m 17,2 C 21,6 C 3,2 km/h (1 Bft) 97,30 %
19.08.2019 16:30 21,6 C 23,9 C 21,1 C 77 % 1015,9 hPa 0,0 l/m 1,0 km/h (0 Bft) N 355 0 min 0,000 mm 0,6 UV-I 88 W/m 17,4 C 21,6 C 1,6 km/h (1 Bft) 100,00 %
19.08.2019 16:32 21,6 C 23,9 C 20,6 C 77 % 1015,9 hPa 0,0 l/m 1,2 km/h (1 Bft) N 355 0 min 0,000 mm 0,5 UV-I 81 W/m 17,4 C 21,6 C 3,2 km/h (1 Bft) 96,00 %
19.08.2019 16:34 21,4 C 23,9 C 20,6 C 77 % 1015,9 hPa 0,0 l/m 0,5 km/h (0 Bft) N 355 0 min 0,000 mm 0,2 UV-I 73 W/m 17,2 C 21,4 C 1,6 km/h (1 Bft) 96,00 %
19.08.2019 16:36 21,4 C 23,9 C 20,6 C 78 % 1015,8 hPa 0,0 l/m 0,1 km/h (0 Bft) N 355 0 min 0,000 mm 0,0 UV-I 67 W/m 17,4 C 21,4 C 1,6 km/h (1 Bft) 97,87 %
19.08.2019 16:38 21,4 C 23,9 C 20,6 C 79 % 1015,8 hPa 0,0 l/m 0,0 km/h (0 Bft) N 355 0 min 0,000 mm 0,0 UV-I 65 W/m 17,6 C 21,4 C 1,6 km/h (1 Bft) 100,00 %
19.08.2019 16:40 21,3 C 23,9 C 21,1 C 79 % 1015,9 hPa 0,0 l/m 0,0 km/h (0 Bft) N 355 0 min 0,000 mm 0,0 UV-I 64 W/m 17,5 C 21,3 C 0,0 km/h (0 Bft) 95,38 %
19.08.2019 16:42 21,4 C 23,9 C 21,1 C 79 % 1015,9 hPa 0,0 l/m 0,7 km/h (0 Bft) N 355 0 min 0,000 mm 0,0 UV-I 60 W/m 17,6 C 21,4 C 3,2 km/h (1 Bft) 97,87 %
19.08.2019 16:44 21,4 C 23,9 C 21,1 C 79 % 1015,9 hPa 0,0 l/m 1,4 km/h (1 Bft) N 355 0 min 0,000 mm 0,0 UV-I 55 W/m 17,6 C 21,4 C 3,2 km/h (1 Bft) 97,87 %
19.08.2019 16:46 21,4 C 23,9 C 21,7 C 81 % 1016,0 hPa 0,0 l/m 0,5 km/h (0 Bft) N 355 0 min 0,000 mm 0,0 UV-I 54 W/m 18,0 C 21,4 C 1,6 km/h (1 Bft) 96,00 %
19.08.2019 16:48 21,4 C 23,9 C 21,7 C 80 % 1016,0 hPa 0,0 l/m 0,5 km/h (0 Bft) N 355 0 min 0,000 mm 0,0 UV-I 58 W/m 17,8 C 21,4 C 1,6 km/h (1 Bft) 95,74 %
19.08.2019 16:50 21,5 C 23,9 C 21,7 C 80 % 1016,1 hPa 0,0 l/m 1,2 km/h (1 Bft) N 355 0 min 0,000 mm 0,0 UV-I 61 W/m 17,9 C 21,5 C 1,6 km/h (1 Bft) 100,00 %
19.08.2019 16:52 21,6 C 23,9 C 22,2 C 84 % 1016,1 hPa 0,0 l/m 1,1 km/h (1 Bft) N 355 0 min 0,000 mm 0,0 UV-I 66 W/m 18,8 C 21,6 C 1,6 km/h (1 Bft) 98,11 %
19.08.2019 16:54 21,4 C 23,9 C 22,2 C 84 % 1016,1 hPa 0,0 l/m 1,8 km/h (1 Bft) N-NO 19 0 min 0,000 mm 0,0 UV-I 71 W/m 18,6 C 21,4 C 3,2 km/h (1 Bft) 98,00 %
19.08.2019 16:56 21,3 C 23,9 C 22,2 C 84 % 1016,1 hPa 0,0 l/m 3,8 km/h (1 Bft) O-SO 115 0 min 0,000 mm 0,0 UV-I 77 W/m 18,5 C 21,3 C 4,8 km/h (1 Bft) 95,12 %
19.08.2019 16:58 21,2 C 23,9 C 22,2 C 85 % 1016,1 hPa 0,0 l/m 3,5 km/h (1 Bft) O-SO 115 0 min 0,000 mm 0,0 UV-I 82 W/m 18,6 C 21,2 C 4,8 km/h (1 Bft) 97,87 %
19.08.2019 17:00 21,1 C 23,9 C 22,8 C 87 % 1016,1 hPa 0,0 l/m 2,5 km/h (1 Bft) O-SO 116 0 min 0,000 mm 0,0 UV-I 82 W/m 18,8 C 21,1 C 3,2 km/h (1 Bft) 96,00 %
19.08.2019 17:02 21,1 C 23,9 C 22,8 C 87 % 1016,1 hPa 0,0 l/m 1,6 km/h (1 Bft) O-SO 116 0 min 0,051 mm 0,0 UV-I 78 W/m 18,8 C 21,1 C 3,2 km/h (1 Bft) 98,00 %
19.08.2019 17:04 21,2 C 23,9 C 22,2 C 86 % 1016,1 hPa 0,0 l/m 1,6 km/h (1 Bft) O-SO 116 0 min 0,000 mm 0,0 UV-I 71 W/m 18,8 C 21,2 C 3,2 km/h (1 Bft) 95,74 %
19.08.2019 17:06 21,1 C 23,9 C 22,2 C 85 % 1016,1 hPa 0,0 l/m 1,4 km/h (1 Bft) O-SO 116 0 min 0,000 mm 0,0 UV-I 69 W/m 18,5 C 21,1 C 3,2 km/h (1 Bft) 97,37 %
19.08.2019 17:08 21,1 C 23,9 C 22,2 C 86 % 1016,1 hPa 0,0 l/m 0,9 km/h (0 Bft) O-SO 116 0 min 0,000 mm 0,0 UV-I 70 W/m 18,7 C 21,1 C 3,2 km/h (1 Bft) 98,21 %
19.08.2019 17:10 21,1 C 23,9 C 22,2 C 85 % 1016,2 hPa 0,0 l/m 1,9 km/h (1 Bft) O-SO 117 0 min 0,000 mm 0,0 UV-I 72 W/m 18,5 C 21,1 C 3,2 km/h (1 Bft) 97,87 %
19.08.2019 17:12 21,2 C 23,9 C 22,2 C 84 % 1016,2 hPa 0,0 l/m 2,9 km/h (1 Bft) O-SO 117 0 min 0,000 mm 0,0 UV-I 72 W/m 18,4 C 21,2 C 3,2 km/h (1 Bft) 97,44 %
19.08.2019 17:14 21,2 C 23,9 C 22,2 C 83 % 1016,3 hPa 0,0 l/m 3,4 km/h (1 Bft) O-SO 123 0 min 0,000 mm 0,0 UV-I 71 W/m 18,2 C 21,2 C 4,8 km/h (1 Bft) 98,08 %
19.08.2019 17:16 21,2 C 23,9 C 22,2 C 83 % 1016,4 hPa 0,0 l/m 3,4 km/h (1 Bft) S 179 0 min 0,000 mm 0,0 UV-I 70 W/m 18,2 C 21,2 C 4,8 km/h (1 Bft) 96,08 %
19.08.2019 17:18 21,2 C 23,9 C 22,2 C 83 % 1016,3 hPa 0,0 l/m 2,5 km/h (1 Bft) S 179 0 min 0,000 mm 0,0 UV-I 67 W/m 18,2 C 21,2 C 3,2 km/h (1 Bft) 100,00 %
19.08.2019 17:20 21,2 C 23,9 C 22,2 C 83 % 1016,3 hPa 0,0 l/m 3,5 km/h (1 Bft) S 185 0 min 0,000 mm 0,0 UV-I 63 W/m 18,2 C 21,2 C 4,8 km/h (1 Bft) 98,11 %
19.08.2019 17:22 21,1 C 23,9 C 21,7 C 83 % 1016,3 hPa 0,0 l/m 2,0 km/h (1 Bft) S 184 0 min 0,000 mm 0,0 UV-I 62 W/m 18,1 C 21,1 C 3,2 km/h (1 Bft) 100,00 %
19.08.2019 17:24 21,1 C 23,9 C 21,7 C 84 % 1016,4 hPa 0,0 l/m 1,0 km/h (0 Bft) S 184 0 min 0,000 mm 0,0 UV-I 65 W/m 18,3 C 21,1 C 1,6 km/h (1 Bft) 100,00 %
19.08.2019 17:26 21,1 C 23,9 C 21,7 C 85 % 1016,3 hPa 0,0 l/m 1,6 km/h (1 Bft) S 185 0 min 0,000 mm 0,0 UV-I 65 W/m 18,5 C 21,1 C 3,2 km/h (1 Bft) 98,11 %
19.08.2019 17:28 21,1 C 23,9 C 21,7 C 85 % 1016,3 hPa 0,0 l/m 0,8 km/h (0 Bft) S 185 0 min 0,000 mm 0,0 UV-I 60 W/m 18,5 C 21,1 C 1,6 km/h (1 Bft) 100,00 %
19.08.2019 17:30 21,1 C 23,9 C 21,1 C 86 % 1016,4 hPa 0,0 l/m 0,2 km/h (0 Bft) S 185 0 min 0,000 mm 0,0 UV-I 54 W/m 18,7 C 21,1 C 1,6 km/h (1 Bft) 100,00 %
19.08.2019 17:32 21,1 C 23,9 C 21,1 C 85 % 1016,3 hPa 0,2 l/m 0,3 km/h (0 Bft) S 185 0 min 0,000 mm 0,0 UV-I 51 W/m 18,5 C 21,1 C 1,6 km/h (1 Bft) 97,87 %
19.08.2019 17:34 21,2 C 23,9 C 21,1 C 85 % 1016,2 hPa 0,0 l/m 0,5 km/h (0 Bft) S 185 0 min 0,000 mm 0,0 UV-I 55 W/m 18,6 C 21,2 C 1,6 km/h (1 Bft) 100,00 %
19.08.2019 17:36 21,2 C 23,9 C 21,1 C 85 % 1016,2 hPa 0,0 l/m 1,0 km/h (0 Bft) S 185 0 min 0,000 mm 0,0 UV-I 61 W/m 18,6 C 21,2 C 3,2 km/h (1 Bft) 97,56 %
19.08.2019 17:38 21,1 C 23,9 C 21,1 C 86 % 1016,1 hPa 0,0 l/m 1,9 km/h (1 Bft) S 185 0 min 0,000 mm 0,0 UV-I 69 W/m 18,7 C 21,1 C 3,2 km/h (1 Bft) 100,00 %
19.08.2019 17:40 21,1 C 23,9 C 21,1 C 87 % 1016,0 hPa 0,0 l/m 2,4 km/h (1 Bft) S 185 0 min 0,000 mm 0,0 UV-I 77 W/m 18,8 C 21,1 C 3,2 km/h (1 Bft) 98,00 %
19.08.2019 17:42 21,0 C 23,9 C 21,1 C 87 % 1015,9 hPa 0,0 l/m 1,9 km/h (1 Bft) S 184 0 min 0,000 mm 0,0 UV-I 87 W/m 18,7 C 21,0 C 3,2 km/h (1 Bft) 100,00 %
19.08.2019 17:44 20,9 C 23,9 C 21,1 C 87 % 1015,9 hPa 0,0 l/m 1,2 km/h (1 Bft) S 185 0 min 0,000 mm 0,0 UV-I 92 W/m 18,7 C 20,9 C 1,6 km/h (1 Bft) 100,00 %
19.08.2019 17:46 20,9 C 23,9 C 21,1 C 86 % 1015,8 hPa 0,0 l/m 0,0 km/h (0 Bft) S 185 0 min 0,000 mm 0,0 UV-I 84 W/m 18,5 C 20,9 C 1,6 km/h (1 Bft) 100,00 %
19.08.2019 17:48 20,9 C 23,9 C 21,1 C 86 % 1015,8 hPa 0,0 l/m 0,5 km/h (0 Bft) S 184 0 min 0,000 mm 0,0 UV-I 71 W/m 18,5 C 20,9 C 3,2 km/h (1 Bft) 100,00 %
19.08.2019 17:50 20,8 C 23,9 C 21,1 C 86 % 1015,8 hPa 0,0 l/m 3,8 km/h (1 Bft) S 184 0 min 0,000 mm 0,0 UV-I 58 W/m 18,4 C 20,8 C 4,8 km/h (1 Bft) 100,00 %
19.08.2019 17:52 20,7 C 23,9 C 21,1 C 88 % 1015,9 hPa 0,0 l/m 4,6 km/h (1 Bft) S-SO 163 0 min 0,000 mm 0,0 UV-I 52 W/m 18,6 C 20,7 C 8,0 km/h (2 Bft) 100,00 %
19.08.2019 17:54 20,6 C 23,9 C 21,1 C 89 % 1015,9 hPa 0,0 l/m 6,3 km/h (2 Bft) S-SO 161 0 min 0,000 mm 0,0 UV-I 51 W/m 18,7 C 20,6 C 8,0 km/h (2 Bft) 98,00 %
19.08.2019 17:56 20,7 C 23,9 C 21,7 C 90 % 1015,9 hPa 0,0 l/m 4,6 km/h (1 Bft) SO 137 0 min 0,000 mm 0,0 UV-I 52 W/m 19,0 C 20,7 C 6,4 km/h (2 Bft) 100,00 %
19.08.2019 17:58 20,6 C 23,9 C 21,7 C 90 % 1015,9 hPa 0,0 l/m 4,2 km/h (1 Bft) SO 137 0 min 0,000 mm 0,0 UV-I 56 W/m 18,9 C 20,6 C 4,8 km/h (1 Bft) 100,00 %
19.08.2019 18:00 20,5 C 23,9 C 21,7 C 91 % 1015,9 hPa 0,0 l/m 3,4 km/h (1 Bft) SO 137 0 min 0,050 mm 0,0 UV-I 63 W/m 19,0 C 20,5 C 4,8 km/h (1 Bft) 98,11 %
19.08.2019 18:02 20,4 C 23,9 C 21,7 C 90 % 1015,9 hPa 0,0 l/m 2,5 km/h (1 Bft) SO 137 0 min 0,000 mm 0,0 UV-I 71 W/m 18,7 C 20,4 C 3,2 km/h (1 Bft) 100,00 %
19.08.2019 18:04 20,3 C 23,9 C 21,7 C 90 % 1015,9 hPa 0,0 l/m 1,1 km/h (1 Bft) SO 137 0 min 0,000 mm 0,0 UV-I 76 W/m 18,6 C 20,3 C 1,6 km/h (1 Bft) 97,73 %
19.08.2019 18:06 20,4 C 23,9 C 22,2 C 90 % 1015,9 hPa 0,0 l/m 1,6 km/h (1 Bft) SO 137 0 min 0,000 mm 0,0 UV-I 73 W/m 18,7 C 20,4 C 3,2 km/h (1 Bft) 98,00 %
19.08.2019 18:08 20,6 C 23,9 C 22,2 C 90 % 1016,0 hPa 0,0 l/m 2,4 km/h (1 Bft) SO 138 0 min 0,000 mm 0,0 UV-I 65 W/m 18,9 C 20,6 C 3,2 km/h (1 Bft) 100,00 %
19.08.2019 18:10 20,6 C 23,9 C 22,2 C 90 % 1016,0 hPa 0,0 l/m 3,3 km/h (1 Bft) SO 141 0 min 0,000 mm 0,0 UV-I 57 W/m 18,9 C 20,6 C 4,8 km/h (1 Bft) 100,00 %
19.08.2019 18:12 20,7 C 23,9 C 22,2 C 90 % 1016,1 hPa 0,0 l/m 2,3 km/h (1 Bft) SO 141 0 min 0,000 mm 0,0 UV-I 53 W/m 19,0 C 20,7 C 3,2 km/h (1 Bft) 100,00 %
19.08.2019 18:14 20,7 C 23,9 C 22,2 C 90 % 1016,1 hPa 0,0 l/m 2,9 km/h (1 Bft) SO 142 0 min 0,000 mm 0,0 UV-I 52 W/m 19,0 C 20,7 C 3,2 km/h (1 Bft) 98,11 %
19.08.2019 18:16 20,7 C 23,9 C 22,2 C 90 % 1016,1 hPa 0,0 l/m 2,7 km/h (1 Bft) SO 144 0 min 0,000 mm 0,0 UV-I 49 W/m 19,0 C 20,7 C 4,8 km/h (1 Bft) 97,37 %
19.08.2019 18:18 20,7 C 23,9 C 22,2 C 89 % 1016,1 hPa 0,0 l/m 2,7 km/h (1 Bft) SO 145 0 min 0,000 mm 0,0 UV-I 47 W/m 18,8 C 20,7 C 4,8 km/h (1 Bft) 100,00 %
19.08.2019 18:20 20,8 C 23,9 C 22,2 C 89 % 1016,0 hPa 0,0 l/m 3,3 km/h (1 Bft) SO 145 0 min 0,000 mm 0,0 UV-I 46 W/m 18,9 C 20,8 C 4,8 km/h (1 Bft) 96,00 %
19.08.2019 18:22 20,7 C 23,9 C 21,7 C 89 % 1016,0 hPa 0,0 l/m 4,5 km/h (1 Bft) S-SO 148 0 min 0,000 mm 0,0 UV-I 42 W/m 18,8 C 20,7 C 6,4 km/h (2 Bft) 93,62 %
19.08.2019 18:24 20,7 C 23,9 C 21,7 C 89 % 1015,9 hPa 0,0 l/m 6,0 km/h (2 Bft) SO 142 0 min 0,000 mm 0,0 UV-I 35 W/m 18,8 C 20,7 C 8,0 km/h (2 Bft) 97,87 %
19.08.2019 18:26 20,7 C 23,9 C 21,7 C 89 % 1015,9 hPa 0,0 l/m 7,2 km/h (2 Bft) SO 138 0 min 0,000 mm 0,0 UV-I 31 W/m 18,8 C 20,4 C 11,3 km/h (2 Bft) 95,74 %
19.08.2019 18:28 20,7 C 23,9 C 21,7 C 89 % 1015,9 hPa 0,0 l/m 7,1 km/h (2 Bft) S-SO 148 0 min 0,000 mm 0,0 UV-I 27 W/m 18,8 C 20,4 C 12,9 km/h (3 Bft) 94,87 %
19.08.2019 18:30 20,7 C 23,9 C 21,1 C 88 % 1015,8 hPa 0,0 l/m 6,6 km/h (2 Bft) SO 142 0 min 0,000 mm 0,0 UV-I 31 W/m 18,6 C 20,6 C 11,3 km/h (2 Bft) 98,08 %
19.08.2019 18:32 20,6 C 23,9 C 21,1 C 88 % 1015,8 hPa 0,0 l/m 7,6 km/h (2 Bft) S 172 0 min 0,000 mm 0,0 UV-I 38 W/m 18,5 C 20,1 C 9,7 km/h (2 Bft) 94,87 %
19.08.2019 18:34 20,6 C 23,9 C 21,1 C 88 % 1015,8 hPa 0,0 l/m 7,4 km/h (2 Bft) S 170 0 min 0,000 mm 0,0 UV-I 42 W/m 18,5 C 20,2 C 9,7 km/h (2 Bft) 96,43 %
19.08.2019 18:36 20,6 C 23,9 C 21,1 C 87 % 1015,9 hPa 0,0 l/m 5,3 km/h (1 Bft) SO 144 0 min 0,000 mm 0,0 UV-I 46 W/m 18,4 C 20,6 C 8,0 km/h (2 Bft) 93,62 %
19.08.2019 18:38 20,6 C 23,9 C 21,1 C 87 % 1015,9 hPa 0,0 l/m 6,4 km/h (2 Bft) SO 138 0 min 0,000 mm 0,0 UV-I 52 W/m 18,4 C 20,6 C 11,3 km/h (2 Bft) 95,12 %
19.08.2019 18:40 20,6 C 23,9 C 21,7 C 86 % 1015,8 hPa 0,0 l/m 5,5 km/h (1 Bft) SO 130 0 min 0,000 mm 0,0 UV-I 56 W/m 18,2 C 20,6 C 8,0 km/h (2 Bft) 94,34 %
19.08.2019 18:42 20,7 C 23,9 C 21,7 C 86 % 1015,9 hPa 0,0 l/m 6,1 km/h (2 Bft) S-SO 153 0 min 0,000 mm 0,0 UV-I 63 W/m 18,3 C 20,7 C 8,0 km/h (2 Bft) 96,00 %
19.08.2019 18:44 20,7 C 23,9 C 21,7 C 86 % 1015,9 hPa 0,0 l/m 4,8 km/h (1 Bft) S-SO 149 0 min 0,000 mm 0,0 UV-I 70 W/m 18,3 C 20,7 C 6,4 km/h (2 Bft) 88,46 %
19.08.2019 18:46 20,7 C 23,9 C 21,7 C 84 % 1015,9 hPa 0,0 l/m 2,7 km/h (1 Bft) S-SO 153 0 min 0,000 mm 0,0 UV-I 78 W/m 17,9 C 20,7 C 4,8 km/h (1 Bft) 94,12 %
19.08.2019 18:48 20,8 C 23,9 C 22,2 C 84 % 1016,0 hPa 0,0 l/m 2,7 km/h (1 Bft) S-SO 156 0 min 0,000 mm 0,0 UV-I 91 W/m 18,0 C 20,8 C 4,8 km/h (1 Bft) 94,74 %
19.08.2019 18:50 20,8 C 23,9 C 22,2 C 84 % 1015,9 hPa 0,0 l/m 2,8 km/h (1 Bft) S-SO 159 0 min 0,000 mm 0,0 UV-I 101 W/m 18,0 C 20,8 C 6,4 km/h (2 Bft) 92,00 %
19.08.2019 18:52 20,8 C 23,9 C 22,2 C 83 % 1016,0 hPa 0,0 l/m 6,0 km/h (2 Bft) S 169 0 min 0,000 mm 0,0 UV-I 109 W/m 17,8 C 20,8 C 8,0 km/h (2 Bft) 96,00 %
19.08.2019 18:54 20,8 C 23,9 C 22,2 C 83 % 1015,9 hPa 0,0 l/m 5,7 km/h (1 Bft) S-SO 166 2 min 0,000 mm 0,0 UV-I 111 W/m 17,8 C 20,8 C 8,0 km/h (2 Bft) 97,87 %
19.08.2019 18:56 20,8 C 23,9 C 22,2 C 83 % 1015,9 hPa 0,0 l/m 5,9 km/h (2 Bft) S-SO 163 2 min 0,000 mm 0,0 UV-I 109 W/m 17,8 C 20,8 C 8,0 km/h (2 Bft) 97,87 %
19.08.2019 18:59 20,9 C 23,9 C 22,2 C 83 % 1015,8 hPa 0,0 l/m 6,2 km/h (2 Bft) SO 145 0 min 0,000 mm 0,0 UV-I 97 W/m 17,9 C 20,9 C 9,7 km/h (2 Bft) 97,06 %
19.08.2019 19:00 20,9 C 23,9 C 22,2 C 83 % 1015,8 hPa 0,0 l/m 7,6 km/h (2 Bft) SO 140 0 min 0,000 mm 0,0 UV-I 89 W/m 17,9 C 20,4 C 11,3 km/h (2 Bft) 100,00 %
19.08.2019 19:02 20,9 C 23,9 C 22,2 C 83 % 1015,8 hPa 0,0 l/m 6,0 km/h (2 Bft) SO 142 0 min 0,051 mm 0,0 UV-I 85 W/m 17,9 C 20,9 C 9,7 km/h (2 Bft) 97,37 %
19.08.2019 19:04 20,9 C 23,9 C 22,2 C 84 % 1015,8 hPa 0,0 l/m 5,8 km/h (2 Bft) SO 143 0 min 0,000 mm 0,0 UV-I 83 W/m 18,1 C 20,9 C 8,0 km/h (2 Bft) 98,00 %
19.08.2019 19:06 20,9 C 23,9 C 22,2 C 83 % 1015,8 hPa 0,0 l/m 6,8 km/h (2 Bft) SO 137 2 min 0,000 mm 0,0 UV-I 107 W/m 17,9 C 20,8 C 8,0 km/h (2 Bft) 97,87 %
19.08.2019 19:08 21,0 C 23,9 C 22,2 C 84 % 1015,8 hPa 0,0 l/m 6,1 km/h (2 Bft) SO 144 2 min 0,000 mm 0,0 UV-I 138 W/m 18,2 C 21,0 C 8,0 km/h (2 Bft) 97,87 %
19.08.2019 19:10 21,1 C 23,9 C 22,2 C 83 % 1015,9 hPa 0,0 l/m 5,9 km/h (2 Bft) S-SO 153 2 min 0,000 mm 0,0 UV-I 140 W/m 18,1 C 21,1 C 8,0 km/h (2 Bft) 96,00 %
19.08.2019 19:12 21,1 C 23,9 C 22,2 C 82 % 1015,9 hPa 0,0 l/m 5,4 km/h (1 Bft) S-SO 149 2 min 0,000 mm 0,0 UV-I 112 W/m 17,9 C 21,1 C 8,0 km/h (2 Bft) 97,92 %
19.08.2019 19:14 21,2 C 23,9 C 22,2 C 82 % 1016,0 hPa 0,0 l/m 6,5 km/h (2 Bft) S-SO 151 2 min 0,000 mm 0,0 UV-I 140 W/m 18,0 C 21,2 C 9,7 km/h (2 Bft) 96,00 %
19.08.2019 19:16 21,2 C 23,9 C 22,8 C 82 % 1016,0 hPa 0,0 l/m 3,9 km/h (1 Bft) S-SO 163 2 min 0,000 mm 0,0 UV-I 141 W/m 18,0 C 21,2 C 8,0 km/h (2 Bft) 100,00 %
19.08.2019 19:18 21,3 C 23,9 C 22,8 C 81 % 1016,1 hPa 0,0 l/m 2,5 km/h (1 Bft) S-SO 163 2 min 0,000 mm 0,0 UV-I 138 W/m 17,9 C 21,3 C 6,4 km/h (2 Bft) 95,16 %
19.08.2019 19:20 21,3 C 23,9 C 22,8 C 81 % 1016,0 hPa 0,0 l/m 2,4 km/h (1 Bft) S-SO 163 2 min 0,000 mm 0,0 UV-I 131 W/m 17,9 C 21,3 C 6,4 km/h (2 Bft) 97,87 %
19.08.2019 19:22 21,4 C 23,9 C 22,8 C 81 % 1016,0 hPa 0,0 l/m 1,6 km/h (1 Bft) S-SO 163 2 min 0,000 mm 0,0 UV-I 126 W/m 18,0 C 21,4 C 3,2 km/h (1 Bft) 97,87 %
19.08.2019 19:24 21,4 C 23,9 C 22,8 C 81 % 1016,1 hPa 0,0 l/m 1,0 km/h (0 Bft) S-SO 163 2 min 0,000 mm 0,0 UV-I 120 W/m 18,0 C 21,4 C 1,6 km/h (1 Bft) 98,00 %
19.08.2019 19:26 21,4 C 23,9 C 22,8 C 81 % 1016,1 hPa 0,0 l/m 0,6 km/h (0 Bft) S-SO 163 2 min 0,000 mm 0,0 UV-I 114 W/m 18,0 C 21,4 C 3,2 km/h (1 Bft) 98,00 %
19.08.2019 19:28 21,4 C 23,9 C 22,8 C 79 % 1016,2 hPa 0,0 l/m 2,4 km/h (1 Bft) S-SO 164 2 min 0,000 mm 0,0 UV-I 109 W/m 17,6 C 21,4 C 3,2 km/h (1 Bft) 97,87 %
19.08.2019 19:30 21,4 C 23,9 C 22,8 C 80 % 1016,2 hPa 0,0 l/m 1,8 km/h (1 Bft) S-SO 164 2 min 0,000 mm 0,0 UV-I 102 W/m 17,8 C 21,4 C 3,2 km/h (1 Bft) 95,74 %
19.08.2019 19:32 21,5 C 23,9 C 22,8 C 79 % 1016,1 hPa 0,0 l/m 3,2 km/h (1 Bft) S-SO 164 2 min 0,000 mm 0,0 UV-I 95 W/m 17,7 C 21,5 C 6,4 km/h (2 Bft) 97,87 %
19.08.2019 19:34 21,5 C 23,9 C 22,2 C 78 % 1016,2 hPa 0,0 l/m 2,6 km/h (1 Bft) S-SO 165 2 min 0,000 mm 0,0 UV-I 89 W/m 17,5 C 21,5 C 3,2 km/h (1 Bft) 97,87 %
19.08.2019 19:36 21,5 C 23,9 C 22,2 C 79 % 1016,2 hPa 0,0 l/m 2,1 km/h (1 Bft) S-SO 159 2 min 0,000 mm 0,0 UV-I 85 W/m 17,7 C 21,5 C 3,2 km/h (1 Bft) 97,37 %
19.08.2019 19:38 21,5 C 23,9 C 22,2 C 78 % 1016,2 hPa 0,0 l/m 3,3 km/h (1 Bft) S-SO 165 2 min 0,000 mm 0,0 UV-I 80 W/m 17,5 C 21,5 C 6,4 km/h (2 Bft) 98,21 %
19.08.2019 19:40 21,5 C 23,9 C 22,2 C 78 % 1016,3 hPa 0,0 l/m 5,2 km/h (1 Bft) S-SO 167 2 min 0,000 mm 0,0 UV-I 75 W/m 17,5 C 21,5 C 8,0 km/h (2 Bft) 95,74 %
19.08.2019 19:42 21,4 C 23,9 C 22,2 C 78 % 1016,3 hPa 0,0 l/m 4,4 km/h (1 Bft) S-SO 166 2 min 0,000 mm 0,0 UV-I 71 W/m 17,4 C 21,4 C 6,4 km/h (2 Bft) 97,44 %
19.08.2019 19:44 21,4 C 23,9 C 21,7 C 79 % 1016,2 hPa 0,0 l/m 4,3 km/h (1 Bft) S 171 2 min 0,000 mm 0,0 UV-I 67 W/m 17,6 C 21,4 C 8,0 km/h (2 Bft) 98,18 %
19.08.2019 19:46 21,3 C 23,9 C 21,7 C 79 % 1016,2 hPa 0,0 l/m 3,9 km/h (1 Bft) S 169 2 min 0,000 mm 0,0 UV-I 62 W/m 17,5 C 21,3 C 8,0 km/h (2 Bft) 97,44 %
19.08.2019 19:48 21,3 C 23,9 C 21,7 C 80 % 1016,3 hPa 0,0 l/m 5,2 km/h (1 Bft) S 171 2 min 0,000 mm 0,0 UV-I 54 W/m 17,7 C 21,3 C 8,0 km/h (2 Bft) 97,87 %
19.08.2019 19:50 21,2 C 23,9 C 21,1 C 80 % 1016,3 hPa 0,0 l/m 2,7 km/h (1 Bft) S 170 2 min 0,000 mm 0,0 UV-I 40 W/m 17,6 C 21,2 C 6,4 km/h (2 Bft) 96,23 %
19.08.2019 19:52 21,1 C 23,9 C 21,1 C 81 % 1016,4 hPa 0,0 l/m 2,8 km/h (1 Bft) S 170 2 min 0,000 mm 0,0 UV-I 31 W/m 17,7 C 21,1 C 6,4 km/h (2 Bft) 97,37 %
19.08.2019 19:54 21,1 C 23,9 C 21,1 C 81 % 1016,4 hPa 0,0 l/m 3,3 km/h (1 Bft) S 170 2 min 0,000 mm 0,0 UV-I 27 W/m 17,7 C 21,1 C 6,4 km/h (2 Bft) 97,87 %
19.08.2019 19:56 21,0 C 23,9 C 21,1 C 81 % 1016,5 hPa 0,0 l/m 2,2 km/h (1 Bft) S 170 2 min 0,000 mm 0,0 UV-I 24 W/m 17,6 C 21,0 C 3,2 km/h (1 Bft) 96,43 %
19.08.2019 19:58 20,9 C 23,9 C 21,1 C 82 % 1016,5 hPa 0,0 l/m 1,9 km/h (1 Bft) S 189 2 min 0,000 mm 0,0 UV-I 22 W/m 17,7 C 20,9 C 3,2 km/h (1 Bft) 100,00 %
19.08.2019 20:00 20,9 C 23,9 C 20,6 C 82 % 1016,5 hPa 0,0 l/m 1,2 km/h (1 Bft) S-SO 166 2 min 0,000 mm 0,0 UV-I 20 W/m 17,7 C 20,9 C 4,8 km/h (1 Bft) 97,56 %
19.08.2019 20:02 20,9 C 23,9 C 20,6 C 82 % 1016,6 hPa 0,0 l/m 0,4 km/h (0 Bft) NO 50 0 min 0,076 mm 0,0 UV-I 17 W/m 17,7 C 20,9 C 1,6 km/h (1 Bft) 98,00 %
19.08.2019 20:04 20,8 C 23,9 C 20,6 C 82 % 1016,6 hPa 0,0 l/m 0,4 km/h (0 Bft) NO 50 0 min 0,000 mm 0,0 UV-I 15 W/m 17,6 C 20,8 C 1,6 km/h (1 Bft) 96,23 %
19.08.2019 20:06 20,7 C 23,9 C 20,0 C 82 % 1016,7 hPa 0,0 l/m 0,0 km/h (0 Bft) NO 50 0 min 0,000 mm 0,0 UV-I 12 W/m 17,5 C 20,7 C 1,6 km/h (1 Bft) 97,56 %
19.08.2019 20:08 20,6 C 23,9 C 20,0 C 83 % 1016,7 hPa 0,0 l/m 1,0 km/h (0 Bft) NO 50 0 min 0,000 mm 0,0 UV-I 10 W/m 17,6 C 20,6 C 1,6 km/h (1 Bft) 97,87 %
19.08.2019 20:10 20,6 C 23,9 C 19,4 C 84 % 1016,7 hPa 0,0 l/m 2,8 km/h (1 Bft) NO 51 0 min 0,000 mm 0,0 UV-I 9 W/m 17,8 C 20,6 C 4,8 km/h (1 Bft) 97,56 %
19.08.2019 20:12 20,4 C 23,9 C 19,4 C 84 % 1016,7 hPa 0,0 l/m 3,9 km/h (1 Bft) SO 128 0 min 0,000 mm 0,0 UV-I 7 W/m 17,6 C 20,4 C 6,4 km/h (2 Bft) 98,18 %
19.08.2019 20:14 20,3 C 23,9 C 19,4 C 85 % 1016,7 hPa 0,0 l/m 2,1 km/h (1 Bft) SO 130 0 min 0,000 mm 0,0 UV-I 7 W/m 17,7 C 20,3 C 4,8 km/h (1 Bft) 95,74 %
19.08.2019 20:16 20,2 C 23,9 C 19,4 C 85 % 1016,6 hPa 0,0 l/m 3,3 km/h (1 Bft) SO 134 0 min 0,000 mm 0,0 UV-I 7 W/m 17,6 C 20,2 C 6,4 km/h (2 Bft) 98,00 %
19.08.2019 20:18 20,1 C 23,9 C 18,9 C 85 % 1016,6 hPa 0,0 l/m 5,2 km/h (1 Bft) SO 142 0 min 0,000 mm 0,0 UV-I 5 W/m 17,5 C 20,1 C 8,0 km/h (2 Bft) 97,37 %
19.08.2019 20:20 20,1 C 23,9 C 19,4 C 86 % 1016,5 hPa 0,0 l/m 5,4 km/h (1 Bft) SO 132 0 min 0,000 mm 0,0 UV-I 5 W/m 17,7 C 20,1 C 9,7 km/h (2 Bft) 94,00 %
19.08.2019 20:22 20,1 C 23,9 C 19,4 C 85 % 1016,6 hPa 0,0 l/m 5,3 km/h (1 Bft) O-SO 123 0 min 0,000 mm 0,0 UV-I 5 W/m 17,5 C 20,1 C 9,7 km/h (2 Bft) 95,24 %
19.08.2019 20:24 20,1 C 23,9 C 19,4 C 85 % 1016,6 hPa 0,0 l/m 5,3 km/h (1 Bft) SO 130 0 min 0,000 mm 0,0 UV-I 4 W/m 17,5 C 20,1 C 8,0 km/h (2 Bft) 96,23 %
19.08.2019 20:26 20,0 C 23,9 C 18,9 C 86 % 1016,6 hPa 0,0 l/m 6,0 km/h (2 Bft) S-SO 150 0 min 0,000 mm 0,0 UV-I 0 W/m 17,6 C 20,0 C 8,0 km/h (2 Bft) 97,56 %
19.08.2019 20:28 20,0 C 23,9 C 18,9 C 86 % 1016,5 hPa 0,0 l/m 7,2 km/h (2 Bft) SO 134 0 min 0,000 mm 0,0 UV-I 0 W/m 17,6 C 19,7 C 11,3 km/h (2 Bft) 98,00 %
19.08.2019 20:30 19,9 C 23,9 C 18,9 C 86 % 1016,5 hPa 0,0 l/m 7,6 km/h (2 Bft) SO 138 0 min 0,000 mm 0,0 UV-I 0 W/m 17,5 C 19,4 C 11,3 km/h (2 Bft) 98,11 %
19.08.2019 20:32 19,9 C 23,9 C 18,9 C 86 % 1016,5 hPa 0,0 l/m 5,7 km/h (1 Bft) SO 132 0 min 0,000 mm 0,0 UV-I 0 W/m 17,5 C 19,9 C 11,3 km/h (2 Bft) 97,56 %
19.08.2019 20:34 19,8 C 23,9 C 18,9 C 86 % 1016,5 hPa 0,0 l/m 4,7 km/h (1 Bft) SO 142 0 min 0,000 mm 0,0 UV-I 0 W/m 17,4 C 19,8 C 6,4 km/h (2 Bft) 97,87 %
19.08.2019 20:36 19,8 C 23,9 C 18,3 C 86 % 1016,6 hPa 0,0 l/m 3,4 km/h (1 Bft) SO 142 0 min 0,000 mm 0,0 UV-I 0 W/m 17,4 C 19,8 C 6,4 km/h (2 Bft) 96,00 %
19.08.2019 20:38 19,8 C 23,9 C 18,3 C 87 % 1016,7 hPa 0,0 l/m 2,2 km/h (1 Bft) SO 142 0 min 0,000 mm 0,0 UV-I 0 W/m 17,6 C 19,8 C 3,2 km/h (1 Bft) 97,87 %
19.08.2019 20:40 19,7 C 23,9 C 18,3 C 87 % 1016,8 hPa 0,0 l/m 2,4 km/h (1 Bft) SO 142 0 min 0,000 mm 0,0 UV-I 0 W/m 17,5 C 19,7 C 3,2 km/h (1 Bft) 97,37 %
19.08.2019 20:42 19,6 C 23,3 C 17,8 C 87 % 1016,8 hPa 0,0 l/m 1,6 km/h (1 Bft) SO 142 0 min 0,000 mm 0,0 UV-I 0 W/m 17,4 C 19,6 C 3,2 km/h (1 Bft) 98,31 %
19.08.2019 20:44 19,6 C 23,9 C 17,8 C 88 % 1017,0 hPa 0,0 l/m 1,1 km/h (1 Bft) SO 142 0 min 0,000 mm 0,0 UV-I 0 W/m 17,6 C 19,6 C 3,2 km/h (1 Bft) 97,87 %
19.08.2019 20:46 19,6 C 23,9 C 17,8 C 87 % 1017,0 hPa 0,0 l/m 2,1 km/h (1 Bft) SO 142 0 min 0,000 mm 0,0 UV-I 0 W/m 17,4 C 19,6 C 3,2 km/h (1 Bft) 94,74 %
19.08.2019 20:48 19,6 C 23,9 C 17,2 C 88 % 1017,0 hPa 0,0 l/m 1,5 km/h (1 Bft) SO 142 0 min 0,000 mm 0,0 UV-I 0 W/m 17,6 C 19,6 C 3,2 km/h (1 Bft) 98,00 %
19.08.2019 20:50 19,6 C 23,3 C 17,2 C 88 % 1017,1 hPa 0,0 l/m 0,8 km/h (0 Bft) SO 142 0 min 0,000 mm 0,0 UV-I 0 W/m 17,6 C 19,6 C 1,6 km/h (1 Bft) 98,11 %
19.08.2019 20:52 19,5 C 23,3 C 17,2 C 88 % 1017,1 hPa 0,0 l/m 0,0 km/h (0 Bft) SO 142 0 min 0,000 mm 0,0 UV-I 0 W/m 17,5 C 19,5 C 0,0 km/h (0 Bft) 97,87 %
19.08.2019 20:54 19,4 C 23,3 C 17,2 C 88 % 1017,1 hPa 0,0 l/m 0,0 km/h (0 Bft) SO 142 0 min 0,000 mm 0,0 UV-I 0 W/m 17,4 C 19,4 C 0,0 km/h (0 Bft) 100,00 %
19.08.2019 20:56 19,4 C 23,3 C 16,7 C 88 % 1017,2 hPa 0,0 l/m 0,0 km/h (0 Bft) SO 142 0 min 0,000 mm 0,0 UV-I 0 W/m 17,4 C 19,4 C 0,0 km/h (0 Bft) 97,87 %
19.08.2019 20:58 19,3 C 23,3 C 16,7 C 88 % 1017,2 hPa 0,0 l/m 0,0 km/h (0 Bft) SO 142 0 min 0,000 mm 0,0 UV-I 0 W/m 17,3 C 19,3 C 0,0 km/h (0 Bft) 100,00 %
19.08.2019 21:00 19,1 C 23,3 C 16,7 C 88 % 1017,1 hPa 0,0 l/m 0,7 km/h (0 Bft) SO 142 0 min 0,000 mm 0,0 UV-I 0 W/m 17,1 C 19,1 C 1,6 km/h (1 Bft) 97,44 %
19.08.2019 21:02 18,7 C 23,3 C 16,7 C 89 % 1017,1 hPa 0,0 l/m 1,8 km/h (1 Bft) SO 142 0 min 0,000 mm 0,0 UV-I 0 W/m 16,8 C 18,7 C 3,2 km/h (1 Bft) 100,00 %
19.08.2019 21:04 18,6 C 23,3 C 16,7 C 90 % 1017,2 hPa 0,0 l/m 1,4 km/h (1 Bft) SO 142 0 min 0,000 mm 0,0 UV-I 0 W/m 16,9 C 18,6 C 1,6 km/h (1 Bft) 100,00 %
19.08.2019 21:06 18,5 C 23,3 C 16,7 C 91 % 1017,1 hPa 0,0 l/m 1,6 km/h (1 Bft) SO 142 0 min 0,000 mm 0,0 UV-I 0 W/m 17,0 C 18,5 C 3,2 km/h (1 Bft) 100,00 %
19.08.2019 21:08 18,5 C 23,3 C 16,7 C 91 % 1017,1 hPa 0,0 l/m 2,2 km/h (1 Bft) SO 142 0 min 0,000 mm 0,0 UV-I 0 W/m 17,0 C 18,5 C 3,2 km/h (1 Bft) 95,74 %
19.08.2019 21:10 18,4 C 23,3 C 16,7 C 91 % 1017,1 hPa 0,0 l/m 2,1 km/h (1 Bft) SO 142 0 min 0,000 mm 0,0 UV-I 0 W/m 16,9 C 18,4 C 4,8 km/h (1 Bft) 100,00 %
19.08.2019 21:12 18,3 C 23,3 C 16,7 C 91 % 1017,1 hPa 0,0 l/m 2,5 km/h (1 Bft) SO 142 0 min 0,000 mm 0,0 UV-I 0 W/m 16,8 C 18,3 C 4,8 km/h (1 Bft) 95,74 %
19.08.2019 21:14 18,2 C 23,3 C 16,7 C 91 % 1017,2 hPa 0,0 l/m 1,9 km/h (1 Bft) SO 142 0 min 0,000 mm 0,0 UV-I 0 W/m 16,7 C 18,2 C 3,2 km/h (1 Bft) 100,00 %
19.08.2019 21:16 18,1 C 23,3 C 16,7 C 91 % 1017,2 hPa 0,0 l/m 2,1 km/h (1 Bft) SO 142 0 min 0,000 mm 0,0 UV-I 0 W/m 16,6 C 18,1 C 3,2 km/h (1 Bft) 100,00 %
19.08.2019 21:18 18,1 C 23,3 C 16,7 C 92 % 1017,2 hPa 0,0 l/m 1,3 km/h (1 Bft) SO 142 0 min 0,000 mm 0,0 UV-I 0 W/m 16,8 C 18,1 C 3,2 km/h (1 Bft) 97,87 %
19.08.2019 21:20 18,2 C 23,3 C 16,1 C 92 % 1017,3 hPa 0,0 l/m 1,1 km/h (1 Bft) SO 142 0 min 0,000 mm 0,0 UV-I 0 W/m 16,9 C 18,2 C 3,2 km/h (1 Bft) 100,00 %
19.08.2019 21:22 18,2 C 23,3 C 16,7 C 92 % 1017,2 hPa 0,0 l/m 0,3 km/h (0 Bft) SO 142 0 min 0,000 mm 0,0 UV-I 0 W/m 16,9 C 18,2 C 1,6 km/h (1 Bft) 100,00 %
19.08.2019 21:24 18,3 C 23,3 C 16,1 C 92 % 1017,3 hPa 0,0 l/m 1,1 km/h (1 Bft) SO 142 0 min 0,000 mm 0,0 UV-I 0 W/m 17,0 C 18,3 C 1,6 km/h (1 Bft) 100,00 %
19.08.2019 21:26 18,3 C 23,3 C 16,7 C 92 % 1017,4 hPa 0,0 l/m 2,4 km/h (1 Bft) SO 142 0 min 0,000 mm 0,0 UV-I 0 W/m 17,0 C 18,3 C 3,2 km/h (1 Bft) 100,00 %
19.08.2019 21:28 18,3 C 23,3 C 16,7 C 92 % 1017,4 hPa 0,0 l/m 2,6 km/h (1 Bft) SO 142 0 min 0,000 mm 0,0 UV-I 0 W/m 17,0 C 18,3 C 3,2 km/h (1 Bft) 100,00 %
19.08.2019 21:30 18,2 C 23,3 C 16,1 C 92 % 1017,4 hPa 0,0 l/m 1,9 km/h (1 Bft) SO 142 0 min 0,000 mm 0,0 UV-I 0 W/m 16,9 C 18,2 C 3,2 km/h (1 Bft) 98,00 %
19.08.2019 21:32 18,2 C 23,3 C 16,7 C 92 % 1017,4 hPa 0,0 l/m 3,0 km/h (1 Bft) SO 142 0 min 0,000 mm 0,0 UV-I 0 W/m 16,9 C 18,2 C 3,2 km/h (1 Bft) 97,87 %
19.08.2019 21:34 18,1 C 23,3 C 16,7 C 93 % 1017,4 hPa 0,0 l/m 3,6 km/h (1 Bft) SO 142 0 min 0,000 mm 0,0 UV-I 0 W/m 16,9 C 18,1 C 4,8 km/h (1 Bft) 97,22 %
19.08.2019 21:36 18,0 C 23,3 C 16,7 C 92 % 1017,4 hPa 0,0 l/m 3,3 km/h (1 Bft) SO 142 0 min 0,000 mm 0,0 UV-I 0 W/m 16,7 C 18,0 C 4,8 km/h (1 Bft) 96,00 %
19.08.2019 21:38 17,8 C 23,3 C 16,1 C 92 % 1017,4 hPa 0,0 l/m 2,5 km/h (1 Bft) SO 142 0 min 0,000 mm 0,0 UV-I 0 W/m 16,5 C 17,8 C 4,8 km/h (1 Bft) 98,00 %
19.08.2019 21:40 17,6 C 23,3 C 16,1 C 92 % 1017,4 hPa 0,0 l/m 1,8 km/h (1 Bft) SO 142 0 min 0,000 mm 0,0 UV-I 0 W/m 16,3 C 17,6 C 3,2 km/h (1 Bft) 97,37 %
19.08.2019 21:42 17,5 C 23,3 C 16,1 C 92 % 1017,4 hPa 0,0 l/m 2,0 km/h (1 Bft) SO 142 0 min 0,000 mm 0,0 UV-I 0 W/m 16,2 C 17,5 C 3,2 km/h (1 Bft) 98,21 %
19.08.2019 21:44 17,4 C 23,3 C 15,6 C 93 % 1017,4 hPa 0,0 l/m 2,0 km/h (1 Bft) SO 142 0 min 0,000 mm 0,0 UV-I 0 W/m 16,3 C 17,4 C 3,2 km/h (1 Bft) 98,00 %
19.08.2019 21:46 17,4 C 23,3 C 15,6 C 93 % 1017,4 hPa 0,0 l/m 2,0 km/h (1 Bft) SO 142 0 min 0,000 mm 0,0 UV-I 0 W/m 16,3 C 17,4 C 3,2 km/h (1 Bft) 96,00 %
19.08.2019 21:48 17,4 C 23,3 C 15,6 C 93 % 1017,5 hPa 0,0 l/m 1,7 km/h (1 Bft) SO 142 0 min 0,000 mm 0,0 UV-I 0 W/m 16,3 C 17,4 C 3,2 km/h (1 Bft) 97,87 %
19.08.2019 21:50 17,4 C 23,3 C 16,1 C 93 % 1017,4 hPa 0,0 l/m 2,1 km/h (1 Bft) SO 142 0 min 0,000 mm 0,0 UV-I 0 W/m 16,3 C 17,4 C 3,2 km/h (1 Bft) 97,37 %
19.08.2019 21:52 17,4 C 23,3 C 16,1 C 93 % 1017,3 hPa 0,0 l/m 1,6 km/h (1 Bft) SO 142 0 min 0,000 mm 0,0 UV-I 0 W/m 16,3 C 17,4 C 3,2 km/h (1 Bft) 95,74 %
19.08.2019 21:54 17,5 C 23,3 C 16,1 C 94 % 1017,4 hPa 0,0 l/m 1,9 km/h (1 Bft) SO 142 0 min 0,000 mm 0,0 UV-I 0 W/m 16,5 C 17,5 C 4,8 km/h (1 Bft) 97,87 %
19.08.2019 21:56 17,6 C 23,3 C 16,1 C 93 % 1017,4 hPa 0,0 l/m 2,3 km/h (1 Bft) SO 142 0 min 0,000 mm 0,0 UV-I 0 W/m 16,5 C 17,6 C 3,2 km/h (1 Bft) 100,00 %
19.08.2019 21:58 17,6 C 23,3 C 16,1 C 93 % 1017,4 hPa 0,0 l/m 1,8 km/h (1 Bft) SO 142 0 min 0,000 mm 0,0 UV-I 0 W/m 16,5 C 17,6 C 3,2 km/h (1 Bft) 92,11 %
19.08.2019 22:00 17,6 C 23,3 C 16,1 C 93 % 1017,4 hPa 0,0 l/m 3,1 km/h (1 Bft) S-SO 158 0 min 0,000 mm 0,0 UV-I 0 W/m 16,5 C 17,6 C 6,4 km/h (2 Bft) 100,00 %
19.08.2019 22:02 17,6 C 23,3 C 16,7 C 93 % 1017,4 hPa 0,0 l/m 4,4 km/h (1 Bft) SO 146 0 min 0,000 mm 0,0 UV-I 0 W/m 16,5 C 17,6 C 8,0 km/h (2 Bft) 100,00 %
19.08.2019 22:04 17,7 C 23,3 C 16,7 C 93 % 1017,4 hPa 0,0 l/m 4,9 km/h (1 Bft) S-SO 153 0 min 0,000 mm 0,0 UV-I 0 W/m 16,6 C 17,7 C 8,0 km/h (2 Bft) 98,21 %
19.08.2019 22:06 17,7 C 23,3 C 16,7 C 93 % 1017,4 hPa 0,0 l/m 6,0 km/h (2 Bft) S-SO 149 0 min 0,000 mm 0,0 UV-I 0 W/m 16,6 C 17,7 C 9,7 km/h (2 Bft) 97,56 %
19.08.2019 22:08 17,8 C 23,3 C 16,7 C 93 % 1017,4 hPa 0,0 l/m 5,7 km/h (1 Bft) S-SO 167 0 min 0,000 mm 0,0 UV-I 0 W/m 16,7 C 17,8 C 8,0 km/h (2 Bft) 96,00 %
19.08.2019 22:10 17,9 C 23,3 C 16,7 C 92 % 1017,4 hPa 0,0 l/m 5,5 km/h (1 Bft) S-SO 151 0 min 0,000 mm 0,0 UV-I 0 W/m 16,6 C 17,9 C 8,0 km/h (2 Bft) 100,00 %
19.08.2019 22:12 18,1 C 23,3 C 17,2 C 92 % 1017,4 hPa 0,0 l/m 4,7 km/h (1 Bft) S 175 0 min 0,000 mm 0,0 UV-I 0 W/m 16,8 C 18,1 C 8,0 km/h (2 Bft) 100,00 %
19.08.2019 22:14 18,2 C 23,3 C 17,2 C 92 % 1017,5 hPa 0,0 l/m 4,1 km/h (1 Bft) S-SO 161 0 min 0,000 mm 0,0 UV-I 0 W/m 16,9 C 18,2 C 8,0 km/h (2 Bft) 100,00 %
19.08.2019 22:16 18,2 C 23,3 C 17,2 C 91 % 1017,5 hPa 0,0 l/m 3,8 km/h (1 Bft) S 173 0 min 0,000 mm 0,0 UV-I 0 W/m 16,7 C 18,2 C 8,0 km/h (2 Bft) 100,00 %
19.08.2019 22:18 18,2 C 23,3 C 16,7 C 91 % 1017,5 hPa 0,0 l/m 1,9 km/h (1 Bft) S 171 0 min 0,000 mm 0,0 UV-I 0 W/m 16,7 C 18,2 C 3,2 km/h (1 Bft) 100,00 %
19.08.2019 22:20 18,1 C 23,3 C 16,7 C 91 % 1017,5 hPa 0,0 l/m 1,9 km/h (1 Bft) S 172 0 min 0,000 mm 0,0 UV-I 0 W/m 16,6 C 18,1 C 3,2 km/h (1 Bft) 98,11 %
19.08.2019 22:22 17,9 C 23,3 C 16,7 C 90 % 1017,6 hPa 0,0 l/m 2,7 km/h (1 Bft) S 173 0 min 0,000 mm 0,0 UV-I 0 W/m 16,2 C 17,9 C 4,8 km/h (1 Bft) 97,56 %
19.08.2019 22:24 17,7 C 23,3 C 16,7 C 91 % 1017,5 hPa 0,0 l/m 1,8 km/h (1 Bft) S 173 0 min 0,000 mm 0,0 UV-I 0 W/m 16,2 C 17,7 C 3,2 km/h (1 Bft) 96,00 %
19.08.2019 22:26 17,6 C 23,3 C 16,1 C 92 % 1017,5 hPa 0,0 l/m 1,7 km/h (1 Bft) S 173 0 min 0,000 mm 0,0 UV-I 0 W/m 16,3 C 17,6 C 3,2 km/h (1 Bft) 93,62 %
19.08.2019 22:28 17,5 C 23,3 C 16,1 C 92 % 1017,4 hPa 0,0 l/m 1,7 km/h (1 Bft) S 173 0 min 0,000 mm 0,0 UV-I 0 W/m 16,2 C 17,5 C 3,2 km/h (1 Bft) 96,00 %
19.08.2019 22:30 17,6 C 23,3 C 16,1 C 93 % 1017,4 hPa 0,0 l/m 0,9 km/h (0 Bft) S 173 0 min 0,000 mm 0,0 UV-I 0 W/m 16,5 C 17,6 C 3,2 km/h (1 Bft) 97,87 %
19.08.2019 22:32 17,6 C 23,3 C 16,1 C 93 % 1017,4 hPa 0,0 l/m 0,3 km/h (0 Bft) S 173 0 min 0,000 mm 0,0 UV-I 0 W/m 16,5 C 17,6 C 1,6 km/h (1 Bft) 95,74 %
19.08.2019 22:34 17,6 C 23,3 C 16,1 C 93 % 1017,4 hPa 0,0 l/m 0,4 km/h (0 Bft) S 173 0 min 0,000 mm 0,0 UV-I 0 W/m 16,5 C 17,6 C 1,6 km/h (1 Bft) 97,87 %
19.08.2019 22:36 17,6 C 23,3 C 16,1 C 93 % 1017,4 hPa 0,0 l/m 0,4 km/h (0 Bft) S 173 0 min 0,000 mm 0,0 UV-I 0 W/m 16,5 C 17,6 C 1,6 km/h (1 Bft) 94,00 %
19.08.2019 22:39 17,7 C 23,3 C 16,1 C 93 % 1017,4 hPa 0,0 l/m 1,8 km/h (1 Bft) S 173 0 min 0,000 mm 0,0 UV-I 0 W/m 16,6 C 17,7 C 3,2 km/h (1 Bft) 96,92 %
19.08.2019 22:40 17,7 C 23,3 C 16,1 C 93 % 1017,4 hPa 0,0 l/m 1,7 km/h (1 Bft) S 173 0 min 0,000 mm 0,0 UV-I 0 W/m 16,6 C 17,7 C 3,2 km/h (1 Bft) 95,65 %
19.08.2019 22:42 17,7 C 23,3 C 16,1 C 93 % 1017,4 hPa 0,0 l/m 2,2 km/h (1 Bft) S 173 0 min 0,000 mm 0,0 UV-I 0 W/m 16,6 C 17,7 C 3,2 km/h (1 Bft) 95,45 %
19.08.2019 22:44 17,6 C 23,3 C 16,7 C 93 % 1017,4 hPa 0,0 l/m 2,3 km/h (1 Bft) S 173 0 min 0,000 mm 0,0 UV-I 0 W/m 16,5 C 17,6 C 3,2 km/h (1 Bft) 95,74 %
19.08.2019 22:46 17,7 C 23,3 C 16,7 C 93 % 1017,5 hPa 0,0 l/m 2,5 km/h (1 Bft) S 173 0 min 0,000 mm 0,0 UV-I 0 W/m 16,6 C 17,7 C 3,2 km/h (1 Bft) 93,62 %
19.08.2019 22:48 17,7 C 23,3 C 16,7 C 93 % 1017,5 hPa 0,0 l/m 2,7 km/h (1 Bft) S 173 0 min 0,000 mm 0,0 UV-I 0 W/m 16,6 C 17,7 C 4,8 km/h (1 Bft) 95,74 %
19.08.2019 22:50 17,7 C 23,3 C 16,7 C 93 % 1017,5 hPa 0,0 l/m 3,0 km/h (1 Bft) S 173 0 min 0,000 mm 0,0 UV-I 0 W/m 16,6 C 17,7 C 4,8 km/h (1 Bft) 95,74 %
19.08.2019 22:52 17,7 C 23,3 C 16,7 C 93 % 1017,5 hPa 0,0 l/m 3,5 km/h (1 Bft) S 173 0 min 0,000 mm 0,0 UV-I 0 W/m 16,6 C 17,7 C 4,8 km/h (1 Bft) 96,00 %
19.08.2019 22:54 17,7 C 23,3 C 16,7 C 93 % 1017,5 hPa 0,0 l/m 2,8 km/h (1 Bft) S 173 0 min 0,000 mm 0,0 UV-I 0 W/m 16,6 C 17,7 C 3,2 km/h (1 Bft) 94,87 %
19.08.2019 22:56 17,6 C 23,3 C 16,1 C 93 % 1017,5 hPa 0,0 l/m 1,8 km/h (1 Bft) S 173 0 min 0,000 mm 0,0 UV-I 0 W/m 16,5 C 17,6 C 3,2 km/h (1 Bft) 98,11 %
19.08.2019 22:59 17,6 C 23,3 C 16,1 C 93 % 1017,6 hPa 0,0 l/m 2,8 km/h (1 Bft) N-NO 13 0 min 0,000 mm 0,0 UV-I 0 W/m 16,5 C 17,6 C 6,4 km/h (2 Bft) 95,71 %
19.08.2019 23:00 17,4 C 23,3 C 16,7 C 92 % 1017,6 hPa 0,0 l/m 4,9 km/h (1 Bft) N-NO 13 0 min 0,000 mm 0,0 UV-I 0 W/m 16,1 C 17,4 C 6,4 km/h (2 Bft) 95,83 %
19.08.2019 23:02 17,2 C 23,3 C 16,1 C 93 % 1017,6 hPa 0,0 l/m 3,3 km/h (1 Bft) N-NO 13 0 min 0,000 mm 0,0 UV-I 0 W/m 16,1 C 17,2 C 4,8 km/h (1 Bft) 96,23 %
19.08.2019 23:04 17,1 C 23,3 C 16,1 C 93 % 1017,6 hPa 0,0 l/m 2,4 km/h (1 Bft) N-NO 13 0 min 0,000 mm 0,0 UV-I 0 W/m 16,0 C 17,1 C 3,2 km/h (1 Bft) 93,62 %
19.08.2019 23:06 17,1 C 23,3 C 15,6 C 94 % 1017,6 hPa 0,0 l/m 3,2 km/h (1 Bft) N-NO 13 0 min 0,000 mm 0,0 UV-I 0 W/m 16,1 C 17,1 C 3,2 km/h (1 Bft) 93,62 %
19.08.2019 23:08 17,2 C 23,3 C 15,6 C 94 % 1017,6 hPa 0,0 l/m 2,2 km/h (1 Bft) N-NO 13 0 min 0,000 mm 0,0 UV-I 0 W/m 16,2 C 17,2 C 3,2 km/h (1 Bft) 95,12 %
19.08.2019 23:10 17,2 C 23,3 C 16,1 C 94 % 1017,6 hPa 0,0 l/m 0,1 km/h (0 Bft) N-NO 13 0 min 0,000 mm 0,0 UV-I 0 W/m 16,2 C 17,2 C 1,6 km/h (1 Bft) 95,74 %
19.08.2019 23:12 17,3 C 23,3 C 16,1 C 94 % 1017,6 hPa 0,0 l/m 0,2 km/h (0 Bft) N-NO 13 0 min 0,000 mm 0,0 UV-I 0 W/m 16,3 C 17,3 C 1,6 km/h (1 Bft) 93,62 %
19.08.2019 23:14 17,3 C 23,3 C 16,1 C 94 % 1017,6 hPa 0,0 l/m 0,7 km/h (0 Bft) N-NO 13 0 min 0,000 mm 0,0 UV-I 0 W/m 16,3 C 17,3 C 1,6 km/h (1 Bft) 95,45 %
19.08.2019 23:16 17,1 C 23,3 C 15,6 C 93 % 1017,6 hPa 0,0 l/m 0,2 km/h (0 Bft) N-NO 13 0 min 0,000 mm 0,0 UV-I 0 W/m 16,0 C 17,1 C 1,6 km/h (1 Bft) 92,45 %
19.08.2019 23:19 16,8 C 23,3 C 15,6 C 93 % 1017,7 hPa 0,0 l/m 0,3 km/h (0 Bft) N-NO 13 0 min 0,000 mm 0,0 UV-I 0 W/m 15,7 C 16,8 C 1,6 km/h (1 Bft) 94,59 %
19.08.2019 23:20 16,8 C 23,3 C 15,6 C 93 % 1017,7 hPa 0,0 l/m 0,5 km/h (0 Bft) N-NO 13 0 min 0,000 mm 0,0 UV-I 0 W/m 15,7 C 16,8 C 1,6 km/h (1 Bft) 100,00 %
19.08.2019 23:22 16,8 C 23,3 C 15,6 C 94 % 1017,7 hPa 0,0 l/m 1,2 km/h (1 Bft) N-NO 13 0 min 0,000 mm 0,0 UV-I 0 W/m 15,8 C 16,8 C 1,6 km/h (1 Bft) 96,23 %
19.08.2019 23:24 16,9 C 23,3 C 16,1 C 94 % 1017,7 hPa 0,0 l/m 0,2 km/h (0 Bft) N-NO 13 0 min 0,000 mm 0,0 UV-I 0 W/m 15,9 C 16,9 C 1,6 km/h (1 Bft) 97,87 %
19.08.2019 23:26 17,0 C 23,3 C 16,1 C 94 % 1017,8 hPa 0,0 l/m 0,4 km/h (0 Bft) N-NO 13 0 min 0,000 mm 0,0 UV-I 0 W/m 16,0 C 17,0 C 1,6 km/h (1 Bft) 94,00 %
19.08.2019 23:29 16,8 C 23,3 C 16,1 C 94 % 1017,8 hPa 0,0 l/m 1,6 km/h (1 Bft) N-NO 13 0 min 0,000 mm 0,0 UV-I 0 W/m 15,8 C 16,8 C 3,2 km/h (1 Bft) 98,65 %
19.08.2019 23:30 16,8 C 23,3 C 16,1 C 94 % 1017,8 hPa 0,0 l/m 0,5 km/h (0 Bft) N-NO 13 0 min 0,000 mm 0,0 UV-I 0 W/m 15,8 C 16,8 C 1,6 km/h (1 Bft) 91,67 %
19.08.2019 23:32 16,9 C 23,3 C 16,1 C 94 % 1017,8 hPa 0,0 l/m 2,1 km/h (1 Bft) O 81 0 min 0,000 mm 0,0 UV-I 0 W/m 15,9 C 16,9 C 4,8 km/h (1 Bft) 98,00 %
19.08.2019 23:34 16,6 C 23,3 C 16,1 C 93 % 1017,8 hPa 0,0 l/m 3,8 km/h (1 Bft) O 81 0 min 0,000 mm 0,0 UV-I 0 W/m 15,5 C 16,6 C 4,8 km/h (1 Bft) 98,00 %
19.08.2019 23:36 16,5 C 23,3 C 16,1 C 93 % 1017,8 hPa 0,0 l/m 4,5 km/h (1 Bft) O 90 0 min 0,000 mm 0,0 UV-I 0 W/m 15,4 C 16,5 C 4,8 km/h (1 Bft) 97,87 %
19.08.2019 23:38 16,4 C 23,3 C 16,1 C 94 % 1017,7 hPa 0,0 l/m 4,3 km/h (1 Bft) O 90 0 min 0,000 mm 0,0 UV-I 0 W/m 15,4 C 16,4 C 4,8 km/h (1 Bft) 100,00 %
19.08.2019 23:40 16,4 C 23,3 C 15,6 C 94 % 1017,7 hPa 0,0 l/m 4,3 km/h (1 Bft) O 90 0 min 0,000 mm 0,0 UV-I 0 W/m 15,4 C 16,4 C 4,8 km/h (1 Bft) 100,00 %
19.08.2019 23:42 16,5 C 23,3 C 16,1 C 95 % 1017,7 hPa 0,0 l/m 3,1 km/h (1 Bft) O 90 0 min 0,000 mm 0,0 UV-I 0 W/m 15,7 C 16,5 C 4,8 km/h (1 Bft) 100,00 %
19.08.2019 23:44 16,6 C 23,3 C 16,1 C 95 % 1017,6 hPa 0,0 l/m 2,5 km/h (1 Bft) O 90 0 min 0,000 mm 0,0 UV-I 0 W/m 15,8 C 16,6 C 3,2 km/h (1 Bft) 100,00 %
19.08.2019 23:46 16,6 C 23,3 C 16,1 C 95 % 1017,7 hPa 0,0 l/m 3,1 km/h (1 Bft) O 90 0 min 0,000 mm 0,0 UV-I 0 W/m 15,8 C 16,6 C 4,8 km/h (1 Bft) 100,00 %
19.08.2019 23:48 16,7 C 23,3 C 16,1 C 95 % 1017,6 hPa 0,0 l/m 3,0 km/h (1 Bft) O 90 0 min 0,000 mm 0,0 UV-I 0 W/m 15,9 C 16,7 C 3,2 km/h (1 Bft) 100,00 %
19.08.2019 23:50 16,7 C 23,3 C 16,1 C 95 % 1017,6 hPa 0,0 l/m 2,7 km/h (1 Bft) O 90 0 min 0,000 mm 0,0 UV-I 0 W/m 15,9 C 16,7 C 3,2 km/h (1 Bft) 100,00 %
19.08.2019 23:52 16,7 C 23,3 C 15,6 C 95 % 1017,5 hPa 0,0 l/m 1,6 km/h (1 Bft) O 90 0 min 0,000 mm 0,0 UV-I 0 W/m 15,9 C 16,7 C 3,2 km/h (1 Bft) 100,00 %
19.08.2019 23:54 16,7 C 23,3 C 15,6 C 95 % 1017,4 hPa 0,0 l/m 0,8 km/h (0 Bft) O 90 0 min 0,000 mm 0,0 UV-I 0 W/m 15,9 C 16,7 C 1,6 km/h (1 Bft) 100,00 %
19.08.2019 23:56 16,7 C 23,3 C 16,1 C 95 % 1017,4 hPa 0,0 l/m 0,7 km/h (0 Bft) O 90 0 min 0,000 mm 0,0 UV-I 0 W/m 15,9 C 16,7 C 1,6 km/h (1 Bft) 97,87 %
19.08.2019 23:58 16,7 C 23,3 C 16,1 C 95 % 1017,4 hPa 0,0 l/m 0,8 km/h (0 Bft) O 90 0 min 0,000 mm 0,0 UV-I 0 W/m 15,9 C 16,7 C 1,6 km/h (1 Bft) 98,00 %
_ Min-Zeit 23:36 08:48 21:44 13:32 01:00 - 16:38 - - - - - - 06:34 03:32 16:40 18:44
Minimum _ 16,4 C 22,8 C 15,6 C 48 % 1007,7 hPa - 0,0 km/h (0 Bft) - - - - - - 14,1 C 15,8 C 0,0 km/h (0 Bft) 88,46 %
_ Max-Zeit 13:30 00:00 13:40 23:42 23:26 16:08 05:04 - - 09:52 12:00 13:24 13:46 17:56 13:30 05:04 00:00
Maximum _ 27,3 C 23,9 C 40,6 C 95 % 1017,8 hPa 0,2 l/m 30,6 km/h
W (5 Bft)
- - 2 min 0,457 mm 5,8 UV-I 1020 W/m 19,0 C 27,3 C 49,9 km/h
W (6 Bft)
100,00 %
Durchschnitt _ 21,0 C 23,5 C 22,2 C 76 % 1014,6 hPa #0,4 l/m 6,2 km/h (2 Bft) W-SW - #3:32 h #2,565 mm 2,4 UV-I 209 W/m 16,3 C 20,5 C 10,1 km/h (2 Bft) 97,53 %